<?xml version="1.0" encoding="UTF-8" standalone="no" ?>
<gpx xmlns="http://www.topografix.com/GPX/1/1" xmlns:xsi="http://www.w3.org/2001/XMLSchema-instance" xsi:schemaLocation="http://www.topografix.com/GPX/1/1 http://www.topografix.com/GPX/1/1/gpx.xsd" version="1.1" creator="VisuGPX - https://www.visugpx.com">
  <metadata>
    <name>Havre de portbail plage de Lindbergh boucle</name>
  </metadata>
  <trk>
    <name><![CDATA[SityTrail - Havre de portbail plage de Lindbergh boucle]]></name>
    <trkseg>
      <trkpt lat="49.33751" lon="-1.70073">
        <ele>6</ele>
        <time>2023-08-22T10:43:15.795+00:00</time>
      </trkpt>
      <trkpt lat="49.33751" lon="-1.70073">
        <ele>6</ele>
        <time>2023-08-22T10:43:15.795+00:00</time>
      </trkpt>
      <trkpt lat="49.33751" lon="-1.7007">
        <ele>6</ele>
        <time>2023-08-22T10:43:21.824+00:00</time>
      </trkpt>
      <trkpt lat="49.33752" lon="-1.7007">
        <ele>6</ele>
        <time>2023-08-22T10:43:26.833+00:00</time>
      </trkpt>
      <trkpt lat="49.33752" lon="-1.70076">
        <ele>6</ele>
        <time>2023-08-22T10:43:31.830+00:00</time>
      </trkpt>
      <trkpt lat="49.33753" lon="-1.70079">
        <ele>6</ele>
        <time>2023-08-22T10:43:36.044+00:00</time>
      </trkpt>
      <trkpt lat="49.33753" lon="-1.70088">
        <ele>6</ele>
        <time>2023-08-22T10:43:40.053+00:00</time>
      </trkpt>
      <trkpt lat="49.33752" lon="-1.70092">
        <ele>6</ele>
        <time>2023-08-22T10:44:22.992+00:00</time>
      </trkpt>
      <trkpt lat="49.33751" lon="-1.70084">
        <ele>6</ele>
        <time>2023-08-22T10:44:27.509+00:00</time>
      </trkpt>
      <trkpt lat="49.33749" lon="-1.70076">
        <ele>6</ele>
        <time>2023-08-22T10:44:31.523+00:00</time>
      </trkpt>
      <trkpt lat="49.33751" lon="-1.7007">
        <ele>6</ele>
        <time>2023-08-22T10:44:35.638+00:00</time>
      </trkpt>
      <trkpt lat="49.33751" lon="-1.70067">
        <ele>7</ele>
        <time>2023-08-22T10:44:39.656+00:00</time>
      </trkpt>
      <trkpt lat="49.33748" lon="-1.70067">
        <ele>7</ele>
        <time>2023-08-22T10:44:43.673+00:00</time>
      </trkpt>
      <trkpt lat="49.33744" lon="-1.70069">
        <ele>7</ele>
        <time>2023-08-22T10:44:47.689+00:00</time>
      </trkpt>
      <trkpt lat="49.33738" lon="-1.70069">
        <ele>6</ele>
        <time>2023-08-22T10:44:51.706+00:00</time>
      </trkpt>
      <trkpt lat="49.33731" lon="-1.7007">
        <ele>6</ele>
        <time>2023-08-22T10:44:55.824+00:00</time>
      </trkpt>
      <trkpt lat="49.33726" lon="-1.70071">
        <ele>6</ele>
        <time>2023-08-22T10:44:59.838+00:00</time>
      </trkpt>
      <trkpt lat="49.33723" lon="-1.70073">
        <ele>6</ele>
        <time>2023-08-22T10:45:04.365+00:00</time>
      </trkpt>
      <trkpt lat="49.33723" lon="-1.70074">
        <ele>6</ele>
        <time>2023-08-22T10:45:08.380+00:00</time>
      </trkpt>
      <trkpt lat="49.33719" lon="-1.70071">
        <ele>6</ele>
        <time>2023-08-22T10:45:12.393+00:00</time>
      </trkpt>
      <trkpt lat="49.33715" lon="-1.70069">
        <ele>7</ele>
        <time>2023-08-22T10:45:17.410+00:00</time>
      </trkpt>
      <trkpt lat="49.33712" lon="-1.70071">
        <ele>6</ele>
        <time>2023-08-22T10:45:21.925+00:00</time>
      </trkpt>
      <trkpt lat="49.33709" lon="-1.70072">
        <ele>6</ele>
        <time>2023-08-22T10:45:26.113+00:00</time>
      </trkpt>
      <trkpt lat="49.33705" lon="-1.70069">
        <ele>6</ele>
        <time>2023-08-22T10:45:30.657+00:00</time>
      </trkpt>
      <trkpt lat="49.33698" lon="-1.70068">
        <ele>6</ele>
        <time>2023-08-22T10:45:34.768+00:00</time>
      </trkpt>
      <trkpt lat="49.33692" lon="-1.7007">
        <ele>6</ele>
        <time>2023-08-22T10:45:39.285+00:00</time>
      </trkpt>
      <trkpt lat="49.33687" lon="-1.7007">
        <ele>6</ele>
        <time>2023-08-22T10:45:43.803+00:00</time>
      </trkpt>
      <trkpt lat="49.33683" lon="-1.70069">
        <ele>6</ele>
        <time>2023-08-22T10:45:47.819+00:00</time>
      </trkpt>
      <trkpt lat="49.3368" lon="-1.70068">
        <ele>7</ele>
        <time>2023-08-22T10:45:51.848+00:00</time>
      </trkpt>
      <trkpt lat="49.33679" lon="-1.70069">
        <ele>7</ele>
        <time>2023-08-22T10:45:56.369+00:00</time>
      </trkpt>
      <trkpt lat="49.33675" lon="-1.70071">
        <ele>5</ele>
        <time>2023-08-22T10:46:00.891+00:00</time>
      </trkpt>
      <trkpt lat="49.33671" lon="-1.70069">
        <ele>7</ele>
        <time>2023-08-22T10:46:04.912+00:00</time>
      </trkpt>
      <trkpt lat="49.33661" lon="-1.70069">
        <ele>7</ele>
        <time>2023-08-22T10:46:09.534+00:00</time>
      </trkpt>
      <trkpt lat="49.33654" lon="-1.70068">
        <ele>7</ele>
        <time>2023-08-22T10:46:13.552+00:00</time>
      </trkpt>
      <trkpt lat="49.33651" lon="-1.70064">
        <ele>6</ele>
        <time>2023-08-22T10:46:17.572+00:00</time>
      </trkpt>
      <trkpt lat="49.33646" lon="-1.70061">
        <ele>6</ele>
        <time>2023-08-22T10:46:22.194+00:00</time>
      </trkpt>
      <trkpt lat="49.33642" lon="-1.70059">
        <ele>6</ele>
        <time>2023-08-22T10:46:26.713+00:00</time>
      </trkpt>
      <trkpt lat="49.33638" lon="-1.70057">
        <ele>6</ele>
        <time>2023-08-22T10:46:31.734+00:00</time>
      </trkpt>
      <trkpt lat="49.33632" lon="-1.70056">
        <ele>6</ele>
        <time>2023-08-22T10:46:35.752+00:00</time>
      </trkpt>
      <trkpt lat="49.33628" lon="-1.70054">
        <ele>6</ele>
        <time>2023-08-22T10:46:40.389+00:00</time>
      </trkpt>
      <trkpt lat="49.33622" lon="-1.70053">
        <ele>7</ele>
        <time>2023-08-22T10:46:45.625+00:00</time>
      </trkpt>
      <trkpt lat="49.33617" lon="-1.70053">
        <ele>7</ele>
        <time>2023-08-22T10:46:49.831+00:00</time>
      </trkpt>
      <trkpt lat="49.33613" lon="-1.70051">
        <ele>7</ele>
        <time>2023-08-22T10:46:53.850+00:00</time>
      </trkpt>
      <trkpt lat="49.3361" lon="-1.70053">
        <ele>7</ele>
        <time>2023-08-22T10:46:58.372+00:00</time>
      </trkpt>
      <trkpt lat="49.33607" lon="-1.70049">
        <ele>7</ele>
        <time>2023-08-22T10:47:02.896+00:00</time>
      </trkpt>
      <trkpt lat="49.33606" lon="-1.70044">
        <ele>7</ele>
        <time>2023-08-22T10:47:07.436+00:00</time>
      </trkpt>
      <trkpt lat="49.336" lon="-1.70043">
        <ele>7</ele>
        <time>2023-08-22T10:47:11.965+00:00</time>
      </trkpt>
      <trkpt lat="49.33593" lon="-1.70042">
        <ele>8</ele>
        <time>2023-08-22T10:47:16.076+00:00</time>
      </trkpt>
      <trkpt lat="49.33586" lon="-1.70042">
        <ele>7</ele>
        <time>2023-08-22T10:47:20.088+00:00</time>
      </trkpt>
      <trkpt lat="49.33579" lon="-1.70042">
        <ele>7</ele>
        <time>2023-08-22T10:47:24.199+00:00</time>
      </trkpt>
      <trkpt lat="49.33574" lon="-1.7004">
        <ele>8</ele>
        <time>2023-08-22T10:47:28.211+00:00</time>
      </trkpt>
      <trkpt lat="49.33569" lon="-1.70036">
        <ele>9</ele>
        <time>2023-08-22T10:47:32.723+00:00</time>
      </trkpt>
      <trkpt lat="49.33562" lon="-1.70031">
        <ele>9</ele>
        <time>2023-08-22T10:47:37.236+00:00</time>
      </trkpt>
      <trkpt lat="49.33557" lon="-1.70025">
        <ele>9</ele>
        <time>2023-08-22T10:47:41.247+00:00</time>
      </trkpt>
      <trkpt lat="49.33553" lon="-1.7002">
        <ele>9</ele>
        <time>2023-08-22T10:47:45.759+00:00</time>
      </trkpt>
      <trkpt lat="49.33549" lon="-1.70016">
        <ele>9</ele>
        <time>2023-08-22T10:47:49.770+00:00</time>
      </trkpt>
      <trkpt lat="49.33544" lon="-1.70014">
        <ele>9</ele>
        <time>2023-08-22T10:47:53.780+00:00</time>
      </trkpt>
      <trkpt lat="49.33539" lon="-1.70015">
        <ele>9</ele>
        <time>2023-08-22T10:47:58.391+00:00</time>
      </trkpt>
      <trkpt lat="49.33534" lon="-1.70013">
        <ele>10</ele>
        <time>2023-08-22T10:48:01.900+00:00</time>
      </trkpt>
      <trkpt lat="49.3353" lon="-1.70011">
        <ele>10</ele>
        <time>2023-08-22T10:48:06.409+00:00</time>
      </trkpt>
      <trkpt lat="49.33525" lon="-1.70004">
        <ele>10</ele>
        <time>2023-08-22T10:48:11.420+00:00</time>
      </trkpt>
      <trkpt lat="49.33525" lon="-1.70004">
        <ele>10</ele>
        <time>2023-08-22T10:48:15.936+00:00</time>
      </trkpt>
      <trkpt lat="49.33524" lon="-1.70004">
        <ele>10</ele>
        <time>2023-08-22T10:48:20.464+00:00</time>
      </trkpt>
      <trkpt lat="49.33525" lon="-1.70001">
        <ele>10</ele>
        <time>2023-08-22T10:48:25.485+00:00</time>
      </trkpt>
      <trkpt lat="49.33523" lon="-1.69998">
        <ele>10</ele>
        <time>2023-08-22T10:48:30.004+00:00</time>
      </trkpt>
      <trkpt lat="49.33515" lon="-1.69993">
        <ele>10</ele>
        <time>2023-08-22T10:48:34.525+00:00</time>
      </trkpt>
      <trkpt lat="49.3351" lon="-1.69991">
        <ele>8</ele>
        <time>2023-08-22T10:48:38.559+00:00</time>
      </trkpt>
      <trkpt lat="49.33504" lon="-1.69987">
        <ele>8</ele>
        <time>2023-08-22T10:48:43.077+00:00</time>
      </trkpt>
      <trkpt lat="49.335" lon="-1.6998">
        <ele>8</ele>
        <time>2023-08-22T10:48:47.695+00:00</time>
      </trkpt>
      <trkpt lat="49.33499" lon="-1.69982">
        <ele>8</ele>
        <time>2023-08-22T10:48:52.715+00:00</time>
      </trkpt>
      <trkpt lat="49.33499" lon="-1.69981">
        <ele>8</ele>
        <time>2023-08-22T10:48:57.736+00:00</time>
      </trkpt>
      <trkpt lat="49.33499" lon="-1.69978">
        <ele>8</ele>
        <time>2023-08-22T10:49:02.755+00:00</time>
      </trkpt>
      <trkpt lat="49.33499" lon="-1.69976">
        <ele>8</ele>
        <time>2023-08-22T10:49:07.476+00:00</time>
      </trkpt>
      <trkpt lat="49.33497" lon="-1.69992">
        <ele>8</ele>
        <time>2023-08-22T10:49:11.494+00:00</time>
      </trkpt>
      <trkpt lat="49.33497" lon="-1.70001">
        <ele>8</ele>
        <time>2023-08-22T10:49:16.013+00:00</time>
      </trkpt>
      <trkpt lat="49.33491" lon="-1.7001">
        <ele>8</ele>
        <time>2023-08-22T10:49:48.437+00:00</time>
      </trkpt>
      <trkpt lat="49.33496" lon="-1.70007">
        <ele>8</ele>
        <time>2023-08-22T10:49:53.458+00:00</time>
      </trkpt>
      <trkpt lat="49.3349" lon="-1.7002">
        <ele>7</ele>
        <time>2023-08-22T10:49:57.474+00:00</time>
      </trkpt>
      <trkpt lat="49.33488" lon="-1.70028">
        <ele>7</ele>
        <time>2023-08-22T10:50:01.490+00:00</time>
      </trkpt>
      <trkpt lat="49.33489" lon="-1.70037">
        <ele>7</ele>
        <time>2023-08-22T10:50:06.008+00:00</time>
      </trkpt>
      <trkpt lat="49.33493" lon="-1.7004">
        <ele>7</ele>
        <time>2023-08-22T10:50:27.612+00:00</time>
      </trkpt>
      <trkpt lat="49.33493" lon="-1.70037">
        <ele>7</ele>
        <time>2023-08-22T10:50:32.129+00:00</time>
      </trkpt>
      <trkpt lat="49.33494" lon="-1.70035">
        <ele>7</ele>
        <time>2023-08-22T10:50:36.647+00:00</time>
      </trkpt>
      <trkpt lat="49.33493" lon="-1.70029">
        <ele>7</ele>
        <time>2023-08-22T10:50:41.164+00:00</time>
      </trkpt>
      <trkpt lat="49.33492" lon="-1.70022">
        <ele>7</ele>
        <time>2023-08-22T10:50:45.680+00:00</time>
      </trkpt>
      <trkpt lat="49.3349" lon="-1.70025">
        <ele>7</ele>
        <time>2023-08-22T10:50:49.694+00:00</time>
      </trkpt>
      <trkpt lat="49.33482" lon="-1.70032">
        <ele>5</ele>
        <time>2023-08-22T10:50:54.212+00:00</time>
      </trkpt>
      <trkpt lat="49.33479" lon="-1.70035">
        <ele>5</ele>
        <time>2023-08-22T10:50:58.327+00:00</time>
      </trkpt>
      <trkpt lat="49.33476" lon="-1.70032">
        <ele>5</ele>
        <time>2023-08-22T10:51:02.441+00:00</time>
      </trkpt>
      <trkpt lat="49.33473" lon="-1.70029">
        <ele>5</ele>
        <time>2023-08-22T10:51:06.454+00:00</time>
      </trkpt>
      <trkpt lat="49.33468" lon="-1.70033">
        <ele>5</ele>
        <time>2023-08-22T10:51:10.969+00:00</time>
      </trkpt>
      <trkpt lat="49.33466" lon="-1.70032">
        <ele>5</ele>
        <time>2023-08-22T10:51:15.083+00:00</time>
      </trkpt>
      <trkpt lat="49.33462" lon="-1.70027">
        <ele>5</ele>
        <time>2023-08-22T10:51:19.096+00:00</time>
      </trkpt>
      <trkpt lat="49.33459" lon="-1.70016">
        <ele>5</ele>
        <time>2023-08-22T10:51:23.612+00:00</time>
      </trkpt>
      <trkpt lat="49.3346" lon="-1.70005">
        <ele>5</ele>
        <time>2023-08-22T10:51:28.126+00:00</time>
      </trkpt>
      <trkpt lat="49.33462" lon="-1.69998">
        <ele>5</ele>
        <time>2023-08-22T10:51:32.640+00:00</time>
      </trkpt>
      <trkpt lat="49.33463" lon="-1.69994">
        <ele>5</ele>
        <time>2023-08-22T10:51:37.156+00:00</time>
      </trkpt>
      <trkpt lat="49.3346" lon="-1.69988">
        <ele>5</ele>
        <time>2023-08-22T10:51:46.192+00:00</time>
      </trkpt>
      <trkpt lat="49.33458" lon="-1.69988">
        <ele>4</ele>
        <time>2023-08-22T10:51:50.709+00:00</time>
      </trkpt>
      <trkpt lat="49.33458" lon="-1.69983">
        <ele>6</ele>
        <time>2023-08-22T10:51:55.228+00:00</time>
      </trkpt>
      <trkpt lat="49.33464" lon="-1.69978">
        <ele>6</ele>
        <time>2023-08-22T10:51:59.745+00:00</time>
      </trkpt>
      <trkpt lat="49.3347" lon="-1.6998">
        <ele>6</ele>
        <time>2023-08-22T10:52:04.261+00:00</time>
      </trkpt>
      <trkpt lat="49.33473" lon="-1.69979">
        <ele>6</ele>
        <time>2023-08-22T10:52:08.276+00:00</time>
      </trkpt>
      <trkpt lat="49.33475" lon="-1.69977">
        <ele>6</ele>
        <time>2023-08-22T10:52:12.792+00:00</time>
      </trkpt>
      <trkpt lat="49.33473" lon="-1.6997">
        <ele>6</ele>
        <time>2023-08-22T10:52:16.406+00:00</time>
      </trkpt>
      <trkpt lat="49.33469" lon="-1.69964">
        <ele>6</ele>
        <time>2023-08-22T10:52:20.922+00:00</time>
      </trkpt>
      <trkpt lat="49.33466" lon="-1.69959">
        <ele>6</ele>
        <time>2023-08-22T10:52:25.439+00:00</time>
      </trkpt>
      <trkpt lat="49.33468" lon="-1.69957">
        <ele>8</ele>
        <time>2023-08-22T10:52:29.455+00:00</time>
      </trkpt>
      <trkpt lat="49.33473" lon="-1.69953">
        <ele>8</ele>
        <time>2023-08-22T10:52:33.973+00:00</time>
      </trkpt>
      <trkpt lat="49.33473" lon="-1.69948">
        <ele>8</ele>
        <time>2023-08-22T10:52:38.489+00:00</time>
      </trkpt>
      <trkpt lat="49.33472" lon="-1.69946">
        <ele>8</ele>
        <time>2023-08-22T10:55:27.791+00:00</time>
      </trkpt>
      <trkpt lat="49.33473" lon="-1.69951">
        <ele>8</ele>
        <time>2023-08-22T10:55:32.796+00:00</time>
      </trkpt>
      <trkpt lat="49.3347" lon="-1.6995">
        <ele>8</ele>
        <time>2023-08-22T10:55:37.773+00:00</time>
      </trkpt>
      <trkpt lat="49.33469" lon="-1.69955">
        <ele>8</ele>
        <time>2023-08-22T10:55:42.804+00:00</time>
      </trkpt>
      <trkpt lat="49.33465" lon="-1.69958">
        <ele>8</ele>
        <time>2023-08-22T10:55:47.815+00:00</time>
      </trkpt>
      <trkpt lat="49.33465" lon="-1.69959">
        <ele>6</ele>
        <time>2023-08-22T10:55:52.810+00:00</time>
      </trkpt>
      <trkpt lat="49.33468" lon="-1.69952">
        <ele>8</ele>
        <time>2023-08-22T10:55:57.655+00:00</time>
      </trkpt>
      <trkpt lat="49.33468" lon="-1.69951">
        <ele>8</ele>
        <time>2023-08-22T10:56:01.659+00:00</time>
      </trkpt>
      <trkpt lat="49.33468" lon="-1.6995">
        <ele>8</ele>
        <time>2023-08-22T10:56:03.660+00:00</time>
      </trkpt>
      <trkpt lat="49.33471" lon="-1.69932">
        <ele>8</ele>
        <time>2023-08-22T11:08:05.737+00:00</time>
      </trkpt>
      <trkpt lat="49.33472" lon="-1.69935">
        <ele>8</ele>
        <time>2023-08-22T11:08:10.358+00:00</time>
      </trkpt>
      <trkpt lat="49.33472" lon="-1.69938">
        <ele>8</ele>
        <time>2023-08-22T11:08:15.119+00:00</time>
      </trkpt>
      <trkpt lat="49.33473" lon="-1.69943">
        <ele>8</ele>
        <time>2023-08-22T11:08:19.141+00:00</time>
      </trkpt>
      <trkpt lat="49.33474" lon="-1.69946">
        <ele>8</ele>
        <time>2023-08-22T11:08:23.322+00:00</time>
      </trkpt>
      <trkpt lat="49.33475" lon="-1.69949">
        <ele>8</ele>
        <time>2023-08-22T11:08:27.883+00:00</time>
      </trkpt>
      <trkpt lat="49.33473" lon="-1.69953">
        <ele>8</ele>
        <time>2023-08-22T11:11:03.698+00:00</time>
      </trkpt>
      <trkpt lat="49.33472" lon="-1.69953">
        <ele>8</ele>
        <time>2023-08-22T11:11:08.239+00:00</time>
      </trkpt>
      <trkpt lat="49.33471" lon="-1.69955">
        <ele>8</ele>
        <time>2023-08-22T11:11:12.520+00:00</time>
      </trkpt>
      <trkpt lat="49.33468" lon="-1.69963">
        <ele>6</ele>
        <time>2023-08-22T11:11:16.787+00:00</time>
      </trkpt>
      <trkpt lat="49.33466" lon="-1.69967">
        <ele>6</ele>
        <time>2023-08-22T11:11:20.621+00:00</time>
      </trkpt>
      <trkpt lat="49.33462" lon="-1.69965">
        <ele>6</ele>
        <time>2023-08-22T11:11:25.742+00:00</time>
      </trkpt>
      <trkpt lat="49.33458" lon="-1.69961">
        <ele>6</ele>
        <time>2023-08-22T11:11:29.520+00:00</time>
      </trkpt>
      <trkpt lat="49.33453" lon="-1.69959">
        <ele>6</ele>
        <time>2023-08-22T11:11:34.318+00:00</time>
      </trkpt>
      <trkpt lat="49.33452" lon="-1.69953">
        <ele>7</ele>
        <time>2023-08-22T11:11:38.801+00:00</time>
      </trkpt>
      <trkpt lat="49.33453" lon="-1.69943">
        <ele>7</ele>
        <time>2023-08-22T11:11:43.019+00:00</time>
      </trkpt>
      <trkpt lat="49.3345" lon="-1.69938">
        <ele>7</ele>
        <time>2023-08-22T11:11:47.221+00:00</time>
      </trkpt>
      <trkpt lat="49.33446" lon="-1.69934">
        <ele>7</ele>
        <time>2023-08-22T11:11:51.180+00:00</time>
      </trkpt>
      <trkpt lat="49.33441" lon="-1.69931">
        <ele>7</ele>
        <time>2023-08-22T11:11:55.020+00:00</time>
      </trkpt>
      <trkpt lat="49.33435" lon="-1.69929">
        <ele>8</ele>
        <time>2023-08-22T11:11:59.038+00:00</time>
      </trkpt>
      <trkpt lat="49.33429" lon="-1.69929">
        <ele>7</ele>
        <time>2023-08-22T11:12:03.802+00:00</time>
      </trkpt>
      <trkpt lat="49.33424" lon="-1.69929">
        <ele>7</ele>
        <time>2023-08-22T11:12:08.353+00:00</time>
      </trkpt>
      <trkpt lat="49.33419" lon="-1.69931">
        <ele>6</ele>
        <time>2023-08-22T11:12:13.723+00:00</time>
      </trkpt>
      <trkpt lat="49.3342" lon="-1.69932">
        <ele>6</ele>
        <time>2023-08-22T11:12:17.737+00:00</time>
      </trkpt>
      <trkpt lat="49.33419" lon="-1.69932">
        <ele>6</ele>
        <time>2023-08-22T11:12:22.760+00:00</time>
      </trkpt>
      <trkpt lat="49.33417" lon="-1.69929">
        <ele>7</ele>
        <time>2023-08-22T11:12:27.371+00:00</time>
      </trkpt>
      <trkpt lat="49.33416" lon="-1.69925">
        <ele>7</ele>
        <time>2023-08-22T11:12:32.399+00:00</time>
      </trkpt>
      <trkpt lat="49.33413" lon="-1.6992">
        <ele>7</ele>
        <time>2023-08-22T11:12:36.499+00:00</time>
      </trkpt>
      <trkpt lat="49.33409" lon="-1.69917">
        <ele>7</ele>
        <time>2023-08-22T11:12:41.011+00:00</time>
      </trkpt>
      <trkpt lat="49.33404" lon="-1.69914">
        <ele>7</ele>
        <time>2023-08-22T11:12:45.026+00:00</time>
      </trkpt>
      <trkpt lat="49.33403" lon="-1.69912">
        <ele>7</ele>
        <time>2023-08-22T11:12:49.535+00:00</time>
      </trkpt>
      <trkpt lat="49.33402" lon="-1.69912">
        <ele>4</ele>
        <time>2023-08-22T11:12:54.040+00:00</time>
      </trkpt>
      <trkpt lat="49.33396" lon="-1.69899">
        <ele>6</ele>
        <time>2023-08-22T11:12:58.544+00:00</time>
      </trkpt>
      <trkpt lat="49.33392" lon="-1.69889">
        <ele>6</ele>
        <time>2023-08-22T11:13:02.605+00:00</time>
      </trkpt>
      <trkpt lat="49.33387" lon="-1.69882">
        <ele>6</ele>
        <time>2023-08-22T11:13:07.187+00:00</time>
      </trkpt>
      <trkpt lat="49.33384" lon="-1.69877">
        <ele>6</ele>
        <time>2023-08-22T11:13:11.189+00:00</time>
      </trkpt>
      <trkpt lat="49.33382" lon="-1.69872">
        <ele>7</ele>
        <time>2023-08-22T11:13:15.191+00:00</time>
      </trkpt>
      <trkpt lat="49.33378" lon="-1.6987">
        <ele>7</ele>
        <time>2023-08-22T11:13:19.292+00:00</time>
      </trkpt>
      <trkpt lat="49.33376" lon="-1.69864">
        <ele>7</ele>
        <time>2023-08-22T11:13:23.794+00:00</time>
      </trkpt>
      <trkpt lat="49.33372" lon="-1.6986">
        <ele>4</ele>
        <time>2023-08-22T11:13:27.836+00:00</time>
      </trkpt>
      <trkpt lat="49.33368" lon="-1.69855">
        <ele>4</ele>
        <time>2023-08-22T11:13:31.736+00:00</time>
      </trkpt>
      <trkpt lat="49.33362" lon="-1.69838">
        <ele>6</ele>
        <time>2023-08-22T11:13:48.780+00:00</time>
      </trkpt>
      <trkpt lat="49.33358" lon="-1.69833">
        <ele>6</ele>
        <time>2023-08-22T11:13:52.891+00:00</time>
      </trkpt>
      <trkpt lat="49.33353" lon="-1.69827">
        <ele>6</ele>
        <time>2023-08-22T11:13:57.501+00:00</time>
      </trkpt>
      <trkpt lat="49.3335" lon="-1.69821">
        <ele>6</ele>
        <time>2023-08-22T11:14:01.509+00:00</time>
      </trkpt>
      <trkpt lat="49.33346" lon="-1.69815">
        <ele>5</ele>
        <time>2023-08-22T11:14:06.019+00:00</time>
      </trkpt>
      <trkpt lat="49.33342" lon="-1.69813">
        <ele>5</ele>
        <time>2023-08-22T11:14:10.027+00:00</time>
      </trkpt>
      <trkpt lat="49.33338" lon="-1.69809">
        <ele>5</ele>
        <time>2023-08-22T11:14:14.539+00:00</time>
      </trkpt>
      <trkpt lat="49.33333" lon="-1.69805">
        <ele>5</ele>
        <time>2023-08-22T11:14:19.047+00:00</time>
      </trkpt>
      <trkpt lat="49.33328" lon="-1.69802">
        <ele>5</ele>
        <time>2023-08-22T11:14:23.556+00:00</time>
      </trkpt>
      <trkpt lat="49.33324" lon="-1.69799">
        <ele>5</ele>
        <time>2023-08-22T11:14:27.564+00:00</time>
      </trkpt>
      <trkpt lat="49.33319" lon="-1.69796">
        <ele>3</ele>
        <time>2023-08-22T11:14:32.072+00:00</time>
      </trkpt>
      <trkpt lat="49.33316" lon="-1.69791">
        <ele>5</ele>
        <time>2023-08-22T11:14:36.081+00:00</time>
      </trkpt>
      <trkpt lat="49.33313" lon="-1.69788">
        <ele>5</ele>
        <time>2023-08-22T11:14:40.591+00:00</time>
      </trkpt>
      <trkpt lat="49.33308" lon="-1.69787">
        <ele>5</ele>
        <time>2023-08-22T11:14:44.700+00:00</time>
      </trkpt>
      <trkpt lat="49.33304" lon="-1.69785">
        <ele>5</ele>
        <time>2023-08-22T11:14:48.709+00:00</time>
      </trkpt>
      <trkpt lat="49.33299" lon="-1.69783">
        <ele>5</ele>
        <time>2023-08-22T11:14:52.819+00:00</time>
      </trkpt>
      <trkpt lat="49.33295" lon="-1.69779">
        <ele>5</ele>
        <time>2023-08-22T11:14:56.827+00:00</time>
      </trkpt>
      <trkpt lat="49.33291" lon="-1.69774">
        <ele>5</ele>
        <time>2023-08-22T11:15:01.335+00:00</time>
      </trkpt>
      <trkpt lat="49.33286" lon="-1.69769">
        <ele>5</ele>
        <time>2023-08-22T11:15:05.844+00:00</time>
      </trkpt>
      <trkpt lat="49.33281" lon="-1.69765">
        <ele>5</ele>
        <time>2023-08-22T11:15:10.453+00:00</time>
      </trkpt>
      <trkpt lat="49.33278" lon="-1.69762">
        <ele>7</ele>
        <time>2023-08-22T11:15:14.461+00:00</time>
      </trkpt>
      <trkpt lat="49.33278" lon="-1.69763">
        <ele>7</ele>
        <time>2023-08-22T11:15:18.973+00:00</time>
      </trkpt>
      <trkpt lat="49.33276" lon="-1.69761">
        <ele>7</ele>
        <time>2023-08-22T11:15:22.987+00:00</time>
      </trkpt>
      <trkpt lat="49.33272" lon="-1.69756">
        <ele>7</ele>
        <time>2023-08-22T11:15:27.098+00:00</time>
      </trkpt>
      <trkpt lat="49.33267" lon="-1.69752">
        <ele>7</ele>
        <time>2023-08-22T11:15:31.108+00:00</time>
      </trkpt>
      <trkpt lat="49.33263" lon="-1.69748">
        <ele>5</ele>
        <time>2023-08-22T11:15:35.619+00:00</time>
      </trkpt>
      <trkpt lat="49.33257" lon="-1.69743">
        <ele>5</ele>
        <time>2023-08-22T11:15:40.647+00:00</time>
      </trkpt>
      <trkpt lat="49.33252" lon="-1.69738">
        <ele>5</ele>
        <time>2023-08-22T11:15:44.245+00:00</time>
      </trkpt>
      <trkpt lat="49.33249" lon="-1.69733">
        <ele>7</ele>
        <time>2023-08-22T11:15:48.757+00:00</time>
      </trkpt>
      <trkpt lat="49.33244" lon="-1.6973">
        <ele>7</ele>
        <time>2023-08-22T11:15:52.770+00:00</time>
      </trkpt>
      <trkpt lat="49.33239" lon="-1.69726">
        <ele>7</ele>
        <time>2023-08-22T11:15:57.281+00:00</time>
      </trkpt>
      <trkpt lat="49.33235" lon="-1.69722">
        <ele>4</ele>
        <time>2023-08-22T11:16:01.893+00:00</time>
      </trkpt>
      <trkpt lat="49.3323" lon="-1.69718">
        <ele>4</ele>
        <time>2023-08-22T11:16:06.404+00:00</time>
      </trkpt>
      <trkpt lat="49.33225" lon="-1.69714">
        <ele>4</ele>
        <time>2023-08-22T11:16:10.917+00:00</time>
      </trkpt>
      <trkpt lat="49.33221" lon="-1.69709">
        <ele>4</ele>
        <time>2023-08-22T11:16:15.427+00:00</time>
      </trkpt>
      <trkpt lat="49.33216" lon="-1.69705">
        <ele>5</ele>
        <time>2023-08-22T11:16:20.439+00:00</time>
      </trkpt>
      <trkpt lat="49.33212" lon="-1.69699">
        <ele>5</ele>
        <time>2023-08-22T11:16:24.951+00:00</time>
      </trkpt>
      <trkpt lat="49.33208" lon="-1.69694">
        <ele>5</ele>
        <time>2023-08-22T11:16:28.961+00:00</time>
      </trkpt>
      <trkpt lat="49.33205" lon="-1.6969">
        <ele>3</ele>
        <time>2023-08-22T11:16:32.972+00:00</time>
      </trkpt>
      <trkpt lat="49.33201" lon="-1.69685">
        <ele>3</ele>
        <time>2023-08-22T11:16:37.484+00:00</time>
      </trkpt>
      <trkpt lat="49.33197" lon="-1.69682">
        <ele>3</ele>
        <time>2023-08-22T11:16:41.494+00:00</time>
      </trkpt>
      <trkpt lat="49.33193" lon="-1.69677">
        <ele>4</ele>
        <time>2023-08-22T11:16:46.007+00:00</time>
      </trkpt>
      <trkpt lat="49.33189" lon="-1.69671">
        <ele>4</ele>
        <time>2023-08-22T11:16:50.619+00:00</time>
      </trkpt>
      <trkpt lat="49.33185" lon="-1.69666">
        <ele>4</ele>
        <time>2023-08-22T11:16:55.132+00:00</time>
      </trkpt>
      <trkpt lat="49.33181" lon="-1.69662">
        <ele>4</ele>
        <time>2023-08-22T11:16:59.142+00:00</time>
      </trkpt>
      <trkpt lat="49.33178" lon="-1.69656">
        <ele>3</ele>
        <time>2023-08-22T11:17:03.654+00:00</time>
      </trkpt>
      <trkpt lat="49.33174" lon="-1.69653">
        <ele>4</ele>
        <time>2023-08-22T11:17:07.664+00:00</time>
      </trkpt>
      <trkpt lat="49.3317" lon="-1.69648">
        <ele>4</ele>
        <time>2023-08-22T11:17:12.280+00:00</time>
      </trkpt>
      <trkpt lat="49.33166" lon="-1.69643">
        <ele>4</ele>
        <time>2023-08-22T11:17:16.892+00:00</time>
      </trkpt>
      <trkpt lat="49.33162" lon="-1.69637">
        <ele>4</ele>
        <time>2023-08-22T11:17:21.499+00:00</time>
      </trkpt>
      <trkpt lat="49.33157" lon="-1.69633">
        <ele>4</ele>
        <time>2023-08-22T11:17:26.102+00:00</time>
      </trkpt>
      <trkpt lat="49.33152" lon="-1.69628">
        <ele>3</ele>
        <time>2023-08-22T11:17:30.604+00:00</time>
      </trkpt>
      <trkpt lat="49.33148" lon="-1.69623">
        <ele>4</ele>
        <time>2023-08-22T11:17:34.626+00:00</time>
      </trkpt>
      <trkpt lat="49.33145" lon="-1.69619">
        <ele>4</ele>
        <time>2023-08-22T11:17:39.129+00:00</time>
      </trkpt>
      <trkpt lat="49.3314" lon="-1.69614">
        <ele>4</ele>
        <time>2023-08-22T11:17:43.645+00:00</time>
      </trkpt>
      <trkpt lat="49.33136" lon="-1.69609">
        <ele>4</ele>
        <time>2023-08-22T11:17:47.911+00:00</time>
      </trkpt>
      <trkpt lat="49.33132" lon="-1.69603">
        <ele>4</ele>
        <time>2023-08-22T11:17:52.570+00:00</time>
      </trkpt>
      <trkpt lat="49.33128" lon="-1.69598">
        <ele>4</ele>
        <time>2023-08-22T11:17:57.189+00:00</time>
      </trkpt>
      <trkpt lat="49.33125" lon="-1.69591">
        <ele>6</ele>
        <time>2023-08-22T11:18:01.392+00:00</time>
      </trkpt>
      <trkpt lat="49.33122" lon="-1.69586">
        <ele>5</ele>
        <time>2023-08-22T11:18:05.396+00:00</time>
      </trkpt>
      <trkpt lat="49.33117" lon="-1.69582">
        <ele>5</ele>
        <time>2023-08-22T11:18:09.900+00:00</time>
      </trkpt>
      <trkpt lat="49.33113" lon="-1.69578">
        <ele>5</ele>
        <time>2023-08-22T11:18:14.403+00:00</time>
      </trkpt>
      <trkpt lat="49.33109" lon="-1.69573">
        <ele>5</ele>
        <time>2023-08-22T11:18:18.945+00:00</time>
      </trkpt>
      <trkpt lat="49.33105" lon="-1.69567">
        <ele>6</ele>
        <time>2023-08-22T11:18:23.566+00:00</time>
      </trkpt>
      <trkpt lat="49.33102" lon="-1.69561">
        <ele>6</ele>
        <time>2023-08-22T11:18:27.569+00:00</time>
      </trkpt>
      <trkpt lat="49.33104" lon="-1.69559">
        <ele>6</ele>
        <time>2023-08-22T11:19:02.823+00:00</time>
      </trkpt>
      <trkpt lat="49.331" lon="-1.69557">
        <ele>6</ele>
        <time>2023-08-22T11:19:07.796+00:00</time>
      </trkpt>
      <trkpt lat="49.33099" lon="-1.69551">
        <ele>6</ele>
        <time>2023-08-22T11:19:12.757+00:00</time>
      </trkpt>
      <trkpt lat="49.331" lon="-1.69545">
        <ele>6</ele>
        <time>2023-08-22T11:19:16.771+00:00</time>
      </trkpt>
      <trkpt lat="49.33094" lon="-1.6954">
        <ele>4</ele>
        <time>2023-08-22T11:19:20.481+00:00</time>
      </trkpt>
      <trkpt lat="49.3309" lon="-1.69532">
        <ele>4</ele>
        <time>2023-08-22T11:19:24.562+00:00</time>
      </trkpt>
      <trkpt lat="49.33088" lon="-1.69523">
        <ele>4</ele>
        <time>2023-08-22T11:19:28.641+00:00</time>
      </trkpt>
      <trkpt lat="49.33087" lon="-1.69514">
        <ele>4</ele>
        <time>2023-08-22T11:19:32.963+00:00</time>
      </trkpt>
      <trkpt lat="49.33086" lon="-1.69506">
        <ele>4</ele>
        <time>2023-08-22T11:19:37.602+00:00</time>
      </trkpt>
      <trkpt lat="49.33084" lon="-1.69496">
        <ele>4</ele>
        <time>2023-08-22T11:19:42.763+00:00</time>
      </trkpt>
      <trkpt lat="49.33084" lon="-1.69489">
        <ele>4</ele>
        <time>2023-08-22T11:19:47.547+00:00</time>
      </trkpt>
      <trkpt lat="49.33085" lon="-1.69488">
        <ele>4</ele>
        <time>2023-08-22T11:19:51.560+00:00</time>
      </trkpt>
      <trkpt lat="49.33084" lon="-1.69486">
        <ele>4</ele>
        <time>2023-08-22T11:19:56.074+00:00</time>
      </trkpt>
      <trkpt lat="49.33081" lon="-1.69474">
        <ele>4</ele>
        <time>2023-08-22T11:20:00.185+00:00</time>
      </trkpt>
      <trkpt lat="49.33079" lon="-1.69463">
        <ele>4</ele>
        <time>2023-08-22T11:20:04.198+00:00</time>
      </trkpt>
      <trkpt lat="49.33078" lon="-1.69454">
        <ele>4</ele>
        <time>2023-08-22T11:20:08.710+00:00</time>
      </trkpt>
      <trkpt lat="49.3308" lon="-1.69447">
        <ele>4</ele>
        <time>2023-08-22T11:20:12.881+00:00</time>
      </trkpt>
      <trkpt lat="49.33082" lon="-1.6944">
        <ele>4</ele>
        <time>2023-08-22T11:20:16.929+00:00</time>
      </trkpt>
      <trkpt lat="49.3308" lon="-1.69432">
        <ele>4</ele>
        <time>2023-08-22T11:20:21.038+00:00</time>
      </trkpt>
      <trkpt lat="49.33077" lon="-1.69425">
        <ele>4</ele>
        <time>2023-08-22T11:20:25.748+00:00</time>
      </trkpt>
      <trkpt lat="49.33078" lon="-1.69416">
        <ele>4</ele>
        <time>2023-08-22T11:20:30.759+00:00</time>
      </trkpt>
      <trkpt lat="49.33078" lon="-1.69408">
        <ele>4</ele>
        <time>2023-08-22T11:20:35.267+00:00</time>
      </trkpt>
      <trkpt lat="49.33078" lon="-1.69401">
        <ele>4</ele>
        <time>2023-08-22T11:20:39.278+00:00</time>
      </trkpt>
      <trkpt lat="49.33079" lon="-1.69393">
        <ele>4</ele>
        <time>2023-08-22T11:20:43.386+00:00</time>
      </trkpt>
      <trkpt lat="49.33078" lon="-1.69387">
        <ele>4</ele>
        <time>2023-08-22T11:20:47.393+00:00</time>
      </trkpt>
      <trkpt lat="49.33077" lon="-1.6938">
        <ele>4</ele>
        <time>2023-08-22T11:20:51.400+00:00</time>
      </trkpt>
      <trkpt lat="49.33075" lon="-1.69371">
        <ele>5</ele>
        <time>2023-08-22T11:20:56.409+00:00</time>
      </trkpt>
      <trkpt lat="49.33074" lon="-1.69364">
        <ele>5</ele>
        <time>2023-08-22T11:21:00.602+00:00</time>
      </trkpt>
      <trkpt lat="49.33072" lon="-1.69357">
        <ele>5</ele>
        <time>2023-08-22T11:21:04.724+00:00</time>
      </trkpt>
      <trkpt lat="49.3307" lon="-1.69351">
        <ele>5</ele>
        <time>2023-08-22T11:21:08.732+00:00</time>
      </trkpt>
      <trkpt lat="49.33067" lon="-1.69345">
        <ele>3</ele>
        <time>2023-08-22T11:21:13.240+00:00</time>
      </trkpt>
      <trkpt lat="49.33065" lon="-1.69338">
        <ele>3</ele>
        <time>2023-08-22T11:21:17.248+00:00</time>
      </trkpt>
      <trkpt lat="49.33063" lon="-1.69332">
        <ele>3</ele>
        <time>2023-08-22T11:21:21.858+00:00</time>
      </trkpt>
      <trkpt lat="49.33061" lon="-1.69325">
        <ele>3</ele>
        <time>2023-08-22T11:21:25.867+00:00</time>
      </trkpt>
      <trkpt lat="49.33058" lon="-1.69318">
        <ele>4</ele>
        <time>2023-08-22T11:21:30.377+00:00</time>
      </trkpt>
      <trkpt lat="49.33055" lon="-1.69311">
        <ele>4</ele>
        <time>2023-08-22T11:21:34.486+00:00</time>
      </trkpt>
      <trkpt lat="49.33053" lon="-1.69304">
        <ele>4</ele>
        <time>2023-08-22T11:21:38.495+00:00</time>
      </trkpt>
      <trkpt lat="49.33049" lon="-1.69297">
        <ele>4</ele>
        <time>2023-08-22T11:21:43.003+00:00</time>
      </trkpt>
      <trkpt lat="49.33046" lon="-1.6929">
        <ele>5</ele>
        <time>2023-08-22T11:21:47.512+00:00</time>
      </trkpt>
      <trkpt lat="49.33043" lon="-1.69285">
        <ele>5</ele>
        <time>2023-08-22T11:21:52.028+00:00</time>
      </trkpt>
      <trkpt lat="49.33039" lon="-1.69282">
        <ele>3</ele>
        <time>2023-08-22T11:21:56.033+00:00</time>
      </trkpt>
      <trkpt lat="49.33034" lon="-1.69278">
        <ele>3</ele>
        <time>2023-08-22T11:22:00.114+00:00</time>
      </trkpt>
      <trkpt lat="49.33029" lon="-1.69273">
        <ele>3</ele>
        <time>2023-08-22T11:22:04.639+00:00</time>
      </trkpt>
      <trkpt lat="49.33025" lon="-1.6927">
        <ele>3</ele>
        <time>2023-08-22T11:22:08.643+00:00</time>
      </trkpt>
      <trkpt lat="49.33021" lon="-1.69267">
        <ele>3</ele>
        <time>2023-08-22T11:22:12.802+00:00</time>
      </trkpt>
      <trkpt lat="49.33018" lon="-1.69263">
        <ele>3</ele>
        <time>2023-08-22T11:22:16.426+00:00</time>
      </trkpt>
      <trkpt lat="49.33014" lon="-1.6926">
        <ele>3</ele>
        <time>2023-08-22T11:22:20.627+00:00</time>
      </trkpt>
      <trkpt lat="49.3301" lon="-1.69255">
        <ele>3</ele>
        <time>2023-08-22T11:22:25.241+00:00</time>
      </trkpt>
      <trkpt lat="49.33007" lon="-1.69249">
        <ele>3</ele>
        <time>2023-08-22T11:22:29.348+00:00</time>
      </trkpt>
      <trkpt lat="49.33005" lon="-1.69242">
        <ele>3</ele>
        <time>2023-08-22T11:22:33.370+00:00</time>
      </trkpt>
      <trkpt lat="49.33003" lon="-1.69236">
        <ele>4</ele>
        <time>2023-08-22T11:22:37.872+00:00</time>
      </trkpt>
      <trkpt lat="49.33" lon="-1.6923">
        <ele>4</ele>
        <time>2023-08-22T11:22:42.053+00:00</time>
      </trkpt>
      <trkpt lat="49.32999" lon="-1.69223">
        <ele>4</ele>
        <time>2023-08-22T11:22:46.656+00:00</time>
      </trkpt>
      <trkpt lat="49.32998" lon="-1.69217">
        <ele>4</ele>
        <time>2023-08-22T11:22:50.678+00:00</time>
      </trkpt>
      <trkpt lat="49.32998" lon="-1.6921">
        <ele>4</ele>
        <time>2023-08-22T11:22:54.719+00:00</time>
      </trkpt>
      <trkpt lat="49.32998" lon="-1.69204">
        <ele>4</ele>
        <time>2023-08-22T11:22:58.659+00:00</time>
      </trkpt>
      <trkpt lat="49.32997" lon="-1.69198">
        <ele>4</ele>
        <time>2023-08-22T11:23:03.059+00:00</time>
      </trkpt>
      <trkpt lat="49.32998" lon="-1.69191">
        <ele>4</ele>
        <time>2023-08-22T11:23:08.403+00:00</time>
      </trkpt>
      <trkpt lat="49.32998" lon="-1.69187">
        <ele>4</ele>
        <time>2023-08-22T11:23:12.417+00:00</time>
      </trkpt>
      <trkpt lat="49.32998" lon="-1.69186">
        <ele>4</ele>
        <time>2023-08-22T11:23:17.795+00:00</time>
      </trkpt>
      <trkpt lat="49.32998" lon="-1.69176">
        <ele>5</ele>
        <time>2023-08-22T11:23:22.822+00:00</time>
      </trkpt>
      <trkpt lat="49.32998" lon="-1.69166">
        <ele>5</ele>
        <time>2023-08-22T11:23:26.956+00:00</time>
      </trkpt>
      <trkpt lat="49.32996" lon="-1.69158">
        <ele>5</ele>
        <time>2023-08-22T11:23:30.958+00:00</time>
      </trkpt>
      <trkpt lat="49.32996" lon="-1.69149">
        <ele>5</ele>
        <time>2023-08-22T11:23:35.680+00:00</time>
      </trkpt>
      <trkpt lat="49.32996" lon="-1.69142">
        <ele>5</ele>
        <time>2023-08-22T11:23:39.960+00:00</time>
      </trkpt>
      <trkpt lat="49.32995" lon="-1.69133">
        <ele>5</ele>
        <time>2023-08-22T11:23:44.421+00:00</time>
      </trkpt>
      <trkpt lat="49.32994" lon="-1.69126">
        <ele>5</ele>
        <time>2023-08-22T11:23:48.919+00:00</time>
      </trkpt>
      <trkpt lat="49.32994" lon="-1.69118">
        <ele>6</ele>
        <time>2023-08-22T11:23:53.200+00:00</time>
      </trkpt>
      <trkpt lat="49.32994" lon="-1.69111">
        <ele>6</ele>
        <time>2023-08-22T11:23:57.481+00:00</time>
      </trkpt>
      <trkpt lat="49.32995" lon="-1.69103">
        <ele>6</ele>
        <time>2023-08-22T11:24:01.981+00:00</time>
      </trkpt>
      <trkpt lat="49.32995" lon="-1.69096">
        <ele>6</ele>
        <time>2023-08-22T11:24:06.360+00:00</time>
      </trkpt>
      <trkpt lat="49.32994" lon="-1.69089">
        <ele>6</ele>
        <time>2023-08-22T11:24:10.721+00:00</time>
      </trkpt>
      <trkpt lat="49.32994" lon="-1.69082">
        <ele>6</ele>
        <time>2023-08-22T11:24:15.101+00:00</time>
      </trkpt>
      <trkpt lat="49.32993" lon="-1.69076">
        <ele>6</ele>
        <time>2023-08-22T11:24:19.163+00:00</time>
      </trkpt>
      <trkpt lat="49.32992" lon="-1.69068">
        <ele>6</ele>
        <time>2023-08-22T11:24:32.122+00:00</time>
      </trkpt>
      <trkpt lat="49.32991" lon="-1.69059">
        <ele>6</ele>
        <time>2023-08-22T11:24:36.821+00:00</time>
      </trkpt>
      <trkpt lat="49.3299" lon="-1.6905">
        <ele>6</ele>
        <time>2023-08-22T11:24:40.938+00:00</time>
      </trkpt>
      <trkpt lat="49.3299" lon="-1.69042">
        <ele>6</ele>
        <time>2023-08-22T11:24:45.496+00:00</time>
      </trkpt>
      <trkpt lat="49.3299" lon="-1.69035">
        <ele>6</ele>
        <time>2023-08-22T11:24:49.534+00:00</time>
      </trkpt>
      <trkpt lat="49.32991" lon="-1.69034">
        <ele>6</ele>
        <time>2023-08-22T11:24:53.993+00:00</time>
      </trkpt>
      <trkpt lat="49.32989" lon="-1.69028">
        <ele>6</ele>
        <time>2023-08-22T11:24:57.992+00:00</time>
      </trkpt>
      <trkpt lat="49.32988" lon="-1.6902">
        <ele>6</ele>
        <time>2023-08-22T11:25:02.471+00:00</time>
      </trkpt>
      <trkpt lat="49.32988" lon="-1.69012">
        <ele>6</ele>
        <time>2023-08-22T11:25:06.571+00:00</time>
      </trkpt>
      <trkpt lat="49.32989" lon="-1.69003">
        <ele>6</ele>
        <time>2023-08-22T11:25:10.950+00:00</time>
      </trkpt>
      <trkpt lat="49.3299" lon="-1.68996">
        <ele>6</ele>
        <time>2023-08-22T11:25:15.522+00:00</time>
      </trkpt>
      <trkpt lat="49.3299" lon="-1.68989">
        <ele>6</ele>
        <time>2023-08-22T11:25:19.547+00:00</time>
      </trkpt>
      <trkpt lat="49.32991" lon="-1.68982">
        <ele>6</ele>
        <time>2023-08-22T11:25:23.345+00:00</time>
      </trkpt>
      <trkpt lat="49.32991" lon="-1.68974">
        <ele>6</ele>
        <time>2023-08-22T11:25:27.542+00:00</time>
      </trkpt>
      <trkpt lat="49.32991" lon="-1.68967">
        <ele>6</ele>
        <time>2023-08-22T11:25:32.280+00:00</time>
      </trkpt>
      <trkpt lat="49.32991" lon="-1.6896">
        <ele>6</ele>
        <time>2023-08-22T11:25:36.181+00:00</time>
      </trkpt>
      <trkpt lat="49.32993" lon="-1.68953">
        <ele>5</ele>
        <time>2023-08-22T11:25:40.299+00:00</time>
      </trkpt>
      <trkpt lat="49.32995" lon="-1.68947">
        <ele>5</ele>
        <time>2023-08-22T11:25:44.318+00:00</time>
      </trkpt>
      <trkpt lat="49.32997" lon="-1.6894">
        <ele>5</ele>
        <time>2023-08-22T11:25:48.314+00:00</time>
      </trkpt>
      <trkpt lat="49.33" lon="-1.68934">
        <ele>5</ele>
        <time>2023-08-22T11:25:52.511+00:00</time>
      </trkpt>
      <trkpt lat="49.33002" lon="-1.68927">
        <ele>4</ele>
        <time>2023-08-22T11:25:56.528+00:00</time>
      </trkpt>
      <trkpt lat="49.33004" lon="-1.6892">
        <ele>4</ele>
        <time>2023-08-22T11:26:01.166+00:00</time>
      </trkpt>
      <trkpt lat="49.33006" lon="-1.68913">
        <ele>4</ele>
        <time>2023-08-22T11:26:05.346+00:00</time>
      </trkpt>
      <trkpt lat="49.33009" lon="-1.68908">
        <ele>4</ele>
        <time>2023-08-22T11:26:09.403+00:00</time>
      </trkpt>
      <trkpt lat="49.33012" lon="-1.68905">
        <ele>4</ele>
        <time>2023-08-22T11:26:13.338+00:00</time>
      </trkpt>
      <trkpt lat="49.33013" lon="-1.68912">
        <ele>4</ele>
        <time>2023-08-22T11:26:21.363+00:00</time>
      </trkpt>
      <trkpt lat="49.33013" lon="-1.68916">
        <ele>4</ele>
        <time>2023-08-22T11:26:26.378+00:00</time>
      </trkpt>
      <trkpt lat="49.33013" lon="-1.68917">
        <ele>4</ele>
        <time>2023-08-22T11:26:31.394+00:00</time>
      </trkpt>
      <trkpt lat="49.33014" lon="-1.68919">
        <ele>5</ele>
        <time>2023-08-22T11:26:35.411+00:00</time>
      </trkpt>
      <trkpt lat="49.33015" lon="-1.6892">
        <ele>5</ele>
        <time>2023-08-22T11:26:39.427+00:00</time>
      </trkpt>
      <trkpt lat="49.33014" lon="-1.68912">
        <ele>5</ele>
        <time>2023-08-22T11:28:50.523+00:00</time>
      </trkpt>
      <trkpt lat="49.33014" lon="-1.68911">
        <ele>5</ele>
        <time>2023-08-22T11:28:54.533+00:00</time>
      </trkpt>
      <trkpt lat="49.33013" lon="-1.68911">
        <ele>4</ele>
        <time>2023-08-22T11:28:59.548+00:00</time>
      </trkpt>
      <trkpt lat="49.33011" lon="-1.68911">
        <ele>4</ele>
        <time>2023-08-22T11:29:03.558+00:00</time>
      </trkpt>
      <trkpt lat="49.3301" lon="-1.6891">
        <ele>4</ele>
        <time>2023-08-22T11:29:07.568+00:00</time>
      </trkpt>
      <trkpt lat="49.3301" lon="-1.68909">
        <ele>4</ele>
        <time>2023-08-22T11:29:12.581+00:00</time>
      </trkpt>
      <trkpt lat="49.3301" lon="-1.68908">
        <ele>4</ele>
        <time>2023-08-22T11:29:16.592+00:00</time>
      </trkpt>
      <trkpt lat="49.33011" lon="-1.68908">
        <ele>4</ele>
        <time>2023-08-22T11:29:21.607+00:00</time>
      </trkpt>
      <trkpt lat="49.33014" lon="-1.68905">
        <ele>4</ele>
        <time>2023-08-22T11:29:26.120+00:00</time>
      </trkpt>
      <trkpt lat="49.33015" lon="-1.68896">
        <ele>5</ele>
        <time>2023-08-22T11:29:30.228+00:00</time>
      </trkpt>
      <trkpt lat="49.33014" lon="-1.68888">
        <ele>5</ele>
        <time>2023-08-22T11:29:34.236+00:00</time>
      </trkpt>
      <trkpt lat="49.33016" lon="-1.68881">
        <ele>5</ele>
        <time>2023-08-22T11:29:38.241+00:00</time>
      </trkpt>
      <trkpt lat="49.33017" lon="-1.68873">
        <ele>4</ele>
        <time>2023-08-22T11:29:42.246+00:00</time>
      </trkpt>
      <trkpt lat="49.33017" lon="-1.68864">
        <ele>4</ele>
        <time>2023-08-22T11:29:46.749+00:00</time>
      </trkpt>
      <trkpt lat="49.33018" lon="-1.68857">
        <ele>4</ele>
        <time>2023-08-22T11:29:50.816+00:00</time>
      </trkpt>
      <trkpt lat="49.3302" lon="-1.6885">
        <ele>4</ele>
        <time>2023-08-22T11:29:54.894+00:00</time>
      </trkpt>
      <trkpt lat="49.33022" lon="-1.68842">
        <ele>4</ele>
        <time>2023-08-22T11:29:59.396+00:00</time>
      </trkpt>
      <trkpt lat="49.33024" lon="-1.68836">
        <ele>4</ele>
        <time>2023-08-22T11:30:03.899+00:00</time>
      </trkpt>
      <trkpt lat="49.33025" lon="-1.68829">
        <ele>4</ele>
        <time>2023-08-22T11:30:07.902+00:00</time>
      </trkpt>
      <trkpt lat="49.33026" lon="-1.68822">
        <ele>4</ele>
        <time>2023-08-22T11:30:11.905+00:00</time>
      </trkpt>
      <trkpt lat="49.33028" lon="-1.68814">
        <ele>3</ele>
        <time>2023-08-22T11:30:15.908+00:00</time>
      </trkpt>
      <trkpt lat="49.33031" lon="-1.68808">
        <ele>3</ele>
        <time>2023-08-22T11:30:19.910+00:00</time>
      </trkpt>
      <trkpt lat="49.33033" lon="-1.68801">
        <ele>3</ele>
        <time>2023-08-22T11:30:24.411+00:00</time>
      </trkpt>
      <trkpt lat="49.33036" lon="-1.68795">
        <ele>3</ele>
        <time>2023-08-22T11:30:28.414+00:00</time>
      </trkpt>
      <trkpt lat="49.33039" lon="-1.68789">
        <ele>2</ele>
        <time>2023-08-22T11:30:32.917+00:00</time>
      </trkpt>
      <trkpt lat="49.3304" lon="-1.68782">
        <ele>2</ele>
        <time>2023-08-22T11:30:37.603+00:00</time>
      </trkpt>
      <trkpt lat="49.33043" lon="-1.68776">
        <ele>3</ele>
        <time>2023-08-22T11:30:41.698+00:00</time>
      </trkpt>
      <trkpt lat="49.33047" lon="-1.6877">
        <ele>3</ele>
        <time>2023-08-22T11:30:46.058+00:00</time>
      </trkpt>
      <trkpt lat="49.3305" lon="-1.68761">
        <ele>3</ele>
        <time>2023-08-22T11:30:50.597+00:00</time>
      </trkpt>
      <trkpt lat="49.33052" lon="-1.68755">
        <ele>3</ele>
        <time>2023-08-22T11:30:54.815+00:00</time>
      </trkpt>
      <trkpt lat="49.33053" lon="-1.68748">
        <ele>3</ele>
        <time>2023-08-22T11:30:58.899+00:00</time>
      </trkpt>
      <trkpt lat="49.33054" lon="-1.68741">
        <ele>3</ele>
        <time>2023-08-22T11:31:02.900+00:00</time>
      </trkpt>
      <trkpt lat="49.33056" lon="-1.68736">
        <ele>4</ele>
        <time>2023-08-22T11:31:07.321+00:00</time>
      </trkpt>
      <trkpt lat="49.33058" lon="-1.6873">
        <ele>4</ele>
        <time>2023-08-22T11:31:11.641+00:00</time>
      </trkpt>
      <trkpt lat="49.33058" lon="-1.68724">
        <ele>4</ele>
        <time>2023-08-22T11:31:15.703+00:00</time>
      </trkpt>
      <trkpt lat="49.33056" lon="-1.68717">
        <ele>4</ele>
        <time>2023-08-22T11:31:19.905+00:00</time>
      </trkpt>
      <trkpt lat="49.33054" lon="-1.68709">
        <ele>4</ele>
        <time>2023-08-22T11:31:24.507+00:00</time>
      </trkpt>
      <trkpt lat="49.33054" lon="-1.68702">
        <ele>5</ele>
        <time>2023-08-22T11:31:28.568+00:00</time>
      </trkpt>
      <trkpt lat="49.33052" lon="-1.68693">
        <ele>5</ele>
        <time>2023-08-22T11:31:37.648+00:00</time>
      </trkpt>
      <trkpt lat="49.33049" lon="-1.68694">
        <ele>5</ele>
        <time>2023-08-22T11:31:41.408+00:00</time>
      </trkpt>
      <trkpt lat="49.33047" lon="-1.68694">
        <ele>5</ele>
        <time>2023-08-22T11:31:46.554+00:00</time>
      </trkpt>
      <trkpt lat="49.33047" lon="-1.68694">
        <ele>5</ele>
        <time>2023-08-22T11:31:50.667+00:00</time>
      </trkpt>
      <trkpt lat="49.33042" lon="-1.68696">
        <ele>5</ele>
        <time>2023-08-22T11:31:54.771+00:00</time>
      </trkpt>
      <trkpt lat="49.33038" lon="-1.68692">
        <ele>2</ele>
        <time>2023-08-22T11:31:58.892+00:00</time>
      </trkpt>
      <trkpt lat="49.33033" lon="-1.68694">
        <ele>2</ele>
        <time>2023-08-22T11:32:03.406+00:00</time>
      </trkpt>
      <trkpt lat="49.33029" lon="-1.68692">
        <ele>2</ele>
        <time>2023-08-22T11:32:07.418+00:00</time>
      </trkpt>
      <trkpt lat="49.33027" lon="-1.68692">
        <ele>2</ele>
        <time>2023-08-22T11:32:11.429+00:00</time>
      </trkpt>
      <trkpt lat="49.33024" lon="-1.68693">
        <ele>2</ele>
        <time>2023-08-22T11:32:15.946+00:00</time>
      </trkpt>
      <trkpt lat="49.33018" lon="-1.68691">
        <ele>2</ele>
        <time>2023-08-22T11:32:20.463+00:00</time>
      </trkpt>
      <trkpt lat="49.33013" lon="-1.6869">
        <ele>3.5</ele>
        <time>2023-08-22T11:32:24.574+00:00</time>
      </trkpt>
      <trkpt lat="49.33009" lon="-1.68689">
        <ele>3.7</ele>
        <time>2023-08-22T11:32:28.586+00:00</time>
      </trkpt>
      <trkpt lat="49.33005" lon="-1.68688">
        <ele>3.8</ele>
        <time>2023-08-22T11:32:32.598+00:00</time>
      </trkpt>
      <trkpt lat="49.33" lon="-1.68687">
        <ele>4</ele>
        <time>2023-08-22T11:32:37.112+00:00</time>
      </trkpt>
      <trkpt lat="49.32996" lon="-1.68687">
        <ele>4.2</ele>
        <time>2023-08-22T11:32:41.124+00:00</time>
      </trkpt>
      <trkpt lat="49.32992" lon="-1.68686">
        <ele>4.3</ele>
        <time>2023-08-22T11:32:45.637+00:00</time>
      </trkpt>
      <trkpt lat="49.32987" lon="-1.68684">
        <ele>4.5</ele>
        <time>2023-08-22T11:32:49.648+00:00</time>
      </trkpt>
      <trkpt lat="49.32983" lon="-1.68683">
        <ele>1</ele>
        <time>2023-08-22T11:32:53.660+00:00</time>
      </trkpt>
      <trkpt lat="49.3298" lon="-1.6868">
        <ele>1</ele>
        <time>2023-08-22T11:32:58.180+00:00</time>
      </trkpt>
      <trkpt lat="49.32976" lon="-1.68675">
        <ele>1</ele>
        <time>2023-08-22T11:33:02.703+00:00</time>
      </trkpt>
      <trkpt lat="49.3297" lon="-1.68676">
        <ele>1</ele>
        <time>2023-08-22T11:33:06.714+00:00</time>
      </trkpt>
      <trkpt lat="49.32965" lon="-1.68678">
        <ele>1</ele>
        <time>2023-08-22T11:33:10.722+00:00</time>
      </trkpt>
      <trkpt lat="49.32959" lon="-1.68679">
        <ele>1</ele>
        <time>2023-08-22T11:33:15.732+00:00</time>
      </trkpt>
      <trkpt lat="49.32954" lon="-1.68679">
        <ele>2</ele>
        <time>2023-08-22T11:33:20.237+00:00</time>
      </trkpt>
      <trkpt lat="49.3295" lon="-1.68679">
        <ele>2</ele>
        <time>2023-08-22T11:33:24.242+00:00</time>
      </trkpt>
      <trkpt lat="49.32947" lon="-1.68683">
        <ele>1</ele>
        <time>2023-08-22T11:33:28.784+00:00</time>
      </trkpt>
      <trkpt lat="49.32942" lon="-1.68682">
        <ele>1</ele>
        <time>2023-08-22T11:33:32.887+00:00</time>
      </trkpt>
      <trkpt lat="49.32937" lon="-1.68681">
        <ele>1</ele>
        <time>2023-08-22T11:33:36.891+00:00</time>
      </trkpt>
      <trkpt lat="49.32932" lon="-1.68683">
        <ele>1</ele>
        <time>2023-08-22T11:33:41.395+00:00</time>
      </trkpt>
      <trkpt lat="49.3293" lon="-1.68686">
        <ele>2</ele>
        <time>2023-08-22T11:33:45.401+00:00</time>
      </trkpt>
      <trkpt lat="49.3293" lon="-1.6869">
        <ele>2</ele>
        <time>2023-08-22T11:33:49.404+00:00</time>
      </trkpt>
      <trkpt lat="49.32927" lon="-1.68694">
        <ele>2</ele>
        <time>2023-08-22T11:33:53.408+00:00</time>
      </trkpt>
      <trkpt lat="49.32922" lon="-1.68698">
        <ele>2</ele>
        <time>2023-08-22T11:33:58.412+00:00</time>
      </trkpt>
      <trkpt lat="49.32915" lon="-1.68701">
        <ele>2</ele>
        <time>2023-08-22T11:34:07.519+00:00</time>
      </trkpt>
      <trkpt lat="49.32915" lon="-1.68702">
        <ele>2</ele>
        <time>2023-08-22T11:34:12.534+00:00</time>
      </trkpt>
      <trkpt lat="49.32914" lon="-1.68703">
        <ele>2</ele>
        <time>2023-08-22T11:34:16.555+00:00</time>
      </trkpt>
      <trkpt lat="49.32909" lon="-1.68702">
        <ele>2</ele>
        <time>2023-08-22T11:34:21.069+00:00</time>
      </trkpt>
      <trkpt lat="49.32907" lon="-1.68702">
        <ele>2</ele>
        <time>2023-08-22T11:34:25.576+00:00</time>
      </trkpt>
      <trkpt lat="49.32907" lon="-1.68702">
        <ele>2</ele>
        <time>2023-08-22T11:34:29.582+00:00</time>
      </trkpt>
      <trkpt lat="49.32902" lon="-1.68702">
        <ele>3</ele>
        <time>2023-08-22T11:34:34.587+00:00</time>
      </trkpt>
      <trkpt lat="49.32896" lon="-1.68705">
        <ele>3</ele>
        <time>2023-08-22T11:34:38.590+00:00</time>
      </trkpt>
      <trkpt lat="49.32892" lon="-1.68707">
        <ele>3</ele>
        <time>2023-08-22T11:34:42.594+00:00</time>
      </trkpt>
      <trkpt lat="49.32886" lon="-1.68709">
        <ele>1</ele>
        <time>2023-08-22T11:34:47.597+00:00</time>
      </trkpt>
      <trkpt lat="49.32883" lon="-1.68712">
        <ele>1</ele>
        <time>2023-08-22T11:34:51.599+00:00</time>
      </trkpt>
      <trkpt lat="49.32878" lon="-1.68713">
        <ele>1</ele>
        <time>2023-08-22T11:34:56.105+00:00</time>
      </trkpt>
      <trkpt lat="49.32873" lon="-1.68712">
        <ele>3</ele>
        <time>2023-08-22T11:35:00.110+00:00</time>
      </trkpt>
      <trkpt lat="49.32868" lon="-1.68714">
        <ele>3</ele>
        <time>2023-08-22T11:35:04.114+00:00</time>
      </trkpt>
      <trkpt lat="49.32863" lon="-1.68715">
        <ele>3</ele>
        <time>2023-08-22T11:35:08.117+00:00</time>
      </trkpt>
      <trkpt lat="49.32859" lon="-1.68716">
        <ele>3</ele>
        <time>2023-08-22T11:35:12.621+00:00</time>
      </trkpt>
      <trkpt lat="49.32854" lon="-1.68717">
        <ele>3</ele>
        <time>2023-08-22T11:35:16.624+00:00</time>
      </trkpt>
      <trkpt lat="49.32848" lon="-1.68716">
        <ele>3</ele>
        <time>2023-08-22T11:35:21.126+00:00</time>
      </trkpt>
      <trkpt lat="49.32844" lon="-1.68716">
        <ele>4</ele>
        <time>2023-08-22T11:35:25.127+00:00</time>
      </trkpt>
      <trkpt lat="49.32838" lon="-1.68717">
        <ele>4</ele>
        <time>2023-08-22T11:35:29.771+00:00</time>
      </trkpt>
      <trkpt lat="49.32834" lon="-1.68717">
        <ele>4</ele>
        <time>2023-08-22T11:35:33.728+00:00</time>
      </trkpt>
      <trkpt lat="49.32829" lon="-1.68717">
        <ele>4</ele>
        <time>2023-08-22T11:35:38.301+00:00</time>
      </trkpt>
      <trkpt lat="49.32824" lon="-1.68717">
        <ele>4</ele>
        <time>2023-08-22T11:35:42.305+00:00</time>
      </trkpt>
      <trkpt lat="49.32819" lon="-1.68715">
        <ele>5</ele>
        <time>2023-08-22T11:35:46.771+00:00</time>
      </trkpt>
      <trkpt lat="49.32814" lon="-1.68717">
        <ele>5</ele>
        <time>2023-08-22T11:35:51.363+00:00</time>
      </trkpt>
      <trkpt lat="49.32809" lon="-1.68721">
        <ele>5</ele>
        <time>2023-08-22T11:35:56.183+00:00</time>
      </trkpt>
      <trkpt lat="49.32806" lon="-1.68724">
        <ele>5</ele>
        <time>2023-08-22T11:36:00.523+00:00</time>
      </trkpt>
      <trkpt lat="49.32801" lon="-1.68725">
        <ele>5</ele>
        <time>2023-08-22T11:36:04.483+00:00</time>
      </trkpt>
      <trkpt lat="49.32798" lon="-1.68725">
        <ele>5</ele>
        <time>2023-08-22T11:36:08.544+00:00</time>
      </trkpt>
      <trkpt lat="49.32789" lon="-1.6873">
        <ele>6</ele>
        <time>2023-08-22T11:36:29.406+00:00</time>
      </trkpt>
      <trkpt lat="49.32788" lon="-1.68733">
        <ele>6</ele>
        <time>2023-08-22T11:36:33.417+00:00</time>
      </trkpt>
      <trkpt lat="49.32786" lon="-1.68738">
        <ele>5</ele>
        <time>2023-08-22T11:36:37.927+00:00</time>
      </trkpt>
      <trkpt lat="49.32783" lon="-1.68742">
        <ele>5</ele>
        <time>2023-08-22T11:36:42.437+00:00</time>
      </trkpt>
      <trkpt lat="49.32782" lon="-1.68745">
        <ele>5</ele>
        <time>2023-08-22T11:36:46.953+00:00</time>
      </trkpt>
      <trkpt lat="49.32778" lon="-1.68752">
        <ele>5</ele>
        <time>2023-08-22T11:36:51.459+00:00</time>
      </trkpt>
      <trkpt lat="49.32777" lon="-1.68759">
        <ele>5</ele>
        <time>2023-08-22T11:36:55.963+00:00</time>
      </trkpt>
      <trkpt lat="49.32774" lon="-1.68766">
        <ele>5</ele>
        <time>2023-08-22T11:37:00.005+00:00</time>
      </trkpt>
      <trkpt lat="49.32772" lon="-1.68773">
        <ele>5</ele>
        <time>2023-08-22T11:37:04.365+00:00</time>
      </trkpt>
      <trkpt lat="49.32772" lon="-1.68779">
        <ele>5</ele>
        <time>2023-08-22T11:37:08.726+00:00</time>
      </trkpt>
      <trkpt lat="49.32772" lon="-1.6878">
        <ele>5</ele>
        <time>2023-08-22T11:37:13.591+00:00</time>
      </trkpt>
      <trkpt lat="49.32772" lon="-1.68782">
        <ele>5</ele>
        <time>2023-08-22T11:37:17.604+00:00</time>
      </trkpt>
      <trkpt lat="49.32764" lon="-1.68787">
        <ele>5</ele>
        <time>2023-08-22T11:37:22.628+00:00</time>
      </trkpt>
      <trkpt lat="49.32761" lon="-1.6879">
        <ele>6</ele>
        <time>2023-08-22T11:37:26.737+00:00</time>
      </trkpt>
      <trkpt lat="49.32757" lon="-1.68793">
        <ele>6</ele>
        <time>2023-08-22T11:37:30.741+00:00</time>
      </trkpt>
      <trkpt lat="49.32753" lon="-1.68799">
        <ele>6</ele>
        <time>2023-08-22T11:37:35.244+00:00</time>
      </trkpt>
      <trkpt lat="49.3275" lon="-1.68805">
        <ele>6</ele>
        <time>2023-08-22T11:37:39.305+00:00</time>
      </trkpt>
      <trkpt lat="49.32747" lon="-1.6881">
        <ele>6</ele>
        <time>2023-08-22T11:37:43.771+00:00</time>
      </trkpt>
      <trkpt lat="49.32744" lon="-1.68815">
        <ele>6</ele>
        <time>2023-08-22T11:37:48.125+00:00</time>
      </trkpt>
      <trkpt lat="49.32742" lon="-1.68822">
        <ele>7</ele>
        <time>2023-08-22T11:37:52.424+00:00</time>
      </trkpt>
      <trkpt lat="49.32738" lon="-1.68826">
        <ele>7</ele>
        <time>2023-08-22T11:37:56.403+00:00</time>
      </trkpt>
      <trkpt lat="49.32736" lon="-1.68832">
        <ele>7</ele>
        <time>2023-08-22T11:38:00.362+00:00</time>
      </trkpt>
      <trkpt lat="49.32735" lon="-1.6884">
        <ele>8</ele>
        <time>2023-08-22T11:38:05.063+00:00</time>
      </trkpt>
      <trkpt lat="49.32732" lon="-1.68845">
        <ele>8</ele>
        <time>2023-08-22T11:38:09.702+00:00</time>
      </trkpt>
      <trkpt lat="49.32727" lon="-1.68849">
        <ele>7</ele>
        <time>2023-08-22T11:38:14.489+00:00</time>
      </trkpt>
      <trkpt lat="49.32724" lon="-1.68852">
        <ele>7</ele>
        <time>2023-08-22T11:38:18.503+00:00</time>
      </trkpt>
      <trkpt lat="49.32725" lon="-1.68852">
        <ele>7</ele>
        <time>2023-08-22T11:38:23.015+00:00</time>
      </trkpt>
      <trkpt lat="49.32725" lon="-1.68855">
        <ele>7</ele>
        <time>2023-08-22T11:38:27.525+00:00</time>
      </trkpt>
      <trkpt lat="49.32726" lon="-1.68864">
        <ele>7</ele>
        <time>2023-08-22T11:38:32.030+00:00</time>
      </trkpt>
      <trkpt lat="49.32724" lon="-1.68874">
        <ele>7</ele>
        <time>2023-08-22T11:38:36.213+00:00</time>
      </trkpt>
      <trkpt lat="49.32724" lon="-1.68882">
        <ele>7</ele>
        <time>2023-08-22T11:38:40.473+00:00</time>
      </trkpt>
      <trkpt lat="49.32722" lon="-1.68888">
        <ele>7</ele>
        <time>2023-08-22T11:38:44.554+00:00</time>
      </trkpt>
      <trkpt lat="49.32722" lon="-1.68894">
        <ele>7</ele>
        <time>2023-08-22T11:38:48.795+00:00</time>
      </trkpt>
      <trkpt lat="49.32725" lon="-1.68899">
        <ele>7</ele>
        <time>2023-08-22T11:38:52.801+00:00</time>
      </trkpt>
      <trkpt lat="49.32729" lon="-1.68903">
        <ele>7</ele>
        <time>2023-08-22T11:38:57.323+00:00</time>
      </trkpt>
      <trkpt lat="49.32729" lon="-1.68905">
        <ele>7</ele>
        <time>2023-08-22T11:39:01.932+00:00</time>
      </trkpt>
      <trkpt lat="49.32727" lon="-1.68909">
        <ele>7</ele>
        <time>2023-08-22T11:39:06.440+00:00</time>
      </trkpt>
      <trkpt lat="49.32728" lon="-1.68915">
        <ele>7</ele>
        <time>2023-08-22T11:39:11.044+00:00</time>
      </trkpt>
      <trkpt lat="49.32728" lon="-1.68921">
        <ele>7</ele>
        <time>2023-08-22T11:39:15.046+00:00</time>
      </trkpt>
      <trkpt lat="49.32732" lon="-1.68924">
        <ele>7</ele>
        <time>2023-08-22T11:39:19.147+00:00</time>
      </trkpt>
      <trkpt lat="49.32733" lon="-1.68931">
        <ele>9</ele>
        <time>2023-08-22T11:39:23.388+00:00</time>
      </trkpt>
      <trkpt lat="49.32732" lon="-1.68938">
        <ele>9</ele>
        <time>2023-08-22T11:39:27.430+00:00</time>
      </trkpt>
      <trkpt lat="49.32726" lon="-1.68944">
        <ele>9</ele>
        <time>2023-08-22T11:39:32.210+00:00</time>
      </trkpt>
      <trkpt lat="49.32723" lon="-1.68948">
        <ele>9</ele>
        <time>2023-08-22T11:39:36.451+00:00</time>
      </trkpt>
      <trkpt lat="49.3272" lon="-1.68954">
        <ele>9</ele>
        <time>2023-08-22T11:39:40.771+00:00</time>
      </trkpt>
      <trkpt lat="49.32719" lon="-1.68958">
        <ele>11</ele>
        <time>2023-08-22T11:39:44.650+00:00</time>
      </trkpt>
      <trkpt lat="49.32716" lon="-1.68962">
        <ele>11</ele>
        <time>2023-08-22T11:39:48.570+00:00</time>
      </trkpt>
      <trkpt lat="49.32709" lon="-1.68974">
        <ele>11</ele>
        <time>2023-08-22T11:40:06.596+00:00</time>
      </trkpt>
      <trkpt lat="49.32709" lon="-1.68976">
        <ele>11</ele>
        <time>2023-08-22T11:40:11.109+00:00</time>
      </trkpt>
      <trkpt lat="49.32707" lon="-1.68981">
        <ele>10</ele>
        <time>2023-08-22T11:40:15.118+00:00</time>
      </trkpt>
      <trkpt lat="49.32706" lon="-1.68986">
        <ele>10</ele>
        <time>2023-08-22T11:40:19.630+00:00</time>
      </trkpt>
      <trkpt lat="49.32705" lon="-1.68991">
        <ele>11</ele>
        <time>2023-08-22T11:40:23.638+00:00</time>
      </trkpt>
      <trkpt lat="49.32702" lon="-1.69004">
        <ele>11</ele>
        <time>2023-08-22T11:40:42.678+00:00</time>
      </trkpt>
      <trkpt lat="49.32701" lon="-1.69004">
        <ele>11</ele>
        <time>2023-08-22T11:40:47.691+00:00</time>
      </trkpt>
      <trkpt lat="49.32698" lon="-1.69004">
        <ele>11</ele>
        <time>2023-08-22T11:40:52.208+00:00</time>
      </trkpt>
      <trkpt lat="49.32696" lon="-1.68997">
        <ele>11</ele>
        <time>2023-08-22T11:40:56.222+00:00</time>
      </trkpt>
      <trkpt lat="49.32694" lon="-1.68994">
        <ele>11</ele>
        <time>2023-08-22T11:41:00.234+00:00</time>
      </trkpt>
      <trkpt lat="49.32692" lon="-1.68997">
        <ele>11</ele>
        <time>2023-08-22T11:41:04.743+00:00</time>
      </trkpt>
      <trkpt lat="49.32692" lon="-1.69003">
        <ele>11</ele>
        <time>2023-08-22T11:41:08.748+00:00</time>
      </trkpt>
      <trkpt lat="49.32688" lon="-1.6901">
        <ele>11</ele>
        <time>2023-08-22T11:41:13.252+00:00</time>
      </trkpt>
      <trkpt lat="49.32684" lon="-1.69005">
        <ele>11</ele>
        <time>2023-08-22T11:41:17.533+00:00</time>
      </trkpt>
      <trkpt lat="49.32685" lon="-1.69009">
        <ele>11</ele>
        <time>2023-08-22T11:41:30.089+00:00</time>
      </trkpt>
      <trkpt lat="49.32682" lon="-1.69008">
        <ele>11</ele>
        <time>2023-08-22T11:41:34.604+00:00</time>
      </trkpt>
      <trkpt lat="49.32676" lon="-1.69014">
        <ele>11</ele>
        <time>2023-08-22T11:41:38.616+00:00</time>
      </trkpt>
      <trkpt lat="49.32672" lon="-1.69022">
        <ele>11</ele>
        <time>2023-08-22T11:41:43.129+00:00</time>
      </trkpt>
      <trkpt lat="49.32671" lon="-1.69028">
        <ele>11</ele>
        <time>2023-08-22T11:41:47.640+00:00</time>
      </trkpt>
      <trkpt lat="49.32672" lon="-1.6903">
        <ele>11</ele>
        <time>2023-08-22T11:41:51.651+00:00</time>
      </trkpt>
      <trkpt lat="49.32673" lon="-1.69034">
        <ele>11</ele>
        <time>2023-08-22T11:41:56.162+00:00</time>
      </trkpt>
      <trkpt lat="49.32672" lon="-1.69039">
        <ele>11</ele>
        <time>2023-08-22T11:42:00.271+00:00</time>
      </trkpt>
      <trkpt lat="49.32671" lon="-1.69046">
        <ele>11</ele>
        <time>2023-08-22T11:42:04.382+00:00</time>
      </trkpt>
      <trkpt lat="49.3267" lon="-1.69054">
        <ele>11</ele>
        <time>2023-08-22T11:42:12.400+00:00</time>
      </trkpt>
      <trkpt lat="49.3267" lon="-1.69054">
        <ele>11</ele>
        <time>2023-08-22T11:42:16.914+00:00</time>
      </trkpt>
      <trkpt lat="49.3267" lon="-1.69058">
        <ele>11</ele>
        <time>2023-08-22T11:42:21.427+00:00</time>
      </trkpt>
      <trkpt lat="49.32668" lon="-1.69064">
        <ele>11</ele>
        <time>2023-08-22T11:42:25.939+00:00</time>
      </trkpt>
      <trkpt lat="49.32666" lon="-1.69068">
        <ele>11</ele>
        <time>2023-08-22T11:42:30.451+00:00</time>
      </trkpt>
      <trkpt lat="49.3267" lon="-1.69078">
        <ele>11</ele>
        <time>2023-08-22T11:43:01.781+00:00</time>
      </trkpt>
      <trkpt lat="49.3267" lon="-1.69079">
        <ele>11</ele>
        <time>2023-08-22T11:43:06.784+00:00</time>
      </trkpt>
      <trkpt lat="49.32666" lon="-1.69087">
        <ele>11</ele>
        <time>2023-08-22T11:43:11.052+00:00</time>
      </trkpt>
      <trkpt lat="49.32666" lon="-1.69096">
        <ele>11</ele>
        <time>2023-08-22T11:43:15.564+00:00</time>
      </trkpt>
      <trkpt lat="49.32667" lon="-1.69101">
        <ele>11</ele>
        <time>2023-08-22T11:43:19.679+00:00</time>
      </trkpt>
      <trkpt lat="49.32665" lon="-1.69109">
        <ele>11</ele>
        <time>2023-08-22T11:43:23.691+00:00</time>
      </trkpt>
      <trkpt lat="49.32661" lon="-1.69116">
        <ele>11</ele>
        <time>2023-08-22T11:43:27.704+00:00</time>
      </trkpt>
      <trkpt lat="49.32657" lon="-1.69123">
        <ele>11</ele>
        <time>2023-08-22T11:43:31.715+00:00</time>
      </trkpt>
      <trkpt lat="49.32653" lon="-1.69128">
        <ele>13</ele>
        <time>2023-08-22T11:43:36.227+00:00</time>
      </trkpt>
      <trkpt lat="49.32648" lon="-1.69132">
        <ele>13</ele>
        <time>2023-08-22T11:43:40.239+00:00</time>
      </trkpt>
      <trkpt lat="49.32644" lon="-1.69136">
        <ele>13</ele>
        <time>2023-08-22T11:43:44.751+00:00</time>
      </trkpt>
      <trkpt lat="49.32643" lon="-1.69139">
        <ele>13</ele>
        <time>2023-08-22T11:43:48.763+00:00</time>
      </trkpt>
      <trkpt lat="49.32645" lon="-1.69145">
        <ele>13</ele>
        <time>2023-08-22T11:43:53.274+00:00</time>
      </trkpt>
      <trkpt lat="49.32644" lon="-1.69152">
        <ele>13</ele>
        <time>2023-08-22T11:44:02.398+00:00</time>
      </trkpt>
      <trkpt lat="49.32644" lon="-1.69151">
        <ele>13</ele>
        <time>2023-08-22T11:44:06.910+00:00</time>
      </trkpt>
      <trkpt lat="49.32647" lon="-1.69154">
        <ele>13</ele>
        <time>2023-08-22T11:44:11.424+00:00</time>
      </trkpt>
      <trkpt lat="49.32647" lon="-1.69161">
        <ele>13</ele>
        <time>2023-08-22T11:44:15.937+00:00</time>
      </trkpt>
      <trkpt lat="49.32644" lon="-1.69166">
        <ele>13</ele>
        <time>2023-08-22T11:44:20.450+00:00</time>
      </trkpt>
      <trkpt lat="49.3264" lon="-1.6917">
        <ele>13</ele>
        <time>2023-08-22T11:44:24.459+00:00</time>
      </trkpt>
      <trkpt lat="49.32637" lon="-1.69173">
        <ele>13</ele>
        <time>2023-08-22T11:44:28.467+00:00</time>
      </trkpt>
      <trkpt lat="49.32637" lon="-1.69178">
        <ele>13</ele>
        <time>2023-08-22T11:44:32.974+00:00</time>
      </trkpt>
      <trkpt lat="49.32635" lon="-1.69182">
        <ele>11</ele>
        <time>2023-08-22T11:44:37.484+00:00</time>
      </trkpt>
      <trkpt lat="49.32631" lon="-1.69186">
        <ele>11</ele>
        <time>2023-08-22T11:44:51.016+00:00</time>
      </trkpt>
      <trkpt lat="49.32631" lon="-1.69192">
        <ele>11</ele>
        <time>2023-08-22T11:44:55.622+00:00</time>
      </trkpt>
      <trkpt lat="49.32631" lon="-1.69197">
        <ele>11</ele>
        <time>2023-08-22T11:44:59.627+00:00</time>
      </trkpt>
      <trkpt lat="49.32629" lon="-1.692">
        <ele>11</ele>
        <time>2023-08-22T11:45:04.134+00:00</time>
      </trkpt>
      <trkpt lat="49.32629" lon="-1.692">
        <ele>11</ele>
        <time>2023-08-22T11:45:08.649+00:00</time>
      </trkpt>
      <trkpt lat="49.32627" lon="-1.692">
        <ele>11</ele>
        <time>2023-08-22T11:45:17.689+00:00</time>
      </trkpt>
      <trkpt lat="49.32627" lon="-1.69199">
        <ele>11</ele>
        <time>2023-08-22T11:45:22.207+00:00</time>
      </trkpt>
      <trkpt lat="49.32621" lon="-1.69199">
        <ele>14</ele>
        <time>2023-08-22T11:45:26.328+00:00</time>
      </trkpt>
      <trkpt lat="49.32619" lon="-1.69202">
        <ele>14</ele>
        <time>2023-08-22T11:45:30.341+00:00</time>
      </trkpt>
      <trkpt lat="49.32619" lon="-1.69204">
        <ele>14</ele>
        <time>2023-08-22T11:45:34.850+00:00</time>
      </trkpt>
      <trkpt lat="49.32612" lon="-1.6921">
        <ele>13</ele>
        <time>2023-08-22T11:45:47.518+00:00</time>
      </trkpt>
      <trkpt lat="49.32609" lon="-1.69211">
        <ele>13</ele>
        <time>2023-08-22T11:45:52.458+00:00</time>
      </trkpt>
      <trkpt lat="49.32609" lon="-1.6921">
        <ele>13</ele>
        <time>2023-08-22T11:45:56.378+00:00</time>
      </trkpt>
      <trkpt lat="49.32608" lon="-1.6921">
        <ele>13</ele>
        <time>2023-08-22T11:46:00.938+00:00</time>
      </trkpt>
      <trkpt lat="49.32602" lon="-1.69211">
        <ele>13</ele>
        <time>2023-08-22T11:46:05.377+00:00</time>
      </trkpt>
      <trkpt lat="49.326" lon="-1.69216">
        <ele>13</ele>
        <time>2023-08-22T11:46:09.576+00:00</time>
      </trkpt>
      <trkpt lat="49.32597" lon="-1.69222">
        <ele>13</ele>
        <time>2023-08-22T11:46:13.978+00:00</time>
      </trkpt>
      <trkpt lat="49.32595" lon="-1.69225">
        <ele>13</ele>
        <time>2023-08-22T11:46:17.932+00:00</time>
      </trkpt>
      <trkpt lat="49.32592" lon="-1.69227">
        <ele>13</ele>
        <time>2023-08-22T11:46:22.371+00:00</time>
      </trkpt>
      <trkpt lat="49.32587" lon="-1.6923">
        <ele>13</ele>
        <time>2023-08-22T11:46:39.841+00:00</time>
      </trkpt>
      <trkpt lat="49.32584" lon="-1.69229">
        <ele>13</ele>
        <time>2023-08-22T11:46:43.852+00:00</time>
      </trkpt>
      <trkpt lat="49.32581" lon="-1.6923">
        <ele>13</ele>
        <time>2023-08-22T11:46:48.358+00:00</time>
      </trkpt>
      <trkpt lat="49.32578" lon="-1.69232">
        <ele>13</ele>
        <time>2023-08-22T11:46:52.360+00:00</time>
      </trkpt>
      <trkpt lat="49.32575" lon="-1.69237">
        <ele>13</ele>
        <time>2023-08-22T11:46:57.320+00:00</time>
      </trkpt>
      <trkpt lat="49.32572" lon="-1.69241">
        <ele>13</ele>
        <time>2023-08-22T11:47:01.379+00:00</time>
      </trkpt>
      <trkpt lat="49.32571" lon="-1.69247">
        <ele>13</ele>
        <time>2023-08-22T11:47:05.771+00:00</time>
      </trkpt>
      <trkpt lat="49.32571" lon="-1.69251">
        <ele>13</ele>
        <time>2023-08-22T11:47:09.377+00:00</time>
      </trkpt>
      <trkpt lat="49.32571" lon="-1.69257">
        <ele>13</ele>
        <time>2023-08-22T11:47:13.575+00:00</time>
      </trkpt>
      <trkpt lat="49.32571" lon="-1.69264">
        <ele>13</ele>
        <time>2023-08-22T11:47:18.112+00:00</time>
      </trkpt>
      <trkpt lat="49.32572" lon="-1.6927">
        <ele>12</ele>
        <time>2023-08-22T11:47:22.669+00:00</time>
      </trkpt>
      <trkpt lat="49.32572" lon="-1.69276">
        <ele>12</ele>
        <time>2023-08-22T11:47:27.167+00:00</time>
      </trkpt>
      <trkpt lat="49.3257" lon="-1.69282">
        <ele>12</ele>
        <time>2023-08-22T11:47:31.364+00:00</time>
      </trkpt>
      <trkpt lat="49.32569" lon="-1.69287">
        <ele>16</ele>
        <time>2023-08-22T11:47:35.801+00:00</time>
      </trkpt>
      <trkpt lat="49.3257" lon="-1.69291">
        <ele>12</ele>
        <time>2023-08-22T11:47:40.238+00:00</time>
      </trkpt>
      <trkpt lat="49.32567" lon="-1.69295">
        <ele>16</ele>
        <time>2023-08-22T11:47:44.675+00:00</time>
      </trkpt>
      <trkpt lat="49.32564" lon="-1.69299">
        <ele>16</ele>
        <time>2023-08-22T11:47:49.351+00:00</time>
      </trkpt>
      <trkpt lat="49.32564" lon="-1.69308">
        <ele>16</ele>
        <time>2023-08-22T11:48:06.386+00:00</time>
      </trkpt>
      <trkpt lat="49.32564" lon="-1.69308">
        <ele>16</ele>
        <time>2023-08-22T11:48:10.626+00:00</time>
      </trkpt>
      <trkpt lat="49.32564" lon="-1.69308">
        <ele>16</ele>
        <time>2023-08-22T11:48:14.586+00:00</time>
      </trkpt>
      <trkpt lat="49.32562" lon="-1.69312">
        <ele>16</ele>
        <time>2023-08-22T11:48:19.006+00:00</time>
      </trkpt>
      <trkpt lat="49.32556" lon="-1.69313">
        <ele>16</ele>
        <time>2023-08-22T11:48:23.588+00:00</time>
      </trkpt>
      <trkpt lat="49.32548" lon="-1.69317">
        <ele>16</ele>
        <time>2023-08-22T11:48:49.419+00:00</time>
      </trkpt>
      <trkpt lat="49.32548" lon="-1.69317">
        <ele>16</ele>
        <time>2023-08-22T11:48:54.319+00:00</time>
      </trkpt>
      <trkpt lat="49.32544" lon="-1.69315">
        <ele>16</ele>
        <time>2023-08-22T11:48:58.919+00:00</time>
      </trkpt>
      <trkpt lat="49.3254" lon="-1.69313">
        <ele>19</ele>
        <time>2023-08-22T11:49:03.337+00:00</time>
      </trkpt>
      <trkpt lat="49.32539" lon="-1.69314">
        <ele>19</ele>
        <time>2023-08-22T11:49:08.014+00:00</time>
      </trkpt>
      <trkpt lat="49.32536" lon="-1.6932">
        <ele>18</ele>
        <time>2023-08-22T11:49:12.451+00:00</time>
      </trkpt>
      <trkpt lat="49.32534" lon="-1.69325">
        <ele>18</ele>
        <time>2023-08-22T11:49:17.009+00:00</time>
      </trkpt>
      <trkpt lat="49.32532" lon="-1.69329">
        <ele>18</ele>
        <time>2023-08-22T11:49:21.587+00:00</time>
      </trkpt>
      <trkpt lat="49.32532" lon="-1.6933">
        <ele>18</ele>
        <time>2023-08-22T11:49:25.771+00:00</time>
      </trkpt>
      <trkpt lat="49.32531" lon="-1.69333">
        <ele>18</ele>
        <time>2023-08-22T11:49:29.321+00:00</time>
      </trkpt>
      <trkpt lat="49.32531" lon="-1.69332">
        <ele>18</ele>
        <time>2023-08-22T11:49:33.800+00:00</time>
      </trkpt>
      <trkpt lat="49.32529" lon="-1.69336">
        <ele>18</ele>
        <time>2023-08-22T11:49:37.927+00:00</time>
      </trkpt>
      <trkpt lat="49.32523" lon="-1.69337">
        <ele>18</ele>
        <time>2023-08-22T11:49:41.942+00:00</time>
      </trkpt>
      <trkpt lat="49.32519" lon="-1.6934">
        <ele>18</ele>
        <time>2023-08-22T11:49:45.868+00:00</time>
      </trkpt>
      <trkpt lat="49.32515" lon="-1.69344">
        <ele>18</ele>
        <time>2023-08-22T11:49:50.459+00:00</time>
      </trkpt>
      <trkpt lat="49.32516" lon="-1.69349">
        <ele>15</ele>
        <time>2023-08-22T11:49:54.973+00:00</time>
      </trkpt>
      <trkpt lat="49.32516" lon="-1.69356">
        <ele>15</ele>
        <time>2023-08-22T11:49:59.499+00:00</time>
      </trkpt>
      <trkpt lat="49.32512" lon="-1.69362">
        <ele>15</ele>
        <time>2023-08-22T11:50:04.511+00:00</time>
      </trkpt>
      <trkpt lat="49.3251" lon="-1.69369">
        <ele>15</ele>
        <time>2023-08-22T11:50:08.516+00:00</time>
      </trkpt>
      <trkpt lat="49.32509" lon="-1.69375">
        <ele>15</ele>
        <time>2023-08-22T11:50:13.038+00:00</time>
      </trkpt>
      <trkpt lat="49.32506" lon="-1.6938">
        <ele>14</ele>
        <time>2023-08-22T11:50:17.137+00:00</time>
      </trkpt>
      <trkpt lat="49.32503" lon="-1.6938">
        <ele>14</ele>
        <time>2023-08-22T11:50:21.215+00:00</time>
      </trkpt>
      <trkpt lat="49.32503" lon="-1.6938">
        <ele>14</ele>
        <time>2023-08-22T11:50:25.754+00:00</time>
      </trkpt>
      <trkpt lat="49.325" lon="-1.69383">
        <ele>14</ele>
        <time>2023-08-22T11:50:29.753+00:00</time>
      </trkpt>
      <trkpt lat="49.32497" lon="-1.69388">
        <ele>14</ele>
        <time>2023-08-22T11:50:34.113+00:00</time>
      </trkpt>
      <trkpt lat="49.32496" lon="-1.69394">
        <ele>14</ele>
        <time>2023-08-22T11:50:38.151+00:00</time>
      </trkpt>
      <trkpt lat="49.32495" lon="-1.694">
        <ele>14</ele>
        <time>2023-08-22T11:50:42.329+00:00</time>
      </trkpt>
      <trkpt lat="49.3249" lon="-1.69399">
        <ele>14</ele>
        <time>2023-08-22T11:50:46.946+00:00</time>
      </trkpt>
      <trkpt lat="49.32485" lon="-1.69401">
        <ele>16</ele>
        <time>2023-08-22T11:50:51.143+00:00</time>
      </trkpt>
      <trkpt lat="49.32481" lon="-1.69404">
        <ele>18</ele>
        <time>2023-08-22T11:50:55.339+00:00</time>
      </trkpt>
      <trkpt lat="49.32477" lon="-1.69405">
        <ele>18</ele>
        <time>2023-08-22T11:50:59.356+00:00</time>
      </trkpt>
      <trkpt lat="49.32473" lon="-1.69407">
        <ele>18</ele>
        <time>2023-08-22T11:51:03.911+00:00</time>
      </trkpt>
      <trkpt lat="49.32469" lon="-1.69409">
        <ele>18</ele>
        <time>2023-08-22T11:51:08.107+00:00</time>
      </trkpt>
      <trkpt lat="49.32465" lon="-1.69413">
        <ele>18</ele>
        <time>2023-08-22T11:51:12.303+00:00</time>
      </trkpt>
      <trkpt lat="49.32462" lon="-1.69417">
        <ele>18</ele>
        <time>2023-08-22T11:51:16.378+00:00</time>
      </trkpt>
      <trkpt lat="49.32458" lon="-1.6942">
        <ele>18</ele>
        <time>2023-08-22T11:51:20.514+00:00</time>
      </trkpt>
      <trkpt lat="49.32455" lon="-1.69423">
        <ele>18</ele>
        <time>2023-08-22T11:51:25.068+00:00</time>
      </trkpt>
      <trkpt lat="49.32453" lon="-1.69429">
        <ele>18</ele>
        <time>2023-08-22T11:51:29.622+00:00</time>
      </trkpt>
      <trkpt lat="49.32452" lon="-1.69429">
        <ele>18</ele>
        <time>2023-08-22T11:51:33.697+00:00</time>
      </trkpt>
      <trkpt lat="49.32451" lon="-1.6943">
        <ele>18</ele>
        <time>2023-08-22T11:51:38.250+00:00</time>
      </trkpt>
      <trkpt lat="49.32448" lon="-1.69436">
        <ele>20</ele>
        <time>2023-08-22T11:51:42.204+00:00</time>
      </trkpt>
      <trkpt lat="49.32445" lon="-1.69441">
        <ele>20</ele>
        <time>2023-08-22T11:51:46.756+00:00</time>
      </trkpt>
      <trkpt lat="49.3244" lon="-1.69445">
        <ele>20</ele>
        <time>2023-08-22T11:51:50.950+00:00</time>
      </trkpt>
      <trkpt lat="49.32436" lon="-1.69447">
        <ele>20</ele>
        <time>2023-08-22T11:51:55.144+00:00</time>
      </trkpt>
      <trkpt lat="49.32431" lon="-1.69449">
        <ele>20</ele>
        <time>2023-08-22T11:51:59.578+00:00</time>
      </trkpt>
      <trkpt lat="49.32429" lon="-1.69452">
        <ele>17</ele>
        <time>2023-08-22T11:52:03.653+00:00</time>
      </trkpt>
      <trkpt lat="49.32425" lon="-1.69457">
        <ele>17</ele>
        <time>2023-08-22T11:52:08.209+00:00</time>
      </trkpt>
      <trkpt lat="49.32421" lon="-1.69459">
        <ele>17</ele>
        <time>2023-08-22T11:52:12.284+00:00</time>
      </trkpt>
      <trkpt lat="49.32418" lon="-1.69463">
        <ele>17</ele>
        <time>2023-08-22T11:52:16.900+00:00</time>
      </trkpt>
      <trkpt lat="49.32415" lon="-1.69468">
        <ele>17</ele>
        <time>2023-08-22T11:52:20.975+00:00</time>
      </trkpt>
      <trkpt lat="49.32411" lon="-1.6947">
        <ele>17</ele>
        <time>2023-08-22T11:52:25.123+00:00</time>
      </trkpt>
      <trkpt lat="49.32407" lon="-1.69472">
        <ele>17</ele>
        <time>2023-08-22T11:52:29.007+00:00</time>
      </trkpt>
      <trkpt lat="49.32406" lon="-1.69478">
        <ele>17</ele>
        <time>2023-08-22T11:52:33.465+00:00</time>
      </trkpt>
      <trkpt lat="49.32406" lon="-1.69485">
        <ele>17</ele>
        <time>2023-08-22T11:52:37.557+00:00</time>
      </trkpt>
      <trkpt lat="49.32404" lon="-1.6949">
        <ele>17</ele>
        <time>2023-08-22T11:52:41.751+00:00</time>
      </trkpt>
      <trkpt lat="49.32401" lon="-1.69495">
        <ele>16</ele>
        <time>2023-08-22T11:52:45.708+00:00</time>
      </trkpt>
      <trkpt lat="49.32397" lon="-1.69499">
        <ele>16</ele>
        <time>2023-08-22T11:52:49.863+00:00</time>
      </trkpt>
      <trkpt lat="49.32394" lon="-1.69503">
        <ele>16</ele>
        <time>2023-08-22T11:52:54.361+00:00</time>
      </trkpt>
      <trkpt lat="49.32391" lon="-1.69514">
        <ele>16</ele>
        <time>2023-08-22T11:53:12.402+00:00</time>
      </trkpt>
      <trkpt lat="49.32391" lon="-1.69519">
        <ele>16</ele>
        <time>2023-08-22T11:53:16.957+00:00</time>
      </trkpt>
      <trkpt lat="49.32392" lon="-1.6952">
        <ele>16</ele>
        <time>2023-08-22T11:53:21.634+00:00</time>
      </trkpt>
      <trkpt lat="49.32393" lon="-1.69524">
        <ele>16</ele>
        <time>2023-08-22T11:53:25.590+00:00</time>
      </trkpt>
      <trkpt lat="49.32394" lon="-1.69527">
        <ele>16</ele>
        <time>2023-08-22T11:53:29.746+00:00</time>
      </trkpt>
      <trkpt lat="49.32394" lon="-1.69535">
        <ele>16</ele>
        <time>2023-08-22T11:53:33.812+00:00</time>
      </trkpt>
      <trkpt lat="49.32394" lon="-1.69542">
        <ele>16</ele>
        <time>2023-08-22T11:53:38.017+00:00</time>
      </trkpt>
      <trkpt lat="49.32394" lon="-1.69548">
        <ele>16</ele>
        <time>2023-08-22T11:53:41.971+00:00</time>
      </trkpt>
      <trkpt lat="49.32392" lon="-1.69553">
        <ele>16</ele>
        <time>2023-08-22T11:53:46.524+00:00</time>
      </trkpt>
      <trkpt lat="49.3239" lon="-1.69569">
        <ele>16</ele>
        <time>2023-08-22T11:54:35.831+00:00</time>
      </trkpt>
      <trkpt lat="49.32389" lon="-1.6957">
        <ele>14</ele>
        <time>2023-08-22T11:54:40.342+00:00</time>
      </trkpt>
      <trkpt lat="49.32387" lon="-1.69572">
        <ele>14</ele>
        <time>2023-08-22T11:54:44.351+00:00</time>
      </trkpt>
      <trkpt lat="49.32384" lon="-1.69574">
        <ele>14</ele>
        <time>2023-08-22T11:54:48.858+00:00</time>
      </trkpt>
      <trkpt lat="49.32381" lon="-1.69578">
        <ele>14</ele>
        <time>2023-08-22T11:54:53.365+00:00</time>
      </trkpt>
      <trkpt lat="49.32381" lon="-1.69581">
        <ele>14</ele>
        <time>2023-08-22T11:54:57.872+00:00</time>
      </trkpt>
      <trkpt lat="49.32381" lon="-1.69585">
        <ele>14</ele>
        <time>2023-08-22T11:55:02.378+00:00</time>
      </trkpt>
      <trkpt lat="49.3238" lon="-1.6959">
        <ele>14</ele>
        <time>2023-08-22T11:55:06.385+00:00</time>
      </trkpt>
      <trkpt lat="49.32378" lon="-1.69596">
        <ele>14</ele>
        <time>2023-08-22T11:55:11.392+00:00</time>
      </trkpt>
      <trkpt lat="49.32369" lon="-1.69609">
        <ele>12</ele>
        <time>2023-08-22T11:55:32.427+00:00</time>
      </trkpt>
      <trkpt lat="49.32368" lon="-1.69611">
        <ele>12</ele>
        <time>2023-08-22T11:55:36.548+00:00</time>
      </trkpt>
      <trkpt lat="49.32363" lon="-1.69615">
        <ele>12</ele>
        <time>2023-08-22T11:55:40.989+00:00</time>
      </trkpt>
      <trkpt lat="49.32359" lon="-1.69619">
        <ele>12</ele>
        <time>2023-08-22T11:55:45.607+00:00</time>
      </trkpt>
      <trkpt lat="49.32356" lon="-1.69621">
        <ele>12</ele>
        <time>2023-08-22T11:55:49.684+00:00</time>
      </trkpt>
      <trkpt lat="49.32348" lon="-1.69627">
        <ele>11</ele>
        <time>2023-08-22T11:56:23.713+00:00</time>
      </trkpt>
      <trkpt lat="49.32348" lon="-1.69628">
        <ele>11</ele>
        <time>2023-08-22T11:56:27.309+00:00</time>
      </trkpt>
      <trkpt lat="49.32348" lon="-1.69628">
        <ele>11</ele>
        <time>2023-08-22T11:56:32.387+00:00</time>
      </trkpt>
      <trkpt lat="49.32347" lon="-1.69626">
        <ele>11</ele>
        <time>2023-08-22T11:56:36.904+00:00</time>
      </trkpt>
      <trkpt lat="49.32344" lon="-1.69627">
        <ele>11</ele>
        <time>2023-08-22T11:56:41.411+00:00</time>
      </trkpt>
      <trkpt lat="49.32339" lon="-1.69629">
        <ele>11</ele>
        <time>2023-08-22T11:56:46.033+00:00</time>
      </trkpt>
      <trkpt lat="49.32335" lon="-1.69629">
        <ele>11</ele>
        <time>2023-08-22T11:56:50.313+00:00</time>
      </trkpt>
      <trkpt lat="49.32331" lon="-1.69629">
        <ele>11</ele>
        <time>2023-08-22T11:56:54.331+00:00</time>
      </trkpt>
      <trkpt lat="49.32331" lon="-1.69629">
        <ele>11</ele>
        <time>2023-08-22T11:56:59.128+00:00</time>
      </trkpt>
      <trkpt lat="49.32326" lon="-1.69629">
        <ele>11</ele>
        <time>2023-08-22T11:57:03.850+00:00</time>
      </trkpt>
      <trkpt lat="49.32321" lon="-1.69633">
        <ele>11</ele>
        <time>2023-08-22T11:57:07.802+00:00</time>
      </trkpt>
      <trkpt lat="49.32316" lon="-1.69635">
        <ele>10</ele>
        <time>2023-08-22T11:57:12.377+00:00</time>
      </trkpt>
      <trkpt lat="49.32314" lon="-1.6964">
        <ele>10</ele>
        <time>2023-08-22T11:57:16.574+00:00</time>
      </trkpt>
      <trkpt lat="49.32311" lon="-1.69646">
        <ele>10</ele>
        <time>2023-08-22T11:57:21.369+00:00</time>
      </trkpt>
      <trkpt lat="49.32306" lon="-1.69647">
        <ele>10</ele>
        <time>2023-08-22T11:57:26.023+00:00</time>
      </trkpt>
      <trkpt lat="49.32302" lon="-1.69649">
        <ele>10</ele>
        <time>2023-08-22T11:57:30.558+00:00</time>
      </trkpt>
      <trkpt lat="49.32301" lon="-1.69651">
        <ele>10</ele>
        <time>2023-08-22T11:57:34.393+00:00</time>
      </trkpt>
      <trkpt lat="49.32297" lon="-1.69651">
        <ele>10</ele>
        <time>2023-08-22T11:57:38.588+00:00</time>
      </trkpt>
      <trkpt lat="49.32293" lon="-1.69652">
        <ele>10</ele>
        <time>2023-08-22T11:57:42.822+00:00</time>
      </trkpt>
      <trkpt lat="49.32289" lon="-1.69654">
        <ele>8</ele>
        <time>2023-08-22T11:57:46.977+00:00</time>
      </trkpt>
      <trkpt lat="49.32286" lon="-1.69658">
        <ele>8</ele>
        <time>2023-08-22T11:57:51.532+00:00</time>
      </trkpt>
      <trkpt lat="49.32284" lon="-1.69665">
        <ele>8</ele>
        <time>2023-08-22T11:57:56.048+00:00</time>
      </trkpt>
      <trkpt lat="49.32281" lon="-1.69669">
        <ele>8</ele>
        <time>2023-08-22T11:58:00.664+00:00</time>
      </trkpt>
      <trkpt lat="49.32277" lon="-1.69674">
        <ele>8</ele>
        <time>2023-08-22T11:58:05.199+00:00</time>
      </trkpt>
      <trkpt lat="49.32276" lon="-1.6968">
        <ele>8</ele>
        <time>2023-08-22T11:58:09.632+00:00</time>
      </trkpt>
      <trkpt lat="49.32275" lon="-1.69687">
        <ele>8</ele>
        <time>2023-08-22T11:58:14.307+00:00</time>
      </trkpt>
      <trkpt lat="49.32274" lon="-1.69694">
        <ele>8</ele>
        <time>2023-08-22T11:58:18.926+00:00</time>
      </trkpt>
      <trkpt lat="49.32271" lon="-1.697">
        <ele>8</ele>
        <time>2023-08-22T11:58:23.103+00:00</time>
      </trkpt>
      <trkpt lat="49.3227" lon="-1.69706">
        <ele>8</ele>
        <time>2023-08-22T11:58:27.661+00:00</time>
      </trkpt>
      <trkpt lat="49.32269" lon="-1.69711">
        <ele>9</ele>
        <time>2023-08-22T11:58:32.278+00:00</time>
      </trkpt>
      <trkpt lat="49.32268" lon="-1.69715">
        <ele>9</ele>
        <time>2023-08-22T11:58:36.354+00:00</time>
      </trkpt>
      <trkpt lat="49.32269" lon="-1.69716">
        <ele>9</ele>
        <time>2023-08-22T11:58:45.591+00:00</time>
      </trkpt>
      <trkpt lat="49.32269" lon="-1.69718">
        <ele>9</ele>
        <time>2023-08-22T11:58:49.792+00:00</time>
      </trkpt>
      <trkpt lat="49.3227" lon="-1.69721">
        <ele>9</ele>
        <time>2023-08-22T11:58:53.984+00:00</time>
      </trkpt>
      <trkpt lat="49.32272" lon="-1.69729">
        <ele>9</ele>
        <time>2023-08-22T11:58:58.544+00:00</time>
      </trkpt>
      <trkpt lat="49.3227" lon="-1.69735">
        <ele>9</ele>
        <time>2023-08-22T11:59:02.356+00:00</time>
      </trkpt>
      <trkpt lat="49.32269" lon="-1.69741">
        <ele>10</ele>
        <time>2023-08-22T11:59:06.551+00:00</time>
      </trkpt>
      <trkpt lat="49.32266" lon="-1.69743">
        <ele>10</ele>
        <time>2023-08-22T11:59:11.771+00:00</time>
      </trkpt>
      <trkpt lat="49.32264" lon="-1.69745">
        <ele>10</ele>
        <time>2023-08-22T11:59:16.302+00:00</time>
      </trkpt>
      <trkpt lat="49.32262" lon="-1.69749">
        <ele>10</ele>
        <time>2023-08-22T11:59:20.782+00:00</time>
      </trkpt>
      <trkpt lat="49.32261" lon="-1.6975">
        <ele>10</ele>
        <time>2023-08-22T11:59:24.853+00:00</time>
      </trkpt>
      <trkpt lat="49.32258" lon="-1.69752">
        <ele>10</ele>
        <time>2023-08-22T11:59:28.964+00:00</time>
      </trkpt>
      <trkpt lat="49.32253" lon="-1.69756">
        <ele>10</ele>
        <time>2023-08-22T11:59:33.119+00:00</time>
      </trkpt>
      <trkpt lat="49.32249" lon="-1.6976">
        <ele>10</ele>
        <time>2023-08-22T11:59:37.771+00:00</time>
      </trkpt>
      <trkpt lat="49.32246" lon="-1.69765">
        <ele>11</ele>
        <time>2023-08-22T11:59:41.747+00:00</time>
      </trkpt>
      <trkpt lat="49.32246" lon="-1.69764">
        <ele>11</ele>
        <time>2023-08-22T11:59:54.688+00:00</time>
      </trkpt>
      <trkpt lat="49.32241" lon="-1.69768">
        <ele>11</ele>
        <time>2023-08-22T11:59:58.663+00:00</time>
      </trkpt>
      <trkpt lat="49.32236" lon="-1.6977">
        <ele>10</ele>
        <time>2023-08-22T12:00:03.299+00:00</time>
      </trkpt>
      <trkpt lat="49.32231" lon="-1.6977">
        <ele>10</ele>
        <time>2023-08-22T12:00:07.493+00:00</time>
      </trkpt>
      <trkpt lat="49.32227" lon="-1.69773">
        <ele>10</ele>
        <time>2023-08-22T12:00:12.048+00:00</time>
      </trkpt>
      <trkpt lat="49.32226" lon="-1.69787">
        <ele>10</ele>
        <time>2023-08-22T12:00:29.353+00:00</time>
      </trkpt>
      <trkpt lat="49.32226" lon="-1.69787">
        <ele>10</ele>
        <time>2023-08-22T12:00:33.531+00:00</time>
      </trkpt>
      <trkpt lat="49.32228" lon="-1.6979">
        <ele>10</ele>
        <time>2023-08-22T12:00:38.267+00:00</time>
      </trkpt>
      <trkpt lat="49.3223" lon="-1.69796">
        <ele>11</ele>
        <time>2023-08-22T12:00:42.344+00:00</time>
      </trkpt>
      <trkpt lat="49.32231" lon="-1.69803">
        <ele>11</ele>
        <time>2023-08-22T12:00:47.542+00:00</time>
      </trkpt>
      <trkpt lat="49.32233" lon="-1.69805">
        <ele>11</ele>
        <time>2023-08-22T12:01:04.764+00:00</time>
      </trkpt>
      <trkpt lat="49.32235" lon="-1.69807">
        <ele>11</ele>
        <time>2023-08-22T12:01:08.771+00:00</time>
      </trkpt>
      <trkpt lat="49.32236" lon="-1.69812">
        <ele>11</ele>
        <time>2023-08-22T12:01:12.826+00:00</time>
      </trkpt>
      <trkpt lat="49.32238" lon="-1.6982">
        <ele>11</ele>
        <time>2023-08-22T12:01:16.952+00:00</time>
      </trkpt>
      <trkpt lat="49.32239" lon="-1.69825">
        <ele>11</ele>
        <time>2023-08-22T12:01:21.027+00:00</time>
      </trkpt>
      <trkpt lat="49.3224" lon="-1.69831">
        <ele>11</ele>
        <time>2023-08-22T12:01:25.222+00:00</time>
      </trkpt>
      <trkpt lat="49.3224" lon="-1.69836">
        <ele>11</ele>
        <time>2023-08-22T12:01:29.536+00:00</time>
      </trkpt>
      <trkpt lat="49.32241" lon="-1.69842">
        <ele>11</ele>
        <time>2023-08-22T12:01:33.731+00:00</time>
      </trkpt>
      <trkpt lat="49.3224" lon="-1.69848">
        <ele>10</ele>
        <time>2023-08-22T12:01:37.805+00:00</time>
      </trkpt>
      <trkpt lat="49.32241" lon="-1.69855">
        <ele>10</ele>
        <time>2023-08-22T12:01:41.999+00:00</time>
      </trkpt>
      <trkpt lat="49.32243" lon="-1.69861">
        <ele>10</ele>
        <time>2023-08-22T12:01:46.175+00:00</time>
      </trkpt>
      <trkpt lat="49.32244" lon="-1.69868">
        <ele>10</ele>
        <time>2023-08-22T12:01:50.371+00:00</time>
      </trkpt>
      <trkpt lat="49.32245" lon="-1.69875">
        <ele>10</ele>
        <time>2023-08-22T12:01:54.925+00:00</time>
      </trkpt>
      <trkpt lat="49.32247" lon="-1.69881">
        <ele>9</ele>
        <time>2023-08-22T12:01:59.460+00:00</time>
      </trkpt>
      <trkpt lat="49.32248" lon="-1.69887">
        <ele>9</ele>
        <time>2023-08-22T12:02:03.535+00:00</time>
      </trkpt>
      <trkpt lat="49.32248" lon="-1.69894">
        <ele>9</ele>
        <time>2023-08-22T12:02:07.371+00:00</time>
      </trkpt>
      <trkpt lat="49.3225" lon="-1.69896">
        <ele>9</ele>
        <time>2023-08-22T12:02:12.163+00:00</time>
      </trkpt>
      <trkpt lat="49.32251" lon="-1.69901">
        <ele>9</ele>
        <time>2023-08-22T12:02:16.219+00:00</time>
      </trkpt>
      <trkpt lat="49.32251" lon="-1.69909">
        <ele>7</ele>
        <time>2023-08-22T12:02:20.309+00:00</time>
      </trkpt>
      <trkpt lat="49.3225" lon="-1.69917">
        <ele>7</ele>
        <time>2023-08-22T12:02:24.503+00:00</time>
      </trkpt>
      <trkpt lat="49.32251" lon="-1.69923">
        <ele>7</ele>
        <time>2023-08-22T12:02:28.695+00:00</time>
      </trkpt>
      <trkpt lat="49.32252" lon="-1.69928">
        <ele>7</ele>
        <time>2023-08-22T12:02:32.729+00:00</time>
      </trkpt>
      <trkpt lat="49.32253" lon="-1.69937">
        <ele>7</ele>
        <time>2023-08-22T12:02:37.791+00:00</time>
      </trkpt>
      <trkpt lat="49.32253" lon="-1.69941">
        <ele>7</ele>
        <time>2023-08-22T12:02:41.771+00:00</time>
      </trkpt>
      <trkpt lat="49.32253" lon="-1.69944">
        <ele>7</ele>
        <time>2023-08-22T12:02:46.208+00:00</time>
      </trkpt>
      <trkpt lat="49.32255" lon="-1.69949">
        <ele>7</ele>
        <time>2023-08-22T12:03:20.757+00:00</time>
      </trkpt>
      <trkpt lat="49.32255" lon="-1.69949">
        <ele>7</ele>
        <time>2023-08-22T12:03:25.549+00:00</time>
      </trkpt>
      <trkpt lat="49.32255" lon="-1.69952">
        <ele>7</ele>
        <time>2023-08-22T12:03:29.742+00:00</time>
      </trkpt>
      <trkpt lat="49.32254" lon="-1.69955">
        <ele>7</ele>
        <time>2023-08-22T12:03:33.695+00:00</time>
      </trkpt>
      <trkpt lat="49.32253" lon="-1.69964">
        <ele>7</ele>
        <time>2023-08-22T12:03:37.800+00:00</time>
      </trkpt>
      <trkpt lat="49.3225" lon="-1.69964">
        <ele>7</ele>
        <time>2023-08-22T12:03:41.881+00:00</time>
      </trkpt>
      <trkpt lat="49.32251" lon="-1.69971">
        <ele>7</ele>
        <time>2023-08-22T12:03:46.091+00:00</time>
      </trkpt>
      <trkpt lat="49.32248" lon="-1.69977">
        <ele>7</ele>
        <time>2023-08-22T12:03:50.164+00:00</time>
      </trkpt>
      <trkpt lat="49.32245" lon="-1.69985">
        <ele>7</ele>
        <time>2023-08-22T12:03:54.361+00:00</time>
      </trkpt>
      <trkpt lat="49.32243" lon="-1.69996">
        <ele>7</ele>
        <time>2023-08-22T12:03:58.556+00:00</time>
      </trkpt>
      <trkpt lat="49.32249" lon="-1.70011">
        <ele>7</ele>
        <time>2023-08-22T12:04:02.629+00:00</time>
      </trkpt>
      <trkpt lat="49.32251" lon="-1.70023">
        <ele>8</ele>
        <time>2023-08-22T12:04:07.162+00:00</time>
      </trkpt>
      <trkpt lat="49.32251" lon="-1.70033">
        <ele>8</ele>
        <time>2023-08-22T12:04:11.951+00:00</time>
      </trkpt>
      <trkpt lat="49.32249" lon="-1.70042">
        <ele>9</ele>
        <time>2023-08-22T12:04:16.385+00:00</time>
      </trkpt>
      <trkpt lat="49.32249" lon="-1.70051">
        <ele>9</ele>
        <time>2023-08-22T12:04:20.724+00:00</time>
      </trkpt>
      <trkpt lat="49.32247" lon="-1.70059">
        <ele>9</ele>
        <time>2023-08-22T12:04:25.106+00:00</time>
      </trkpt>
      <trkpt lat="49.32245" lon="-1.70068">
        <ele>9</ele>
        <time>2023-08-22T12:04:29.566+00:00</time>
      </trkpt>
      <trkpt lat="49.32241" lon="-1.70075">
        <ele>10</ele>
        <time>2023-08-22T12:04:33.726+00:00</time>
      </trkpt>
      <trkpt lat="49.3224" lon="-1.70083">
        <ele>10</ele>
        <time>2023-08-22T12:04:37.695+00:00</time>
      </trkpt>
      <trkpt lat="49.3224" lon="-1.70091">
        <ele>10</ele>
        <time>2023-08-22T12:04:41.766+00:00</time>
      </trkpt>
      <trkpt lat="49.32243" lon="-1.701">
        <ele>10</ele>
        <time>2023-08-22T12:04:45.902+00:00</time>
      </trkpt>
      <trkpt lat="49.32244" lon="-1.70107">
        <ele>10</ele>
        <time>2023-08-22T12:04:49.990+00:00</time>
      </trkpt>
      <trkpt lat="49.32243" lon="-1.70112">
        <ele>10</ele>
        <time>2023-08-22T12:04:54.661+00:00</time>
      </trkpt>
      <trkpt lat="49.32245" lon="-1.70113">
        <ele>10</ele>
        <time>2023-08-22T12:04:58.735+00:00</time>
      </trkpt>
      <trkpt lat="49.32249" lon="-1.70121">
        <ele>10</ele>
        <time>2023-08-22T12:05:03.238+00:00</time>
      </trkpt>
      <trkpt lat="49.32249" lon="-1.7013">
        <ele>9</ele>
        <time>2023-08-22T12:05:07.200+00:00</time>
      </trkpt>
      <trkpt lat="49.32249" lon="-1.70139">
        <ele>9</ele>
        <time>2023-08-22T12:05:11.393+00:00</time>
      </trkpt>
      <trkpt lat="49.32249" lon="-1.70148">
        <ele>9</ele>
        <time>2023-08-22T12:05:16.058+00:00</time>
      </trkpt>
      <trkpt lat="49.32248" lon="-1.70155">
        <ele>8</ele>
        <time>2023-08-22T12:05:20.118+00:00</time>
      </trkpt>
      <trkpt lat="49.32249" lon="-1.70168">
        <ele>8</ele>
        <time>2023-08-22T12:05:34.426+00:00</time>
      </trkpt>
      <trkpt lat="49.3225" lon="-1.70173">
        <ele>8</ele>
        <time>2023-08-22T12:05:38.940+00:00</time>
      </trkpt>
      <trkpt lat="49.32251" lon="-1.70182">
        <ele>9</ele>
        <time>2023-08-22T12:05:43.603+00:00</time>
      </trkpt>
      <trkpt lat="49.32252" lon="-1.7019">
        <ele>9</ele>
        <time>2023-08-22T12:05:47.739+00:00</time>
      </trkpt>
      <trkpt lat="49.3225" lon="-1.70198">
        <ele>9</ele>
        <time>2023-08-22T12:05:51.864+00:00</time>
      </trkpt>
      <trkpt lat="49.32251" lon="-1.70207">
        <ele>9</ele>
        <time>2023-08-22T12:05:56.199+00:00</time>
      </trkpt>
      <trkpt lat="49.32251" lon="-1.70216">
        <ele>9</ele>
        <time>2023-08-22T12:06:00.383+00:00</time>
      </trkpt>
      <trkpt lat="49.32252" lon="-1.70225">
        <ele>9</ele>
        <time>2023-08-22T12:06:04.939+00:00</time>
      </trkpt>
      <trkpt lat="49.32252" lon="-1.70234">
        <ele>9</ele>
        <time>2023-08-22T12:06:09.374+00:00</time>
      </trkpt>
      <trkpt lat="49.32254" lon="-1.70242">
        <ele>9</ele>
        <time>2023-08-22T12:06:13.570+00:00</time>
      </trkpt>
      <trkpt lat="49.32257" lon="-1.70247">
        <ele>9</ele>
        <time>2023-08-22T12:06:17.763+00:00</time>
      </trkpt>
      <trkpt lat="49.32261" lon="-1.70253">
        <ele>9</ele>
        <time>2023-08-22T12:06:22.317+00:00</time>
      </trkpt>
      <trkpt lat="49.32264" lon="-1.70258">
        <ele>8</ele>
        <time>2023-08-22T12:06:26.394+00:00</time>
      </trkpt>
      <trkpt lat="49.32268" lon="-1.70262">
        <ele>8</ele>
        <time>2023-08-22T12:06:30.529+00:00</time>
      </trkpt>
      <trkpt lat="49.32272" lon="-1.70263">
        <ele>8</ele>
        <time>2023-08-22T12:06:34.724+00:00</time>
      </trkpt>
      <trkpt lat="49.32277" lon="-1.7026">
        <ele>8</ele>
        <time>2023-08-22T12:06:38.677+00:00</time>
      </trkpt>
      <trkpt lat="49.32279" lon="-1.7026">
        <ele>8</ele>
        <time>2023-08-22T12:06:42.633+00:00</time>
      </trkpt>
      <trkpt lat="49.3228" lon="-1.70259">
        <ele>8</ele>
        <time>2023-08-22T12:06:46.709+00:00</time>
      </trkpt>
      <trkpt lat="49.32286" lon="-1.70256">
        <ele>8</ele>
        <time>2023-08-22T12:06:51.306+00:00</time>
      </trkpt>
      <trkpt lat="49.32291" lon="-1.70262">
        <ele>8</ele>
        <time>2023-08-22T12:06:55.338+00:00</time>
      </trkpt>
      <trkpt lat="49.32293" lon="-1.70268">
        <ele>7</ele>
        <time>2023-08-22T12:06:59.532+00:00</time>
      </trkpt>
      <trkpt lat="49.32295" lon="-1.70271">
        <ele>7</ele>
        <time>2023-08-22T12:07:16.544+00:00</time>
      </trkpt>
      <trkpt lat="49.3229" lon="-1.70266">
        <ele>8</ele>
        <time>2023-08-22T12:07:21.197+00:00</time>
      </trkpt>
      <trkpt lat="49.32286" lon="-1.70259">
        <ele>8</ele>
        <time>2023-08-22T12:07:25.530+00:00</time>
      </trkpt>
      <trkpt lat="49.32282" lon="-1.70257">
        <ele>8</ele>
        <time>2023-08-22T12:07:29.665+00:00</time>
      </trkpt>
      <trkpt lat="49.32277" lon="-1.70259">
        <ele>8</ele>
        <time>2023-08-22T12:07:33.660+00:00</time>
      </trkpt>
      <trkpt lat="49.32273" lon="-1.70261">
        <ele>8</ele>
        <time>2023-08-22T12:07:38.098+00:00</time>
      </trkpt>
      <trkpt lat="49.32269" lon="-1.70267">
        <ele>8</ele>
        <time>2023-08-22T12:07:42.120+00:00</time>
      </trkpt>
      <trkpt lat="49.32267" lon="-1.70274">
        <ele>8</ele>
        <time>2023-08-22T12:07:46.313+00:00</time>
      </trkpt>
      <trkpt lat="49.32266" lon="-1.70282">
        <ele>8</ele>
        <time>2023-08-22T12:07:50.986+00:00</time>
      </trkpt>
      <trkpt lat="49.32265" lon="-1.70289">
        <ele>8</ele>
        <time>2023-08-22T12:07:55.179+00:00</time>
      </trkpt>
      <trkpt lat="49.32266" lon="-1.70296">
        <ele>8</ele>
        <time>2023-08-22T12:07:59.779+00:00</time>
      </trkpt>
      <trkpt lat="49.32267" lon="-1.70303">
        <ele>8</ele>
        <time>2023-08-22T12:08:03.906+00:00</time>
      </trkpt>
      <trkpt lat="49.3227" lon="-1.7031">
        <ele>8</ele>
        <time>2023-08-22T12:08:07.960+00:00</time>
      </trkpt>
      <trkpt lat="49.32273" lon="-1.70316">
        <ele>8</ele>
        <time>2023-08-22T12:08:12.713+00:00</time>
      </trkpt>
      <trkpt lat="49.32274" lon="-1.70319">
        <ele>8</ele>
        <time>2023-08-22T12:08:16.771+00:00</time>
      </trkpt>
      <trkpt lat="49.32274" lon="-1.7032">
        <ele>8</ele>
        <time>2023-08-22T12:08:20.965+00:00</time>
      </trkpt>
      <trkpt lat="49.32278" lon="-1.70326">
        <ele>8</ele>
        <time>2023-08-22T12:08:25.104+00:00</time>
      </trkpt>
      <trkpt lat="49.32281" lon="-1.70332">
        <ele>8</ele>
        <time>2023-08-22T12:08:29.262+00:00</time>
      </trkpt>
      <trkpt lat="49.32283" lon="-1.70338">
        <ele>8</ele>
        <time>2023-08-22T12:08:33.255+00:00</time>
      </trkpt>
      <trkpt lat="49.32284" lon="-1.70347">
        <ele>8</ele>
        <time>2023-08-22T12:08:37.782+00:00</time>
      </trkpt>
      <trkpt lat="49.32284" lon="-1.70355">
        <ele>8</ele>
        <time>2023-08-22T12:08:41.765+00:00</time>
      </trkpt>
      <trkpt lat="49.32283" lon="-1.70363">
        <ele>8</ele>
        <time>2023-08-22T12:08:45.959+00:00</time>
      </trkpt>
      <trkpt lat="49.32283" lon="-1.7037">
        <ele>8</ele>
        <time>2023-08-22T12:08:50.151+00:00</time>
      </trkpt>
      <trkpt lat="49.32282" lon="-1.70377">
        <ele>8</ele>
        <time>2023-08-22T12:08:54.832+00:00</time>
      </trkpt>
      <trkpt lat="49.32281" lon="-1.70383">
        <ele>8</ele>
        <time>2023-08-22T12:08:58.978+00:00</time>
      </trkpt>
      <trkpt lat="49.3228" lon="-1.70389">
        <ele>8</ele>
        <time>2023-08-22T12:09:03.769+00:00</time>
      </trkpt>
      <trkpt lat="49.32282" lon="-1.70395">
        <ele>8</ele>
        <time>2023-08-22T12:09:07.787+00:00</time>
      </trkpt>
      <trkpt lat="49.32282" lon="-1.70402">
        <ele>8</ele>
        <time>2023-08-22T12:09:12.334+00:00</time>
      </trkpt>
      <trkpt lat="49.32283" lon="-1.70411">
        <ele>7</ele>
        <time>2023-08-22T12:09:17.005+00:00</time>
      </trkpt>
      <trkpt lat="49.32285" lon="-1.70419">
        <ele>7</ele>
        <time>2023-08-22T12:09:21.556+00:00</time>
      </trkpt>
      <trkpt lat="49.32286" lon="-1.70425">
        <ele>7</ele>
        <time>2023-08-22T12:09:25.747+00:00</time>
      </trkpt>
      <trkpt lat="49.32286" lon="-1.70433">
        <ele>5</ele>
        <time>2023-08-22T12:09:29.938+00:00</time>
      </trkpt>
      <trkpt lat="49.32284" lon="-1.7044">
        <ele>5</ele>
        <time>2023-08-22T12:09:34.729+00:00</time>
      </trkpt>
      <trkpt lat="49.32285" lon="-1.70447">
        <ele>5</ele>
        <time>2023-08-22T12:09:38.921+00:00</time>
      </trkpt>
      <trkpt lat="49.32283" lon="-1.70468">
        <ele>4</ele>
        <time>2023-08-22T12:10:05.036+00:00</time>
      </trkpt>
      <trkpt lat="49.32282" lon="-1.70472">
        <ele>4</ele>
        <time>2023-08-22T12:10:09.545+00:00</time>
      </trkpt>
      <trkpt lat="49.3228" lon="-1.70476">
        <ele>4</ele>
        <time>2023-08-22T12:10:13.793+00:00</time>
      </trkpt>
      <trkpt lat="49.32276" lon="-1.70481">
        <ele>4</ele>
        <time>2023-08-22T12:10:17.747+00:00</time>
      </trkpt>
      <trkpt lat="49.32269" lon="-1.70483">
        <ele>4</ele>
        <time>2023-08-22T12:10:21.905+00:00</time>
      </trkpt>
      <trkpt lat="49.32263" lon="-1.70484">
        <ele>5</ele>
        <time>2023-08-22T12:10:26.102+00:00</time>
      </trkpt>
      <trkpt lat="49.32258" lon="-1.70485">
        <ele>5</ele>
        <time>2023-08-22T12:10:30.180+00:00</time>
      </trkpt>
      <trkpt lat="49.32253" lon="-1.70484">
        <ele>5</ele>
        <time>2023-08-22T12:10:34.599+00:00</time>
      </trkpt>
      <trkpt lat="49.32249" lon="-1.70483">
        <ele>5</ele>
        <time>2023-08-22T12:10:38.939+00:00</time>
      </trkpt>
      <trkpt lat="49.32244" lon="-1.70483">
        <ele>5</ele>
        <time>2023-08-22T12:10:43.541+00:00</time>
      </trkpt>
      <trkpt lat="49.32239" lon="-1.70482">
        <ele>5</ele>
        <time>2023-08-22T12:10:47.354+00:00</time>
      </trkpt>
      <trkpt lat="49.32234" lon="-1.70485">
        <ele>6</ele>
        <time>2023-08-22T12:10:52.089+00:00</time>
      </trkpt>
      <trkpt lat="49.32228" lon="-1.70484">
        <ele>6</ele>
        <time>2023-08-22T12:10:56.284+00:00</time>
      </trkpt>
      <trkpt lat="49.32224" lon="-1.7048">
        <ele>6</ele>
        <time>2023-08-22T12:11:00.801+00:00</time>
      </trkpt>
      <trkpt lat="49.3222" lon="-1.70478">
        <ele>6</ele>
        <time>2023-08-22T12:11:04.734+00:00</time>
      </trkpt>
      <trkpt lat="49.32216" lon="-1.70478">
        <ele>6</ele>
        <time>2023-08-22T12:11:08.927+00:00</time>
      </trkpt>
      <trkpt lat="49.32211" lon="-1.70477">
        <ele>6</ele>
        <time>2023-08-22T12:11:13.722+00:00</time>
      </trkpt>
      <trkpt lat="49.32207" lon="-1.70475">
        <ele>6</ele>
        <time>2023-08-22T12:11:17.756+00:00</time>
      </trkpt>
      <trkpt lat="49.32203" lon="-1.70472">
        <ele>6</ele>
        <time>2023-08-22T12:11:21.950+00:00</time>
      </trkpt>
      <trkpt lat="49.32198" lon="-1.7047">
        <ele>6</ele>
        <time>2023-08-22T12:11:26.143+00:00</time>
      </trkpt>
      <trkpt lat="49.32194" lon="-1.7047">
        <ele>6</ele>
        <time>2023-08-22T12:11:30.771+00:00</time>
      </trkpt>
      <trkpt lat="49.32188" lon="-1.70471">
        <ele>6</ele>
        <time>2023-08-22T12:11:35.288+00:00</time>
      </trkpt>
      <trkpt lat="49.32181" lon="-1.70471">
        <ele>6</ele>
        <time>2023-08-22T12:11:40.785+00:00</time>
      </trkpt>
      <trkpt lat="49.32177" lon="-1.70469">
        <ele>6</ele>
        <time>2023-08-22T12:11:44.389+00:00</time>
      </trkpt>
      <trkpt lat="49.32173" lon="-1.70469">
        <ele>6</ele>
        <time>2023-08-22T12:11:48.941+00:00</time>
      </trkpt>
      <trkpt lat="49.32168" lon="-1.70467">
        <ele>6</ele>
        <time>2023-08-22T12:11:53.135+00:00</time>
      </trkpt>
      <trkpt lat="49.32163" lon="-1.70468">
        <ele>6</ele>
        <time>2023-08-22T12:11:57.327+00:00</time>
      </trkpt>
      <trkpt lat="49.32158" lon="-1.70468">
        <ele>6</ele>
        <time>2023-08-22T12:12:01.519+00:00</time>
      </trkpt>
      <trkpt lat="49.32154" lon="-1.70468">
        <ele>6</ele>
        <time>2023-08-22T12:12:05.588+00:00</time>
      </trkpt>
      <trkpt lat="49.3215" lon="-1.70466">
        <ele>6</ele>
        <time>2023-08-22T12:12:09.658+00:00</time>
      </trkpt>
      <trkpt lat="49.32146" lon="-1.70463">
        <ele>6</ele>
        <time>2023-08-22T12:12:14.242+00:00</time>
      </trkpt>
      <trkpt lat="49.32145" lon="-1.70455">
        <ele>7</ele>
        <time>2023-08-22T12:12:18.790+00:00</time>
      </trkpt>
      <trkpt lat="49.32145" lon="-1.70453">
        <ele>7</ele>
        <time>2023-08-22T12:12:23.394+00:00</time>
      </trkpt>
      <trkpt lat="49.32145" lon="-1.70453">
        <ele>7</ele>
        <time>2023-08-22T12:12:27.400+00:00</time>
      </trkpt>
      <trkpt lat="49.32142" lon="-1.70455">
        <ele>7</ele>
        <time>2023-08-22T12:12:31.913+00:00</time>
      </trkpt>
      <trkpt lat="49.32136" lon="-1.70455">
        <ele>7</ele>
        <time>2023-08-22T12:12:36.426+00:00</time>
      </trkpt>
      <trkpt lat="49.3213" lon="-1.70454">
        <ele>7</ele>
        <time>2023-08-22T12:12:41.446+00:00</time>
      </trkpt>
      <trkpt lat="49.32125" lon="-1.70452">
        <ele>7</ele>
        <time>2023-08-22T12:12:45.841+00:00</time>
      </trkpt>
      <trkpt lat="49.3212" lon="-1.70448">
        <ele>7</ele>
        <time>2023-08-22T12:12:50.364+00:00</time>
      </trkpt>
      <trkpt lat="49.32115" lon="-1.70444">
        <ele>7</ele>
        <time>2023-08-22T12:12:54.888+00:00</time>
      </trkpt>
      <trkpt lat="49.32111" lon="-1.70441">
        <ele>7</ele>
        <time>2023-08-22T12:12:59.189+00:00</time>
      </trkpt>
      <trkpt lat="49.32107" lon="-1.70439">
        <ele>7</ele>
        <time>2023-08-22T12:13:03.308+00:00</time>
      </trkpt>
      <trkpt lat="49.32102" lon="-1.70437">
        <ele>7</ele>
        <time>2023-08-22T12:13:07.904+00:00</time>
      </trkpt>
      <trkpt lat="49.32097" lon="-1.70434">
        <ele>9</ele>
        <time>2023-08-22T12:13:12.340+00:00</time>
      </trkpt>
      <trkpt lat="49.32092" lon="-1.70431">
        <ele>9</ele>
        <time>2023-08-22T12:13:16.296+00:00</time>
      </trkpt>
      <trkpt lat="49.32089" lon="-1.70427">
        <ele>7</ele>
        <time>2023-08-22T12:13:20.370+00:00</time>
      </trkpt>
      <trkpt lat="49.32084" lon="-1.70423">
        <ele>7</ele>
        <time>2023-08-22T12:13:25.044+00:00</time>
      </trkpt>
      <trkpt lat="49.32079" lon="-1.70421">
        <ele>7</ele>
        <time>2023-08-22T12:13:29.080+00:00</time>
      </trkpt>
      <trkpt lat="49.32075" lon="-1.70416">
        <ele>7</ele>
        <time>2023-08-22T12:13:33.784+00:00</time>
      </trkpt>
      <trkpt lat="49.32073" lon="-1.70413">
        <ele>7</ele>
        <time>2023-08-22T12:13:51.285+00:00</time>
      </trkpt>
      <trkpt lat="49.32066" lon="-1.70406">
        <ele>8</ele>
        <time>2023-08-22T12:13:56.603+00:00</time>
      </trkpt>
      <trkpt lat="49.32062" lon="-1.70402">
        <ele>6</ele>
        <time>2023-08-22T12:14:00.603+00:00</time>
      </trkpt>
      <trkpt lat="49.32057" lon="-1.70399">
        <ele>6</ele>
        <time>2023-08-22T12:14:04.621+00:00</time>
      </trkpt>
      <trkpt lat="49.32052" lon="-1.70396">
        <ele>6</ele>
        <time>2023-08-22T12:14:09.138+00:00</time>
      </trkpt>
      <trkpt lat="49.32048" lon="-1.70398">
        <ele>6</ele>
        <time>2023-08-22T12:14:13.759+00:00</time>
      </trkpt>
      <trkpt lat="49.32043" lon="-1.70394">
        <ele>6</ele>
        <time>2023-08-22T12:14:17.771+00:00</time>
      </trkpt>
      <trkpt lat="49.32038" lon="-1.70389">
        <ele>8</ele>
        <time>2023-08-22T12:14:22.192+00:00</time>
      </trkpt>
      <trkpt lat="49.32034" lon="-1.70386">
        <ele>8</ele>
        <time>2023-08-22T12:14:26.568+00:00</time>
      </trkpt>
      <trkpt lat="49.32029" lon="-1.70385">
        <ele>8</ele>
        <time>2023-08-22T12:14:31.202+00:00</time>
      </trkpt>
      <trkpt lat="49.32026" lon="-1.70385">
        <ele>8</ele>
        <time>2023-08-22T12:14:35.634+00:00</time>
      </trkpt>
      <trkpt lat="49.32023" lon="-1.70384">
        <ele>8</ele>
        <time>2023-08-22T12:14:39.631+00:00</time>
      </trkpt>
      <trkpt lat="49.32021" lon="-1.70384">
        <ele>8</ele>
        <time>2023-08-22T12:14:43.705+00:00</time>
      </trkpt>
      <trkpt lat="49.32018" lon="-1.70386">
        <ele>8</ele>
        <time>2023-08-22T12:14:47.771+00:00</time>
      </trkpt>
      <trkpt lat="49.32011" lon="-1.70389">
        <ele>10</ele>
        <time>2023-08-22T12:16:37.776+00:00</time>
      </trkpt>
      <trkpt lat="49.3201" lon="-1.70389">
        <ele>10</ele>
        <time>2023-08-22T12:16:42.771+00:00</time>
      </trkpt>
      <trkpt lat="49.3201" lon="-1.7039">
        <ele>10</ele>
        <time>2023-08-22T12:16:46.776+00:00</time>
      </trkpt>
      <trkpt lat="49.32009" lon="-1.7039">
        <ele>10</ele>
        <time>2023-08-22T12:16:50.771+00:00</time>
      </trkpt>
      <trkpt lat="49.32009" lon="-1.70388">
        <ele>10</ele>
        <time>2023-08-22T12:16:55.652+00:00</time>
      </trkpt>
      <trkpt lat="49.32004" lon="-1.7038">
        <ele>10</ele>
        <time>2023-08-22T12:17:27.717+00:00</time>
      </trkpt>
      <trkpt lat="49.32002" lon="-1.70381">
        <ele>10</ele>
        <time>2023-08-22T12:17:31.725+00:00</time>
      </trkpt>
      <trkpt lat="49.32001" lon="-1.70383">
        <ele>10</ele>
        <time>2023-08-22T12:17:36.235+00:00</time>
      </trkpt>
      <trkpt lat="49.32002" lon="-1.70378">
        <ele>10</ele>
        <time>2023-08-22T12:17:40.243+00:00</time>
      </trkpt>
      <trkpt lat="49.32003" lon="-1.70375">
        <ele>10</ele>
        <time>2023-08-22T12:17:44.752+00:00</time>
      </trkpt>
      <trkpt lat="49.32001" lon="-1.70375">
        <ele>10</ele>
        <time>2023-08-22T12:17:48.762+00:00</time>
      </trkpt>
      <trkpt lat="49.32" lon="-1.70372">
        <ele>8</ele>
        <time>2023-08-22T12:17:53.372+00:00</time>
      </trkpt>
      <trkpt lat="49.31996" lon="-1.70373">
        <ele>8</ele>
        <time>2023-08-22T12:17:57.377+00:00</time>
      </trkpt>
      <trkpt lat="49.31994" lon="-1.70371">
        <ele>8</ele>
        <time>2023-08-22T12:18:01.381+00:00</time>
      </trkpt>
      <trkpt lat="49.3199" lon="-1.70372">
        <ele>8</ele>
        <time>2023-08-22T12:18:05.883+00:00</time>
      </trkpt>
      <trkpt lat="49.31987" lon="-1.70371">
        <ele>8</ele>
        <time>2023-08-22T12:18:10.524+00:00</time>
      </trkpt>
      <trkpt lat="49.31983" lon="-1.70367">
        <ele>9</ele>
        <time>2023-08-22T12:18:14.526+00:00</time>
      </trkpt>
      <trkpt lat="49.31981" lon="-1.70363">
        <ele>9</ele>
        <time>2023-08-22T12:18:18.946+00:00</time>
      </trkpt>
      <trkpt lat="49.31979" lon="-1.70361">
        <ele>9</ele>
        <time>2023-08-22T12:18:23.346+00:00</time>
      </trkpt>
      <trkpt lat="49.31978" lon="-1.70358">
        <ele>9</ele>
        <time>2023-08-22T12:18:28.286+00:00</time>
      </trkpt>
      <trkpt lat="49.31976" lon="-1.70356">
        <ele>9</ele>
        <time>2023-08-22T12:18:32.765+00:00</time>
      </trkpt>
      <trkpt lat="49.31973" lon="-1.70355">
        <ele>9</ele>
        <time>2023-08-22T12:18:36.363+00:00</time>
      </trkpt>
      <trkpt lat="49.3197" lon="-1.70353">
        <ele>9</ele>
        <time>2023-08-22T12:18:40.923+00:00</time>
      </trkpt>
      <trkpt lat="49.31966" lon="-1.70351">
        <ele>9</ele>
        <time>2023-08-22T12:18:44.961+00:00</time>
      </trkpt>
      <trkpt lat="49.31963" lon="-1.70349">
        <ele>9</ele>
        <time>2023-08-22T12:18:49.018+00:00</time>
      </trkpt>
      <trkpt lat="49.3196" lon="-1.70347">
        <ele>9</ele>
        <time>2023-08-22T12:18:52.976+00:00</time>
      </trkpt>
      <trkpt lat="49.31956" lon="-1.70347">
        <ele>9</ele>
        <time>2023-08-22T12:18:57.175+00:00</time>
      </trkpt>
      <trkpt lat="49.31953" lon="-1.70348">
        <ele>9</ele>
        <time>2023-08-22T12:19:01.915+00:00</time>
      </trkpt>
      <trkpt lat="49.31949" lon="-1.70347">
        <ele>8</ele>
        <time>2023-08-22T12:19:06.294+00:00</time>
      </trkpt>
      <trkpt lat="49.31948" lon="-1.70349">
        <ele>9</ele>
        <time>2023-08-22T12:19:10.771+00:00</time>
      </trkpt>
      <trkpt lat="49.31946" lon="-1.70351">
        <ele>9</ele>
        <time>2023-08-22T12:19:14.900+00:00</time>
      </trkpt>
      <trkpt lat="49.31942" lon="-1.70353">
        <ele>9</ele>
        <time>2023-08-22T12:19:19.287+00:00</time>
      </trkpt>
      <trkpt lat="49.31942" lon="-1.70358">
        <ele>9</ele>
        <time>2023-08-22T12:19:23.782+00:00</time>
      </trkpt>
      <trkpt lat="49.31945" lon="-1.70362">
        <ele>9</ele>
        <time>2023-08-22T12:19:27.819+00:00</time>
      </trkpt>
      <trkpt lat="49.31948" lon="-1.70365">
        <ele>9</ele>
        <time>2023-08-22T12:19:31.903+00:00</time>
      </trkpt>
      <trkpt lat="49.31947" lon="-1.70371">
        <ele>9</ele>
        <time>2023-08-22T12:19:36.580+00:00</time>
      </trkpt>
      <trkpt lat="49.31943" lon="-1.70381">
        <ele>9</ele>
        <time>2023-08-22T12:19:58.330+00:00</time>
      </trkpt>
      <trkpt lat="49.31941" lon="-1.70379">
        <ele>9</ele>
        <time>2023-08-22T12:20:02.949+00:00</time>
      </trkpt>
      <trkpt lat="49.31937" lon="-1.70378">
        <ele>9</ele>
        <time>2023-08-22T12:20:07.109+00:00</time>
      </trkpt>
      <trkpt lat="49.31937" lon="-1.70377">
        <ele>9</ele>
        <time>2023-08-22T12:20:11.490+00:00</time>
      </trkpt>
      <trkpt lat="49.31934" lon="-1.70375">
        <ele>9</ele>
        <time>2023-08-22T12:20:15.190+00:00</time>
      </trkpt>
      <trkpt lat="49.31929" lon="-1.70375">
        <ele>10</ele>
        <time>2023-08-22T12:20:19.390+00:00</time>
      </trkpt>
      <trkpt lat="49.31929" lon="-1.70375">
        <ele>10</ele>
        <time>2023-08-22T12:20:23.389+00:00</time>
      </trkpt>
      <trkpt lat="49.31927" lon="-1.70379">
        <ele>10</ele>
        <time>2023-08-22T12:20:27.784+00:00</time>
      </trkpt>
      <trkpt lat="49.31925" lon="-1.70388">
        <ele>10</ele>
        <time>2023-08-22T12:20:32.303+00:00</time>
      </trkpt>
      <trkpt lat="49.3192" lon="-1.70392">
        <ele>10</ele>
        <time>2023-08-22T12:20:36.779+00:00</time>
      </trkpt>
      <trkpt lat="49.31916" lon="-1.70392">
        <ele>10</ele>
        <time>2023-08-22T12:20:40.600+00:00</time>
      </trkpt>
      <trkpt lat="49.31912" lon="-1.70393">
        <ele>10</ele>
        <time>2023-08-22T12:20:44.804+00:00</time>
      </trkpt>
      <trkpt lat="49.31908" lon="-1.70391">
        <ele>10</ele>
        <time>2023-08-22T12:20:49.296+00:00</time>
      </trkpt>
      <trkpt lat="49.31905" lon="-1.70395">
        <ele>10</ele>
        <time>2023-08-22T12:20:53.274+00:00</time>
      </trkpt>
      <trkpt lat="49.31901" lon="-1.70399">
        <ele>8</ele>
        <time>2023-08-22T12:20:57.634+00:00</time>
      </trkpt>
      <trkpt lat="49.31899" lon="-1.70405">
        <ele>9</ele>
        <time>2023-08-22T12:21:02.172+00:00</time>
      </trkpt>
      <trkpt lat="49.31899" lon="-1.70409">
        <ele>9</ele>
        <time>2023-08-22T12:21:06.535+00:00</time>
      </trkpt>
      <trkpt lat="49.31899" lon="-1.70409">
        <ele>9</ele>
        <time>2023-08-22T12:21:10.548+00:00</time>
      </trkpt>
      <trkpt lat="49.31899" lon="-1.70409">
        <ele>9</ele>
        <time>2023-08-22T12:21:15.102+00:00</time>
      </trkpt>
      <trkpt lat="49.31899" lon="-1.70412">
        <ele>9</ele>
        <time>2023-08-22T12:21:19.112+00:00</time>
      </trkpt>
      <trkpt lat="49.31899" lon="-1.70421">
        <ele>9</ele>
        <time>2023-08-22T12:21:23.722+00:00</time>
      </trkpt>
      <trkpt lat="49.31898" lon="-1.70428">
        <ele>9</ele>
        <time>2023-08-22T12:21:28.233+00:00</time>
      </trkpt>
      <trkpt lat="49.31896" lon="-1.70432">
        <ele>9</ele>
        <time>2023-08-22T12:21:32.742+00:00</time>
      </trkpt>
      <trkpt lat="49.31893" lon="-1.70438">
        <ele>9</ele>
        <time>2023-08-22T12:21:37.751+00:00</time>
      </trkpt>
      <trkpt lat="49.31891" lon="-1.70443">
        <ele>9</ele>
        <time>2023-08-22T12:21:41.759+00:00</time>
      </trkpt>
      <trkpt lat="49.31888" lon="-1.70448">
        <ele>9</ele>
        <time>2023-08-22T12:21:46.771+00:00</time>
      </trkpt>
      <trkpt lat="49.31888" lon="-1.70452">
        <ele>9</ele>
        <time>2023-08-22T12:21:51.284+00:00</time>
      </trkpt>
      <trkpt lat="49.31887" lon="-1.70459">
        <ele>9</ele>
        <time>2023-08-22T12:21:56.297+00:00</time>
      </trkpt>
      <trkpt lat="49.31888" lon="-1.70462">
        <ele>9</ele>
        <time>2023-08-22T12:22:00.806+00:00</time>
      </trkpt>
      <trkpt lat="49.31889" lon="-1.70468">
        <ele>9</ele>
        <time>2023-08-22T12:22:05.314+00:00</time>
      </trkpt>
      <trkpt lat="49.31886" lon="-1.70471">
        <ele>9</ele>
        <time>2023-08-22T12:22:09.322+00:00</time>
      </trkpt>
      <trkpt lat="49.31883" lon="-1.70472">
        <ele>9</ele>
        <time>2023-08-22T12:22:13.833+00:00</time>
      </trkpt>
      <trkpt lat="49.31879" lon="-1.70473">
        <ele>9</ele>
        <time>2023-08-22T12:22:17.842+00:00</time>
      </trkpt>
      <trkpt lat="49.31875" lon="-1.70477">
        <ele>9</ele>
        <time>2023-08-22T12:22:22.449+00:00</time>
      </trkpt>
      <trkpt lat="49.31872" lon="-1.70484">
        <ele>12</ele>
        <time>2023-08-22T12:22:26.459+00:00</time>
      </trkpt>
      <trkpt lat="49.31868" lon="-1.70488">
        <ele>12</ele>
        <time>2023-08-22T12:22:31.040+00:00</time>
      </trkpt>
      <trkpt lat="49.31866" lon="-1.70494">
        <ele>12</ele>
        <time>2023-08-22T12:22:35.075+00:00</time>
      </trkpt>
      <trkpt lat="49.31866" lon="-1.70502">
        <ele>12</ele>
        <time>2023-08-22T12:22:39.585+00:00</time>
      </trkpt>
      <trkpt lat="49.31866" lon="-1.70507">
        <ele>12</ele>
        <time>2023-08-22T12:22:43.601+00:00</time>
      </trkpt>
      <trkpt lat="49.31865" lon="-1.70512">
        <ele>12</ele>
        <time>2023-08-22T12:22:47.610+00:00</time>
      </trkpt>
      <trkpt lat="49.31863" lon="-1.70517">
        <ele>12</ele>
        <time>2023-08-22T12:22:51.715+00:00</time>
      </trkpt>
      <trkpt lat="49.3186" lon="-1.70523">
        <ele>12</ele>
        <time>2023-08-22T12:22:56.771+00:00</time>
      </trkpt>
      <trkpt lat="49.31858" lon="-1.70529">
        <ele>12</ele>
        <time>2023-08-22T12:23:00.860+00:00</time>
      </trkpt>
      <trkpt lat="49.31856" lon="-1.70535">
        <ele>12</ele>
        <time>2023-08-22T12:23:05.041+00:00</time>
      </trkpt>
      <trkpt lat="49.31854" lon="-1.7054">
        <ele>12</ele>
        <time>2023-08-22T12:23:09.464+00:00</time>
      </trkpt>
      <trkpt lat="49.31852" lon="-1.70544">
        <ele>11</ele>
        <time>2023-08-22T12:23:13.439+00:00</time>
      </trkpt>
      <trkpt lat="49.31851" lon="-1.70547">
        <ele>11</ele>
        <time>2023-08-22T12:23:17.577+00:00</time>
      </trkpt>
      <trkpt lat="49.3185" lon="-1.70547">
        <ele>11</ele>
        <time>2023-08-22T12:23:22.297+00:00</time>
      </trkpt>
      <trkpt lat="49.31851" lon="-1.70552">
        <ele>11</ele>
        <time>2023-08-22T12:23:26.316+00:00</time>
      </trkpt>
      <trkpt lat="49.3185" lon="-1.70558">
        <ele>11</ele>
        <time>2023-08-22T12:23:30.825+00:00</time>
      </trkpt>
      <trkpt lat="49.31848" lon="-1.70564">
        <ele>11</ele>
        <time>2023-08-22T12:23:35.497+00:00</time>
      </trkpt>
      <trkpt lat="49.3184" lon="-1.70571">
        <ele>8</ele>
        <time>2023-08-22T12:24:22.819+00:00</time>
      </trkpt>
      <trkpt lat="49.3184" lon="-1.70577">
        <ele>8</ele>
        <time>2023-08-22T12:24:26.500+00:00</time>
      </trkpt>
      <trkpt lat="49.31841" lon="-1.70586">
        <ele>8</ele>
        <time>2023-08-22T12:24:30.640+00:00</time>
      </trkpt>
      <trkpt lat="49.3184" lon="-1.70595">
        <ele>8</ele>
        <time>2023-08-22T12:24:35.202+00:00</time>
      </trkpt>
      <trkpt lat="49.31836" lon="-1.70598">
        <ele>7</ele>
        <time>2023-08-22T12:24:39.483+00:00</time>
      </trkpt>
      <trkpt lat="49.31835" lon="-1.70601">
        <ele>7</ele>
        <time>2023-08-22T12:24:44.081+00:00</time>
      </trkpt>
      <trkpt lat="49.31835" lon="-1.70606">
        <ele>7</ele>
        <time>2023-08-22T12:24:48.664+00:00</time>
      </trkpt>
      <trkpt lat="49.31833" lon="-1.70611">
        <ele>7</ele>
        <time>2023-08-22T12:24:52.420+00:00</time>
      </trkpt>
      <trkpt lat="49.31829" lon="-1.70616">
        <ele>7</ele>
        <time>2023-08-22T12:24:56.939+00:00</time>
      </trkpt>
      <trkpt lat="49.31824" lon="-1.70624">
        <ele>7</ele>
        <time>2023-08-22T12:25:14.732+00:00</time>
      </trkpt>
      <trkpt lat="49.31822" lon="-1.70618">
        <ele>7</ele>
        <time>2023-08-22T12:25:18.832+00:00</time>
      </trkpt>
      <trkpt lat="49.31818" lon="-1.70615">
        <ele>7</ele>
        <time>2023-08-22T12:25:23.348+00:00</time>
      </trkpt>
      <trkpt lat="49.31813" lon="-1.70612">
        <ele>7</ele>
        <time>2023-08-22T12:25:27.544+00:00</time>
      </trkpt>
      <trkpt lat="49.31809" lon="-1.70611">
        <ele>7</ele>
        <time>2023-08-22T12:25:31.741+00:00</time>
      </trkpt>
      <trkpt lat="49.31805" lon="-1.70609">
        <ele>7</ele>
        <time>2023-08-22T12:25:35.939+00:00</time>
      </trkpt>
      <trkpt lat="49.318" lon="-1.70605">
        <ele>7</ele>
        <time>2023-08-22T12:25:40.136+00:00</time>
      </trkpt>
      <trkpt lat="49.31796" lon="-1.70602">
        <ele>7</ele>
        <time>2023-08-22T12:25:44.254+00:00</time>
      </trkpt>
      <trkpt lat="49.31792" lon="-1.70601">
        <ele>7</ele>
        <time>2023-08-22T12:25:48.211+00:00</time>
      </trkpt>
      <trkpt lat="49.31785" lon="-1.70595">
        <ele>8</ele>
        <time>2023-08-22T12:26:05.512+00:00</time>
      </trkpt>
      <trkpt lat="49.31785" lon="-1.70595">
        <ele>8</ele>
        <time>2023-08-22T12:26:10.127+00:00</time>
      </trkpt>
      <trkpt lat="49.31779" lon="-1.7059">
        <ele>8</ele>
        <time>2023-08-22T12:26:14.565+00:00</time>
      </trkpt>
      <trkpt lat="49.31775" lon="-1.70587">
        <ele>8</ele>
        <time>2023-08-22T12:26:18.761+00:00</time>
      </trkpt>
      <trkpt lat="49.31771" lon="-1.70584">
        <ele>8</ele>
        <time>2023-08-22T12:26:23.377+00:00</time>
      </trkpt>
      <trkpt lat="49.31772" lon="-1.70585">
        <ele>8</ele>
        <time>2023-08-22T12:26:27.573+00:00</time>
      </trkpt>
      <trkpt lat="49.31769" lon="-1.70583">
        <ele>8</ele>
        <time>2023-08-22T12:26:32.231+00:00</time>
      </trkpt>
      <trkpt lat="49.31765" lon="-1.70577">
        <ele>8</ele>
        <time>2023-08-22T12:26:36.491+00:00</time>
      </trkpt>
      <trkpt lat="49.31761" lon="-1.70575">
        <ele>7</ele>
        <time>2023-08-22T12:26:40.370+00:00</time>
      </trkpt>
      <trkpt lat="49.31756" lon="-1.70574">
        <ele>7</ele>
        <time>2023-08-22T12:26:45.028+00:00</time>
      </trkpt>
      <trkpt lat="49.31752" lon="-1.70569">
        <ele>7</ele>
        <time>2023-08-22T12:26:49.107+00:00</time>
      </trkpt>
      <trkpt lat="49.31749" lon="-1.70566">
        <ele>9</ele>
        <time>2023-08-22T12:26:53.305+00:00</time>
      </trkpt>
      <trkpt lat="49.31745" lon="-1.70563">
        <ele>9</ele>
        <time>2023-08-22T12:26:57.787+00:00</time>
      </trkpt>
      <trkpt lat="49.31741" lon="-1.70558">
        <ele>9</ele>
        <time>2023-08-22T12:27:02.362+00:00</time>
      </trkpt>
      <trkpt lat="49.31738" lon="-1.70557">
        <ele>9</ele>
        <time>2023-08-22T12:27:06.560+00:00</time>
      </trkpt>
      <trkpt lat="49.31733" lon="-1.70555">
        <ele>9</ele>
        <time>2023-08-22T12:27:11.716+00:00</time>
      </trkpt>
      <trkpt lat="49.31729" lon="-1.70551">
        <ele>9</ele>
        <time>2023-08-22T12:27:16.271+00:00</time>
      </trkpt>
      <trkpt lat="49.31726" lon="-1.70552">
        <ele>9</ele>
        <time>2023-08-22T12:27:20.826+00:00</time>
      </trkpt>
      <trkpt lat="49.31722" lon="-1.70547">
        <ele>9</ele>
        <time>2023-08-22T12:27:24.902+00:00</time>
      </trkpt>
      <trkpt lat="49.31719" lon="-1.70543">
        <ele>9</ele>
        <time>2023-08-22T12:27:28.998+00:00</time>
      </trkpt>
      <trkpt lat="49.31715" lon="-1.7054">
        <ele>9</ele>
        <time>2023-08-22T12:27:33.194+00:00</time>
      </trkpt>
      <trkpt lat="49.31707" lon="-1.70533">
        <ele>10</ele>
        <time>2023-08-22T12:28:04.147+00:00</time>
      </trkpt>
      <trkpt lat="49.31707" lon="-1.70533">
        <ele>10</ele>
        <time>2023-08-22T12:28:08.771+00:00</time>
      </trkpt>
      <trkpt lat="49.31706" lon="-1.70533">
        <ele>10</ele>
        <time>2023-08-22T12:28:12.771+00:00</time>
      </trkpt>
      <trkpt lat="49.31703" lon="-1.70531">
        <ele>10</ele>
        <time>2023-08-22T12:28:17.295+00:00</time>
      </trkpt>
      <trkpt lat="49.31698" lon="-1.70528">
        <ele>10</ele>
        <time>2023-08-22T12:28:21.371+00:00</time>
      </trkpt>
      <trkpt lat="49.31693" lon="-1.70524">
        <ele>10</ele>
        <time>2023-08-22T12:28:25.928+00:00</time>
      </trkpt>
      <trkpt lat="49.31689" lon="-1.7052">
        <ele>10</ele>
        <time>2023-08-22T12:28:30.125+00:00</time>
      </trkpt>
      <trkpt lat="49.31686" lon="-1.70517">
        <ele>10</ele>
        <time>2023-08-22T12:28:34.922+00:00</time>
      </trkpt>
      <trkpt lat="49.31682" lon="-1.70514">
        <ele>10</ele>
        <time>2023-08-22T12:28:38.998+00:00</time>
      </trkpt>
      <trkpt lat="49.3168" lon="-1.70514">
        <ele>9</ele>
        <time>2023-08-22T12:28:43.714+00:00</time>
      </trkpt>
      <trkpt lat="49.31679" lon="-1.70514">
        <ele>10</ele>
        <time>2023-08-22T12:28:48.344+00:00</time>
      </trkpt>
      <trkpt lat="49.31674" lon="-1.70511">
        <ele>10</ele>
        <time>2023-08-22T12:28:52.344+00:00</time>
      </trkpt>
      <trkpt lat="49.3167" lon="-1.70508">
        <ele>10</ele>
        <time>2023-08-22T12:28:56.540+00:00</time>
      </trkpt>
      <trkpt lat="49.31666" lon="-1.70505">
        <ele>10</ele>
        <time>2023-08-22T12:29:00.736+00:00</time>
      </trkpt>
      <trkpt lat="49.31663" lon="-1.70501">
        <ele>10</ele>
        <time>2023-08-22T12:29:04.771+00:00</time>
      </trkpt>
      <trkpt lat="49.3166" lon="-1.70498">
        <ele>10</ele>
        <time>2023-08-22T12:29:08.610+00:00</time>
      </trkpt>
      <trkpt lat="49.31656" lon="-1.70497">
        <ele>10</ele>
        <time>2023-08-22T12:29:12.508+00:00</time>
      </trkpt>
      <trkpt lat="49.31652" lon="-1.70496">
        <ele>8</ele>
        <time>2023-08-22T12:29:17.184+00:00</time>
      </trkpt>
      <trkpt lat="49.31648" lon="-1.70493">
        <ele>8</ele>
        <time>2023-08-22T12:29:21.260+00:00</time>
      </trkpt>
      <trkpt lat="49.31645" lon="-1.70489">
        <ele>8</ele>
        <time>2023-08-22T12:29:25.810+00:00</time>
      </trkpt>
      <trkpt lat="49.31642" lon="-1.70486">
        <ele>10</ele>
        <time>2023-08-22T12:29:29.369+00:00</time>
      </trkpt>
      <trkpt lat="49.31638" lon="-1.70482">
        <ele>10</ele>
        <time>2023-08-22T12:29:34.163+00:00</time>
      </trkpt>
      <trkpt lat="49.31634" lon="-1.70481">
        <ele>10</ele>
        <time>2023-08-22T12:29:38.771+00:00</time>
      </trkpt>
      <trkpt lat="49.3163" lon="-1.7048">
        <ele>10</ele>
        <time>2023-08-22T12:29:43.345+00:00</time>
      </trkpt>
      <trkpt lat="49.31626" lon="-1.70478">
        <ele>10</ele>
        <time>2023-08-22T12:29:47.348+00:00</time>
      </trkpt>
      <trkpt lat="49.31622" lon="-1.70479">
        <ele>9</ele>
        <time>2023-08-22T12:29:51.543+00:00</time>
      </trkpt>
      <trkpt lat="49.31618" lon="-1.70477">
        <ele>9</ele>
        <time>2023-08-22T12:29:55.617+00:00</time>
      </trkpt>
      <trkpt lat="49.31614" lon="-1.70473">
        <ele>9</ele>
        <time>2023-08-22T12:30:00.051+00:00</time>
      </trkpt>
      <trkpt lat="49.31611" lon="-1.70468">
        <ele>9</ele>
        <time>2023-08-22T12:30:04.585+00:00</time>
      </trkpt>
      <trkpt lat="49.31608" lon="-1.70463">
        <ele>9</ele>
        <time>2023-08-22T12:30:08.740+00:00</time>
      </trkpt>
      <trkpt lat="49.31604" lon="-1.70462">
        <ele>9</ele>
        <time>2023-08-22T12:30:12.936+00:00</time>
      </trkpt>
      <trkpt lat="49.31599" lon="-1.70461">
        <ele>9</ele>
        <time>2023-08-22T12:30:17.552+00:00</time>
      </trkpt>
      <trkpt lat="49.31595" lon="-1.7046">
        <ele>9</ele>
        <time>2023-08-22T12:30:21.727+00:00</time>
      </trkpt>
      <trkpt lat="49.31591" lon="-1.70457">
        <ele>10</ele>
        <time>2023-08-22T12:30:25.844+00:00</time>
      </trkpt>
      <trkpt lat="49.31587" lon="-1.70453">
        <ele>10</ele>
        <time>2023-08-22T12:30:29.976+00:00</time>
      </trkpt>
      <trkpt lat="49.31583" lon="-1.70449">
        <ele>10</ele>
        <time>2023-08-22T12:30:34.169+00:00</time>
      </trkpt>
      <trkpt lat="49.31579" lon="-1.70446">
        <ele>10</ele>
        <time>2023-08-22T12:30:38.721+00:00</time>
      </trkpt>
      <trkpt lat="49.31576" lon="-1.70444">
        <ele>10</ele>
        <time>2023-08-22T12:30:42.822+00:00</time>
      </trkpt>
      <trkpt lat="49.31571" lon="-1.70441">
        <ele>10</ele>
        <time>2023-08-22T12:30:47.347+00:00</time>
      </trkpt>
      <trkpt lat="49.31567" lon="-1.70442">
        <ele>7</ele>
        <time>2023-08-22T12:30:52.380+00:00</time>
      </trkpt>
      <trkpt lat="49.31563" lon="-1.70443">
        <ele>7</ele>
        <time>2023-08-22T12:30:56.933+00:00</time>
      </trkpt>
      <trkpt lat="49.3155" lon="-1.70444">
        <ele>7</ele>
        <time>2023-08-22T12:31:18.126+00:00</time>
      </trkpt>
      <trkpt lat="49.31548" lon="-1.70449">
        <ele>7</ele>
        <time>2023-08-22T12:31:22.771+00:00</time>
      </trkpt>
      <trkpt lat="49.31543" lon="-1.70453">
        <ele>7</ele>
        <time>2023-08-22T12:31:27.185+00:00</time>
      </trkpt>
      <trkpt lat="49.31539" lon="-1.70459">
        <ele>4</ele>
        <time>2023-08-22T12:31:31.664+00:00</time>
      </trkpt>
      <trkpt lat="49.31535" lon="-1.70465">
        <ele>4</ele>
        <time>2023-08-22T12:31:36.217+00:00</time>
      </trkpt>
      <trkpt lat="49.31532" lon="-1.70471">
        <ele>4</ele>
        <time>2023-08-22T12:31:40.352+00:00</time>
      </trkpt>
      <trkpt lat="49.3153" lon="-1.70477">
        <ele>4</ele>
        <time>2023-08-22T12:31:44.545+00:00</time>
      </trkpt>
      <trkpt lat="49.31527" lon="-1.70481">
        <ele>4</ele>
        <time>2023-08-22T12:31:48.739+00:00</time>
      </trkpt>
      <trkpt lat="49.31526" lon="-1.70487">
        <ele>8</ele>
        <time>2023-08-22T12:31:52.933+00:00</time>
      </trkpt>
      <trkpt lat="49.31523" lon="-1.70494">
        <ele>7.9</ele>
        <time>2023-08-22T12:31:57.127+00:00</time>
      </trkpt>
      <trkpt lat="49.31522" lon="-1.70501">
        <ele>7.8</ele>
        <time>2023-08-22T12:32:01.222+00:00</time>
      </trkpt>
      <trkpt lat="49.3152" lon="-1.70509">
        <ele>7.5</ele>
        <time>2023-08-22T12:32:05.776+00:00</time>
      </trkpt>
      <trkpt lat="49.31519" lon="-1.70516">
        <ele>7.3</ele>
        <time>2023-08-22T12:32:10.420+00:00</time>
      </trkpt>
      <trkpt lat="49.31518" lon="-1.70521">
        <ele>7.2</ele>
        <time>2023-08-22T12:32:14.429+00:00</time>
      </trkpt>
      <trkpt lat="49.31519" lon="-1.70529">
        <ele>7</ele>
        <time>2023-08-22T12:32:18.436+00:00</time>
      </trkpt>
      <trkpt lat="49.3152" lon="-1.70529">
        <ele>7</ele>
        <time>2023-08-22T12:32:22.443+00:00</time>
      </trkpt>
      <trkpt lat="49.31521" lon="-1.70528">
        <ele>7</ele>
        <time>2023-08-22T12:32:26.951+00:00</time>
      </trkpt>
      <trkpt lat="49.31525" lon="-1.70531">
        <ele>7</ele>
        <time>2023-08-22T12:32:31.458+00:00</time>
      </trkpt>
      <trkpt lat="49.31526" lon="-1.70541">
        <ele>7</ele>
        <time>2023-08-22T12:32:35.965+00:00</time>
      </trkpt>
      <trkpt lat="49.31529" lon="-1.7055">
        <ele>7</ele>
        <time>2023-08-22T12:32:40.471+00:00</time>
      </trkpt>
      <trkpt lat="49.3153" lon="-1.70556">
        <ele>7</ele>
        <time>2023-08-22T12:32:44.475+00:00</time>
      </trkpt>
      <trkpt lat="49.31529" lon="-1.70561">
        <ele>7.2</ele>
        <time>2023-08-22T12:32:48.481+00:00</time>
      </trkpt>
      <trkpt lat="49.31528" lon="-1.70567">
        <ele>7.4</ele>
        <time>2023-08-22T12:33:21.157+00:00</time>
      </trkpt>
      <trkpt lat="49.31527" lon="-1.70568">
        <ele>7.4</ele>
        <time>2023-08-22T12:33:25.669+00:00</time>
      </trkpt>
      <trkpt lat="49.31524" lon="-1.70566">
        <ele>7.3</ele>
        <time>2023-08-22T12:33:29.678+00:00</time>
      </trkpt>
      <trkpt lat="49.31519" lon="-1.70558">
        <ele>7.1</ele>
        <time>2023-08-22T12:33:34.835+00:00</time>
      </trkpt>
      <trkpt lat="49.31516" lon="-1.70554">
        <ele>7</ele>
        <time>2023-08-22T12:33:38.494+00:00</time>
      </trkpt>
      <trkpt lat="49.31512" lon="-1.70541">
        <ele>7</ele>
        <time>2023-08-22T12:34:09.655+00:00</time>
      </trkpt>
      <trkpt lat="49.31511" lon="-1.70541">
        <ele>7</ele>
        <time>2023-08-22T12:34:14.777+00:00</time>
      </trkpt>
      <trkpt lat="49.3151" lon="-1.70539">
        <ele>7</ele>
        <time>2023-08-22T12:34:18.778+00:00</time>
      </trkpt>
      <trkpt lat="49.31512" lon="-1.70537">
        <ele>7</ele>
        <time>2023-08-22T12:34:23.697+00:00</time>
      </trkpt>
      <trkpt lat="49.31514" lon="-1.70526">
        <ele>7</ele>
        <time>2023-08-22T12:34:28.310+00:00</time>
      </trkpt>
      <trkpt lat="49.31516" lon="-1.70525">
        <ele>7.1</ele>
        <time>2023-08-22T12:34:32.337+00:00</time>
      </trkpt>
      <trkpt lat="49.31517" lon="-1.70525">
        <ele>7.1</ele>
        <time>2023-08-22T12:34:36.852+00:00</time>
      </trkpt>
      <trkpt lat="49.31517" lon="-1.70517">
        <ele>7.2</ele>
        <time>2023-08-22T12:34:41.375+00:00</time>
      </trkpt>
      <trkpt lat="49.31517" lon="-1.70509">
        <ele>7.4</ele>
        <time>2023-08-22T12:34:46.399+00:00</time>
      </trkpt>
      <trkpt lat="49.31522" lon="-1.70494">
        <ele>7.8</ele>
        <time>2023-08-22T12:35:00.591+00:00</time>
      </trkpt>
      <trkpt lat="49.31523" lon="-1.7049">
        <ele>7.9</ele>
        <time>2023-08-22T12:35:05.010+00:00</time>
      </trkpt>
      <trkpt lat="49.31524" lon="-1.70484">
        <ele>4</ele>
        <time>2023-08-22T12:35:09.540+00:00</time>
      </trkpt>
      <trkpt lat="49.31527" lon="-1.70478">
        <ele>4</ele>
        <time>2023-08-22T12:35:13.626+00:00</time>
      </trkpt>
      <trkpt lat="49.31528" lon="-1.70472">
        <ele>4</ele>
        <time>2023-08-22T12:35:17.564+00:00</time>
      </trkpt>
      <trkpt lat="49.31529" lon="-1.70464">
        <ele>4</ele>
        <time>2023-08-22T12:35:22.360+00:00</time>
      </trkpt>
      <trkpt lat="49.31532" lon="-1.70458">
        <ele>5</ele>
        <time>2023-08-22T12:35:27.036+00:00</time>
      </trkpt>
      <trkpt lat="49.31534" lon="-1.70452">
        <ele>5</ele>
        <time>2023-08-22T12:35:30.973+00:00</time>
      </trkpt>
      <trkpt lat="49.31536" lon="-1.70446">
        <ele>5</ele>
        <time>2023-08-22T12:35:35.609+00:00</time>
      </trkpt>
      <trkpt lat="49.31539" lon="-1.70439">
        <ele>5</ele>
        <time>2023-08-22T12:35:40.125+00:00</time>
      </trkpt>
      <trkpt lat="49.3154" lon="-1.70433">
        <ele>5</ele>
        <time>2023-08-22T12:35:44.701+00:00</time>
      </trkpt>
      <trkpt lat="49.31542" lon="-1.70432">
        <ele>7</ele>
        <time>2023-08-22T12:35:48.696+00:00</time>
      </trkpt>
      <trkpt lat="49.31542" lon="-1.70423">
        <ele>8</ele>
        <time>2023-08-22T12:35:53.369+00:00</time>
      </trkpt>
      <trkpt lat="49.31543" lon="-1.70418">
        <ele>8</ele>
        <time>2023-08-22T12:35:57.564+00:00</time>
      </trkpt>
      <trkpt lat="49.31543" lon="-1.7041">
        <ele>8</ele>
        <time>2023-08-22T12:36:02.238+00:00</time>
      </trkpt>
      <trkpt lat="49.31543" lon="-1.70402">
        <ele>9</ele>
        <time>2023-08-22T12:36:06.792+00:00</time>
      </trkpt>
      <trkpt lat="49.31544" lon="-1.70395">
        <ele>9</ele>
        <time>2023-08-22T12:36:11.346+00:00</time>
      </trkpt>
      <trkpt lat="49.31542" lon="-1.70388">
        <ele>9</ele>
        <time>2023-08-22T12:36:15.771+00:00</time>
      </trkpt>
      <trkpt lat="49.31539" lon="-1.70383">
        <ele>8</ele>
        <time>2023-08-22T12:36:20.242+00:00</time>
      </trkpt>
      <trkpt lat="49.31534" lon="-1.70381">
        <ele>8</ele>
        <time>2023-08-22T12:36:24.280+00:00</time>
      </trkpt>
      <trkpt lat="49.3153" lon="-1.70379">
        <ele>8</ele>
        <time>2023-08-22T12:36:28.771+00:00</time>
      </trkpt>
      <trkpt lat="49.31526" lon="-1.70375">
        <ele>8</ele>
        <time>2023-08-22T12:36:32.771+00:00</time>
      </trkpt>
      <trkpt lat="49.31522" lon="-1.70372">
        <ele>9</ele>
        <time>2023-08-22T12:36:37.191+00:00</time>
      </trkpt>
      <trkpt lat="49.31517" lon="-1.70367">
        <ele>9</ele>
        <time>2023-08-22T12:36:41.869+00:00</time>
      </trkpt>
      <trkpt lat="49.31513" lon="-1.70365">
        <ele>8</ele>
        <time>2023-08-22T12:36:45.987+00:00</time>
      </trkpt>
      <trkpt lat="49.31509" lon="-1.70362">
        <ele>8</ele>
        <time>2023-08-22T12:36:50.184+00:00</time>
      </trkpt>
      <trkpt lat="49.31508" lon="-1.70359">
        <ele>8</ele>
        <time>2023-08-22T12:36:54.260+00:00</time>
      </trkpt>
      <trkpt lat="49.31504" lon="-1.70357">
        <ele>8</ele>
        <time>2023-08-22T12:36:58.297+00:00</time>
      </trkpt>
      <trkpt lat="49.31499" lon="-1.70355">
        <ele>8</ele>
        <time>2023-08-22T12:37:02.375+00:00</time>
      </trkpt>
      <trkpt lat="49.31496" lon="-1.7035">
        <ele>8</ele>
        <time>2023-08-22T12:37:06.872+00:00</time>
      </trkpt>
      <trkpt lat="49.31491" lon="-1.70347">
        <ele>9</ele>
        <time>2023-08-22T12:37:11.573+00:00</time>
      </trkpt>
      <trkpt lat="49.31487" lon="-1.70343">
        <ele>9</ele>
        <time>2023-08-22T12:37:15.453+00:00</time>
      </trkpt>
      <trkpt lat="49.31482" lon="-1.70338">
        <ele>8</ele>
        <time>2023-08-22T12:37:20.313+00:00</time>
      </trkpt>
      <trkpt lat="49.31478" lon="-1.70335">
        <ele>8</ele>
        <time>2023-08-22T12:37:24.331+00:00</time>
      </trkpt>
      <trkpt lat="49.31473" lon="-1.70332">
        <ele>8</ele>
        <time>2023-08-22T12:37:28.528+00:00</time>
      </trkpt>
      <trkpt lat="49.31469" lon="-1.70328">
        <ele>8</ele>
        <time>2023-08-22T12:37:32.560+00:00</time>
      </trkpt>
      <trkpt lat="49.31464" lon="-1.70324">
        <ele>8</ele>
        <time>2023-08-22T12:37:36.624+00:00</time>
      </trkpt>
      <trkpt lat="49.31462" lon="-1.7032">
        <ele>8</ele>
        <time>2023-08-22T12:37:40.581+00:00</time>
      </trkpt>
      <trkpt lat="49.31456" lon="-1.70316">
        <ele>9</ele>
        <time>2023-08-22T12:37:45.159+00:00</time>
      </trkpt>
      <trkpt lat="49.31451" lon="-1.70313">
        <ele>9</ele>
        <time>2023-08-22T12:37:49.727+00:00</time>
      </trkpt>
      <trkpt lat="49.31447" lon="-1.7031">
        <ele>9</ele>
        <time>2023-08-22T12:37:53.710+00:00</time>
      </trkpt>
      <trkpt lat="49.31443" lon="-1.70307">
        <ele>9</ele>
        <time>2023-08-22T12:37:57.666+00:00</time>
      </trkpt>
      <trkpt lat="49.31438" lon="-1.70303">
        <ele>9</ele>
        <time>2023-08-22T12:38:02.284+00:00</time>
      </trkpt>
      <trkpt lat="49.31434" lon="-1.70299">
        <ele>9</ele>
        <time>2023-08-22T12:38:06.361+00:00</time>
      </trkpt>
      <trkpt lat="49.3143" lon="-1.70294">
        <ele>9</ele>
        <time>2023-08-22T12:38:10.917+00:00</time>
      </trkpt>
      <trkpt lat="49.31426" lon="-1.7029">
        <ele>11</ele>
        <time>2023-08-22T12:38:15.096+00:00</time>
      </trkpt>
      <trkpt lat="49.31422" lon="-1.70289">
        <ele>11</ele>
        <time>2023-08-22T12:38:19.173+00:00</time>
      </trkpt>
      <trkpt lat="49.31418" lon="-1.70284">
        <ele>11</ele>
        <time>2023-08-22T12:38:23.350+00:00</time>
      </trkpt>
      <trkpt lat="49.31415" lon="-1.70279">
        <ele>11</ele>
        <time>2023-08-22T12:38:27.367+00:00</time>
      </trkpt>
      <trkpt lat="49.31411" lon="-1.70274">
        <ele>11</ele>
        <time>2023-08-22T12:38:31.545+00:00</time>
      </trkpt>
      <trkpt lat="49.31407" lon="-1.70273">
        <ele>11</ele>
        <time>2023-08-22T12:38:35.563+00:00</time>
      </trkpt>
      <trkpt lat="49.31402" lon="-1.70268">
        <ele>11</ele>
        <time>2023-08-22T12:38:40.300+00:00</time>
      </trkpt>
      <trkpt lat="49.31398" lon="-1.70262">
        <ele>11</ele>
        <time>2023-08-22T12:38:44.377+00:00</time>
      </trkpt>
      <trkpt lat="49.31394" lon="-1.70256">
        <ele>11</ele>
        <time>2023-08-22T12:38:49.175+00:00</time>
      </trkpt>
      <trkpt lat="49.3139" lon="-1.70252">
        <ele>11</ele>
        <time>2023-08-22T12:38:53.371+00:00</time>
      </trkpt>
      <trkpt lat="49.3139" lon="-1.70248">
        <ele>11</ele>
        <time>2023-08-22T12:38:57.389+00:00</time>
      </trkpt>
      <trkpt lat="49.3139" lon="-1.70243">
        <ele>11</ele>
        <time>2023-08-22T12:39:01.946+00:00</time>
      </trkpt>
      <trkpt lat="49.31392" lon="-1.70237">
        <ele>11</ele>
        <time>2023-08-22T12:39:05.904+00:00</time>
      </trkpt>
      <trkpt lat="49.31394" lon="-1.70232">
        <ele>11</ele>
        <time>2023-08-22T12:39:09.981+00:00</time>
      </trkpt>
      <trkpt lat="49.31397" lon="-1.70227">
        <ele>11</ele>
        <time>2023-08-22T12:39:13.960+00:00</time>
      </trkpt>
      <trkpt lat="49.314" lon="-1.70221">
        <ele>11</ele>
        <time>2023-08-22T12:39:18.137+00:00</time>
      </trkpt>
      <trkpt lat="49.31402" lon="-1.70213">
        <ele>11</ele>
        <time>2023-08-22T12:39:22.334+00:00</time>
      </trkpt>
      <trkpt lat="49.31405" lon="-1.70207">
        <ele>9</ele>
        <time>2023-08-22T12:39:26.511+00:00</time>
      </trkpt>
      <trkpt lat="49.31409" lon="-1.70203">
        <ele>9</ele>
        <time>2023-08-22T12:39:31.127+00:00</time>
      </trkpt>
      <trkpt lat="49.31412" lon="-1.70197">
        <ele>9</ele>
        <time>2023-08-22T12:39:35.323+00:00</time>
      </trkpt>
      <trkpt lat="49.31413" lon="-1.7019">
        <ele>9</ele>
        <time>2023-08-22T12:39:39.519+00:00</time>
      </trkpt>
      <trkpt lat="49.31415" lon="-1.70182">
        <ele>9</ele>
        <time>2023-08-22T12:39:43.898+00:00</time>
      </trkpt>
      <trkpt lat="49.31418" lon="-1.70175">
        <ele>9</ele>
        <time>2023-08-22T12:39:48.298+00:00</time>
      </trkpt>
      <trkpt lat="49.31418" lon="-1.70166">
        <ele>9</ele>
        <time>2023-08-22T12:39:52.756+00:00</time>
      </trkpt>
      <trkpt lat="49.31418" lon="-1.70159">
        <ele>9</ele>
        <time>2023-08-22T12:39:56.355+00:00</time>
      </trkpt>
      <trkpt lat="49.31415" lon="-1.70158">
        <ele>9</ele>
        <time>2023-08-22T12:40:01.046+00:00</time>
      </trkpt>
      <trkpt lat="49.31411" lon="-1.70157">
        <ele>9</ele>
        <time>2023-08-22T12:40:04.950+00:00</time>
      </trkpt>
      <trkpt lat="49.31406" lon="-1.70155">
        <ele>9</ele>
        <time>2023-08-22T12:40:09.725+00:00</time>
      </trkpt>
      <trkpt lat="49.31401" lon="-1.70151">
        <ele>9</ele>
        <time>2023-08-22T12:40:13.920+00:00</time>
      </trkpt>
      <trkpt lat="49.31397" lon="-1.70148">
        <ele>9</ele>
        <time>2023-08-22T12:40:17.977+00:00</time>
      </trkpt>
      <trkpt lat="49.31392" lon="-1.70144">
        <ele>9</ele>
        <time>2023-08-22T12:40:22.614+00:00</time>
      </trkpt>
      <trkpt lat="49.31388" lon="-1.7014">
        <ele>9</ele>
        <time>2023-08-22T12:40:26.771+00:00</time>
      </trkpt>
      <trkpt lat="49.31383" lon="-1.70137">
        <ele>9</ele>
        <time>2023-08-22T12:40:30.694+00:00</time>
      </trkpt>
      <trkpt lat="49.31378" lon="-1.70133">
        <ele>9</ele>
        <time>2023-08-22T12:40:35.027+00:00</time>
      </trkpt>
      <trkpt lat="49.31373" lon="-1.7013">
        <ele>9</ele>
        <time>2023-08-22T12:40:39.331+00:00</time>
      </trkpt>
      <trkpt lat="49.31368" lon="-1.70126">
        <ele>9</ele>
        <time>2023-08-22T12:40:43.799+00:00</time>
      </trkpt>
      <trkpt lat="49.31364" lon="-1.70123">
        <ele>9</ele>
        <time>2023-08-22T12:40:47.805+00:00</time>
      </trkpt>
      <trkpt lat="49.3136" lon="-1.70119">
        <ele>9</ele>
        <time>2023-08-22T12:40:51.818+00:00</time>
      </trkpt>
      <trkpt lat="49.31355" lon="-1.70118">
        <ele>9</ele>
        <time>2023-08-22T12:40:55.958+00:00</time>
      </trkpt>
      <trkpt lat="49.3135" lon="-1.70114">
        <ele>9</ele>
        <time>2023-08-22T12:41:00.396+00:00</time>
      </trkpt>
      <trkpt lat="49.31346" lon="-1.70111">
        <ele>9</ele>
        <time>2023-08-22T12:41:04.353+00:00</time>
      </trkpt>
      <trkpt lat="49.31342" lon="-1.70107">
        <ele>9</ele>
        <time>2023-08-22T12:41:08.819+00:00</time>
      </trkpt>
      <trkpt lat="49.31337" lon="-1.70104">
        <ele>9</ele>
        <time>2023-08-22T12:41:12.812+00:00</time>
      </trkpt>
      <trkpt lat="49.31333" lon="-1.701">
        <ele>9</ele>
        <time>2023-08-22T12:41:17.287+00:00</time>
      </trkpt>
      <trkpt lat="49.31322" lon="-1.70084">
        <ele>9</ele>
        <time>2023-08-22T12:41:56.416+00:00</time>
      </trkpt>
      <trkpt lat="49.31321" lon="-1.70079">
        <ele>9</ele>
        <time>2023-08-22T12:42:00.926+00:00</time>
      </trkpt>
      <trkpt lat="49.31319" lon="-1.70071">
        <ele>7</ele>
        <time>2023-08-22T12:42:05.436+00:00</time>
      </trkpt>
      <trkpt lat="49.31321" lon="-1.70062">
        <ele>9</ele>
        <time>2023-08-22T12:42:09.445+00:00</time>
      </trkpt>
      <trkpt lat="49.31323" lon="-1.70054">
        <ele>9</ele>
        <time>2023-08-22T12:42:13.956+00:00</time>
      </trkpt>
      <trkpt lat="49.31325" lon="-1.70047">
        <ele>9</ele>
        <time>2023-08-22T12:42:18.166+00:00</time>
      </trkpt>
      <trkpt lat="49.31327" lon="-1.70041">
        <ele>8</ele>
        <time>2023-08-22T12:42:22.175+00:00</time>
      </trkpt>
      <trkpt lat="49.3133" lon="-1.70034">
        <ele>8</ele>
        <time>2023-08-22T12:42:26.684+00:00</time>
      </trkpt>
      <trkpt lat="49.31332" lon="-1.70033">
        <ele>8</ele>
        <time>2023-08-22T12:42:30.687+00:00</time>
      </trkpt>
      <trkpt lat="49.31333" lon="-1.70026">
        <ele>8</ele>
        <time>2023-08-22T12:42:34.709+00:00</time>
      </trkpt>
      <trkpt lat="49.31336" lon="-1.70021">
        <ele>8</ele>
        <time>2023-08-22T12:42:39.129+00:00</time>
      </trkpt>
      <trkpt lat="49.31333" lon="-1.70014">
        <ele>8</ele>
        <time>2023-08-22T12:42:43.498+00:00</time>
      </trkpt>
      <trkpt lat="49.31333" lon="-1.70009">
        <ele>8</ele>
        <time>2023-08-22T12:42:47.524+00:00</time>
      </trkpt>
      <trkpt lat="49.31344" lon="-1.69999">
        <ele>8</ele>
        <time>2023-08-22T12:44:33.768+00:00</time>
      </trkpt>
      <trkpt lat="49.31342" lon="-1.6999">
        <ele>8</ele>
        <time>2023-08-22T12:44:37.880+00:00</time>
      </trkpt>
      <trkpt lat="49.3134" lon="-1.69984">
        <ele>8</ele>
        <time>2023-08-22T12:44:42.388+00:00</time>
      </trkpt>
      <trkpt lat="49.31346" lon="-1.69976">
        <ele>8</ele>
        <time>2023-08-22T12:44:46.492+00:00</time>
      </trkpt>
      <trkpt lat="49.31354" lon="-1.6996">
        <ele>8</ele>
        <time>2023-08-22T12:44:50.494+00:00</time>
      </trkpt>
      <trkpt lat="49.31358" lon="-1.69951">
        <ele>7</ele>
        <time>2023-08-22T12:44:55.096+00:00</time>
      </trkpt>
      <trkpt lat="49.3136" lon="-1.69943">
        <ele>7</ele>
        <time>2023-08-22T12:44:59.700+00:00</time>
      </trkpt>
      <trkpt lat="49.31362" lon="-1.69937">
        <ele>7</ele>
        <time>2023-08-22T12:45:03.703+00:00</time>
      </trkpt>
      <trkpt lat="49.31364" lon="-1.69931">
        <ele>7</ele>
        <time>2023-08-22T12:45:07.986+00:00</time>
      </trkpt>
      <trkpt lat="49.31367" lon="-1.69926">
        <ele>7</ele>
        <time>2023-08-22T12:45:12.766+00:00</time>
      </trkpt>
      <trkpt lat="49.31368" lon="-1.69917">
        <ele>7</ele>
        <time>2023-08-22T12:45:17.687+00:00</time>
      </trkpt>
      <trkpt lat="49.3137" lon="-1.69909">
        <ele>7</ele>
        <time>2023-08-22T12:45:21.868+00:00</time>
      </trkpt>
      <trkpt lat="49.31373" lon="-1.69903">
        <ele>7</ele>
        <time>2023-08-22T12:45:26.748+00:00</time>
      </trkpt>
      <trkpt lat="49.31373" lon="-1.69896">
        <ele>7</ele>
        <time>2023-08-22T12:45:31.188+00:00</time>
      </trkpt>
      <trkpt lat="49.31375" lon="-1.69889">
        <ele>8</ele>
        <time>2023-08-22T12:45:35.167+00:00</time>
      </trkpt>
      <trkpt lat="49.31378" lon="-1.69882">
        <ele>8</ele>
        <time>2023-08-22T12:45:39.567+00:00</time>
      </trkpt>
      <trkpt lat="49.3138" lon="-1.69874">
        <ele>8</ele>
        <time>2023-08-22T12:45:44.006+00:00</time>
      </trkpt>
      <trkpt lat="49.31383" lon="-1.69868">
        <ele>8</ele>
        <time>2023-08-22T12:45:48.028+00:00</time>
      </trkpt>
      <trkpt lat="49.31384" lon="-1.69861">
        <ele>8</ele>
        <time>2023-08-22T12:45:52.368+00:00</time>
      </trkpt>
      <trkpt lat="49.31385" lon="-1.69854">
        <ele>8</ele>
        <time>2023-08-22T12:45:56.347+00:00</time>
      </trkpt>
      <trkpt lat="49.31386" lon="-1.69848">
        <ele>8</ele>
        <time>2023-08-22T12:46:00.545+00:00</time>
      </trkpt>
      <trkpt lat="49.31386" lon="-1.69843">
        <ele>9</ele>
        <time>2023-08-22T12:46:04.743+00:00</time>
      </trkpt>
      <trkpt lat="49.31389" lon="-1.69837">
        <ele>9</ele>
        <time>2023-08-22T12:46:09.164+00:00</time>
      </trkpt>
      <trkpt lat="49.31392" lon="-1.6983">
        <ele>9</ele>
        <time>2023-08-22T12:46:13.304+00:00</time>
      </trkpt>
      <trkpt lat="49.31394" lon="-1.69823">
        <ele>9</ele>
        <time>2023-08-22T12:46:17.744+00:00</time>
      </trkpt>
      <trkpt lat="49.31396" lon="-1.69817">
        <ele>9</ele>
        <time>2023-08-22T12:46:21.771+00:00</time>
      </trkpt>
      <trkpt lat="49.31399" lon="-1.69811">
        <ele>9</ele>
        <time>2023-08-22T12:46:25.801+00:00</time>
      </trkpt>
      <trkpt lat="49.314" lon="-1.69804">
        <ele>9</ele>
        <time>2023-08-22T12:46:30.305+00:00</time>
      </trkpt>
      <trkpt lat="49.31402" lon="-1.69797">
        <ele>9</ele>
        <time>2023-08-22T12:46:34.584+00:00</time>
      </trkpt>
      <trkpt lat="49.31405" lon="-1.69792">
        <ele>10</ele>
        <time>2023-08-22T12:46:39.105+00:00</time>
      </trkpt>
      <trkpt lat="49.31407" lon="-1.69786">
        <ele>10</ele>
        <time>2023-08-22T12:46:43.125+00:00</time>
      </trkpt>
      <trkpt lat="49.31407" lon="-1.69778">
        <ele>10</ele>
        <time>2023-08-22T12:46:47.302+00:00</time>
      </trkpt>
      <trkpt lat="49.31409" lon="-1.6977">
        <ele>10</ele>
        <time>2023-08-22T12:46:51.379+00:00</time>
      </trkpt>
      <trkpt lat="49.31411" lon="-1.69762">
        <ele>10</ele>
        <time>2023-08-22T12:46:56.116+00:00</time>
      </trkpt>
      <trkpt lat="49.31414" lon="-1.69755">
        <ele>10</ele>
        <time>2023-08-22T12:47:00.673+00:00</time>
      </trkpt>
      <trkpt lat="49.31418" lon="-1.6975">
        <ele>10</ele>
        <time>2023-08-22T12:47:04.631+00:00</time>
      </trkpt>
      <trkpt lat="49.31422" lon="-1.69747">
        <ele>10</ele>
        <time>2023-08-22T12:47:09.011+00:00</time>
      </trkpt>
      <trkpt lat="49.31424" lon="-1.69743">
        <ele>10</ele>
        <time>2023-08-22T12:47:13.291+00:00</time>
      </trkpt>
      <trkpt lat="49.31426" lon="-1.69737">
        <ele>10</ele>
        <time>2023-08-22T12:47:17.370+00:00</time>
      </trkpt>
      <trkpt lat="49.31429" lon="-1.69731">
        <ele>10</ele>
        <time>2023-08-22T12:47:21.813+00:00</time>
      </trkpt>
      <trkpt lat="49.31433" lon="-1.69726">
        <ele>11</ele>
        <time>2023-08-22T12:47:25.847+00:00</time>
      </trkpt>
      <trkpt lat="49.31438" lon="-1.69721">
        <ele>11</ele>
        <time>2023-08-22T12:47:30.345+00:00</time>
      </trkpt>
      <trkpt lat="49.31442" lon="-1.69717">
        <ele>11</ele>
        <time>2023-08-22T12:47:34.406+00:00</time>
      </trkpt>
      <trkpt lat="49.31447" lon="-1.69714">
        <ele>11</ele>
        <time>2023-08-22T12:47:38.403+00:00</time>
      </trkpt>
      <trkpt lat="49.31451" lon="-1.69713">
        <ele>11</ele>
        <time>2023-08-22T12:47:42.360+00:00</time>
      </trkpt>
      <trkpt lat="49.31451" lon="-1.69715">
        <ele>11</ele>
        <time>2023-08-22T12:47:47.490+00:00</time>
      </trkpt>
      <trkpt lat="49.31451" lon="-1.69716">
        <ele>11</ele>
        <time>2023-08-22T12:47:52.505+00:00</time>
      </trkpt>
      <trkpt lat="49.31451" lon="-1.69715">
        <ele>11</ele>
        <time>2023-08-22T12:47:56.514+00:00</time>
      </trkpt>
      <trkpt lat="49.31453" lon="-1.69708">
        <ele>11</ele>
        <time>2023-08-22T12:48:00.624+00:00</time>
      </trkpt>
      <trkpt lat="49.31455" lon="-1.697">
        <ele>11</ele>
        <time>2023-08-22T12:48:05.133+00:00</time>
      </trkpt>
      <trkpt lat="49.31459" lon="-1.69694">
        <ele>11</ele>
        <time>2023-08-22T12:48:09.639+00:00</time>
      </trkpt>
      <trkpt lat="49.31465" lon="-1.69688">
        <ele>11</ele>
        <time>2023-08-22T12:48:14.039+00:00</time>
      </trkpt>
      <trkpt lat="49.3147" lon="-1.69683">
        <ele>11</ele>
        <time>2023-08-22T12:48:18.501+00:00</time>
      </trkpt>
      <trkpt lat="49.31475" lon="-1.69678">
        <ele>11</ele>
        <time>2023-08-22T12:48:22.721+00:00</time>
      </trkpt>
      <trkpt lat="49.31472" lon="-1.69672">
        <ele>11</ele>
        <time>2023-08-22T12:48:27.241+00:00</time>
      </trkpt>
      <trkpt lat="49.31473" lon="-1.69663">
        <ele>11</ele>
        <time>2023-08-22T12:48:31.641+00:00</time>
      </trkpt>
      <trkpt lat="49.31474" lon="-1.69656">
        <ele>11</ele>
        <time>2023-08-22T12:48:35.815+00:00</time>
      </trkpt>
      <trkpt lat="49.31476" lon="-1.69647">
        <ele>10</ele>
        <time>2023-08-22T12:48:40.243+00:00</time>
      </trkpt>
      <trkpt lat="49.31479" lon="-1.6964">
        <ele>10</ele>
        <time>2023-08-22T12:48:44.200+00:00</time>
      </trkpt>
      <trkpt lat="49.31481" lon="-1.69632">
        <ele>10</ele>
        <time>2023-08-22T12:48:48.558+00:00</time>
      </trkpt>
      <trkpt lat="49.31484" lon="-1.69625">
        <ele>10</ele>
        <time>2023-08-22T12:48:52.756+00:00</time>
      </trkpt>
      <trkpt lat="49.31487" lon="-1.69619">
        <ele>10</ele>
        <time>2023-08-22T12:48:56.954+00:00</time>
      </trkpt>
      <trkpt lat="49.3149" lon="-1.69613">
        <ele>10</ele>
        <time>2023-08-22T12:49:01.151+00:00</time>
      </trkpt>
      <trkpt lat="49.31493" lon="-1.69607">
        <ele>10</ele>
        <time>2023-08-22T12:49:05.348+00:00</time>
      </trkpt>
      <trkpt lat="49.31496" lon="-1.696">
        <ele>10</ele>
        <time>2023-08-22T12:49:10.118+00:00</time>
      </trkpt>
      <trkpt lat="49.31499" lon="-1.69592">
        <ele>10</ele>
        <time>2023-08-22T12:49:14.580+00:00</time>
      </trkpt>
      <trkpt lat="49.31502" lon="-1.69585">
        <ele>10</ele>
        <time>2023-08-22T12:49:19.135+00:00</time>
      </trkpt>
      <trkpt lat="49.31505" lon="-1.69579">
        <ele>10</ele>
        <time>2023-08-22T12:49:23.211+00:00</time>
      </trkpt>
      <trkpt lat="49.31507" lon="-1.69571">
        <ele>10</ele>
        <time>2023-08-22T12:49:27.707+00:00</time>
      </trkpt>
      <trkpt lat="49.31509" lon="-1.69564">
        <ele>10</ele>
        <time>2023-08-22T12:49:31.819+00:00</time>
      </trkpt>
      <trkpt lat="49.31512" lon="-1.69559">
        <ele>10</ele>
        <time>2023-08-22T12:49:35.771+00:00</time>
      </trkpt>
      <trkpt lat="49.31512" lon="-1.69558">
        <ele>10</ele>
        <time>2023-08-22T12:49:39.981+00:00</time>
      </trkpt>
      <trkpt lat="49.31513" lon="-1.69552">
        <ele>10</ele>
        <time>2023-08-22T12:49:44.138+00:00</time>
      </trkpt>
      <trkpt lat="49.31516" lon="-1.69544">
        <ele>10</ele>
        <time>2023-08-22T12:49:48.334+00:00</time>
      </trkpt>
      <trkpt lat="49.3152" lon="-1.69538">
        <ele>10</ele>
        <time>2023-08-22T12:49:52.530+00:00</time>
      </trkpt>
      <trkpt lat="49.31524" lon="-1.69533">
        <ele>10</ele>
        <time>2023-08-22T12:49:56.727+00:00</time>
      </trkpt>
      <trkpt lat="49.31526" lon="-1.69526">
        <ele>10</ele>
        <time>2023-08-22T12:50:00.925+00:00</time>
      </trkpt>
      <trkpt lat="49.31529" lon="-1.69521">
        <ele>10</ele>
        <time>2023-08-22T12:50:05.487+00:00</time>
      </trkpt>
      <trkpt lat="49.31528" lon="-1.69512">
        <ele>11</ele>
        <time>2023-08-22T12:50:09.520+00:00</time>
      </trkpt>
      <trkpt lat="49.31525" lon="-1.69506">
        <ele>11</ele>
        <time>2023-08-22T12:50:13.718+00:00</time>
      </trkpt>
      <trkpt lat="49.31524" lon="-1.69498">
        <ele>11</ele>
        <time>2023-08-22T12:50:17.818+00:00</time>
      </trkpt>
      <trkpt lat="49.31521" lon="-1.69489">
        <ele>11</ele>
        <time>2023-08-22T12:50:22.350+00:00</time>
      </trkpt>
      <trkpt lat="49.31519" lon="-1.69479">
        <ele>11</ele>
        <time>2023-08-22T12:50:26.939+00:00</time>
      </trkpt>
      <trkpt lat="49.31519" lon="-1.69469">
        <ele>11</ele>
        <time>2023-08-22T12:50:31.324+00:00</time>
      </trkpt>
      <trkpt lat="49.3152" lon="-1.69461">
        <ele>11</ele>
        <time>2023-08-22T12:50:35.718+00:00</time>
      </trkpt>
      <trkpt lat="49.31523" lon="-1.69452">
        <ele>11</ele>
        <time>2023-08-22T12:50:40.186+00:00</time>
      </trkpt>
      <trkpt lat="49.31525" lon="-1.69446">
        <ele>11</ele>
        <time>2023-08-22T12:50:44.126+00:00</time>
      </trkpt>
      <trkpt lat="49.31527" lon="-1.69438">
        <ele>11</ele>
        <time>2023-08-22T12:50:48.680+00:00</time>
      </trkpt>
      <trkpt lat="49.31527" lon="-1.69428">
        <ele>12</ele>
        <time>2023-08-22T12:50:53.113+00:00</time>
      </trkpt>
      <trkpt lat="49.31529" lon="-1.69421">
        <ele>12</ele>
        <time>2023-08-22T12:50:57.786+00:00</time>
      </trkpt>
      <trkpt lat="49.3153" lon="-1.69414">
        <ele>12</ele>
        <time>2023-08-22T12:51:01.744+00:00</time>
      </trkpt>
      <trkpt lat="49.31531" lon="-1.69407">
        <ele>12</ele>
        <time>2023-08-22T12:51:05.939+00:00</time>
      </trkpt>
      <trkpt lat="49.31535" lon="-1.69401">
        <ele>12</ele>
        <time>2023-08-22T12:51:10.015+00:00</time>
      </trkpt>
      <trkpt lat="49.31538" lon="-1.69394">
        <ele>12</ele>
        <time>2023-08-22T12:51:14.570+00:00</time>
      </trkpt>
      <trkpt lat="49.31542" lon="-1.69387">
        <ele>12</ele>
        <time>2023-08-22T12:51:19.159+00:00</time>
      </trkpt>
      <trkpt lat="49.31544" lon="-1.69381">
        <ele>12</ele>
        <time>2023-08-22T12:51:23.101+00:00</time>
      </trkpt>
      <trkpt lat="49.31545" lon="-1.69374">
        <ele>12</ele>
        <time>2023-08-22T12:51:27.621+00:00</time>
      </trkpt>
      <trkpt lat="49.31547" lon="-1.69365">
        <ele>12</ele>
        <time>2023-08-22T12:51:32.645+00:00</time>
      </trkpt>
      <trkpt lat="49.31549" lon="-1.69357">
        <ele>12</ele>
        <time>2023-08-22T12:51:36.986+00:00</time>
      </trkpt>
      <trkpt lat="49.31551" lon="-1.69348">
        <ele>12</ele>
        <time>2023-08-22T12:51:41.423+00:00</time>
      </trkpt>
      <trkpt lat="49.31554" lon="-1.69342">
        <ele>12</ele>
        <time>2023-08-22T12:51:45.919+00:00</time>
      </trkpt>
      <trkpt lat="49.31555" lon="-1.69334">
        <ele>12</ele>
        <time>2023-08-22T12:51:50.454+00:00</time>
      </trkpt>
      <trkpt lat="49.31557" lon="-1.69327">
        <ele>12</ele>
        <time>2023-08-22T12:51:54.488+00:00</time>
      </trkpt>
      <trkpt lat="49.31556" lon="-1.69321">
        <ele>12</ele>
        <time>2023-08-22T12:51:58.566+00:00</time>
      </trkpt>
      <trkpt lat="49.3156" lon="-1.69312">
        <ele>11</ele>
        <time>2023-08-22T12:52:03.304+00:00</time>
      </trkpt>
      <trkpt lat="49.31565" lon="-1.69306">
        <ele>11</ele>
        <time>2023-08-22T12:52:07.700+00:00</time>
      </trkpt>
      <trkpt lat="49.31567" lon="-1.69301">
        <ele>11</ele>
        <time>2023-08-22T12:52:11.732+00:00</time>
      </trkpt>
      <trkpt lat="49.3157" lon="-1.69294">
        <ele>10</ele>
        <time>2023-08-22T12:52:16.169+00:00</time>
      </trkpt>
      <trkpt lat="49.31572" lon="-1.69286">
        <ele>10</ele>
        <time>2023-08-22T12:52:20.666+00:00</time>
      </trkpt>
      <trkpt lat="49.31575" lon="-1.69278">
        <ele>10</ele>
        <time>2023-08-22T12:52:25.163+00:00</time>
      </trkpt>
      <trkpt lat="49.31574" lon="-1.6927">
        <ele>10</ele>
        <time>2023-08-22T12:52:29.361+00:00</time>
      </trkpt>
      <trkpt lat="49.31575" lon="-1.69262">
        <ele>11</ele>
        <time>2023-08-22T12:52:33.557+00:00</time>
      </trkpt>
      <trkpt lat="49.31576" lon="-1.69255">
        <ele>11</ele>
        <time>2023-08-22T12:52:37.754+00:00</time>
      </trkpt>
      <trkpt lat="49.31578" lon="-1.69248">
        <ele>11</ele>
        <time>2023-08-22T12:52:41.820+00:00</time>
      </trkpt>
      <trkpt lat="49.31581" lon="-1.6924">
        <ele>11</ele>
        <time>2023-08-22T12:52:46.301+00:00</time>
      </trkpt>
      <trkpt lat="49.31584" lon="-1.69233">
        <ele>11</ele>
        <time>2023-08-22T12:52:50.343+00:00</time>
      </trkpt>
      <trkpt lat="49.31586" lon="-1.69226">
        <ele>11</ele>
        <time>2023-08-22T12:52:54.358+00:00</time>
      </trkpt>
      <trkpt lat="49.31588" lon="-1.69219">
        <ele>11</ele>
        <time>2023-08-22T12:52:58.537+00:00</time>
      </trkpt>
      <trkpt lat="49.3159" lon="-1.69213">
        <ele>11</ele>
        <time>2023-08-22T12:53:02.356+00:00</time>
      </trkpt>
      <trkpt lat="49.31592" lon="-1.69206">
        <ele>11</ele>
        <time>2023-08-22T12:53:06.895+00:00</time>
      </trkpt>
      <trkpt lat="49.31594" lon="-1.69198">
        <ele>11</ele>
        <time>2023-08-22T12:53:10.972+00:00</time>
      </trkpt>
      <trkpt lat="49.31595" lon="-1.69191">
        <ele>11</ele>
        <time>2023-08-22T12:53:15.169+00:00</time>
      </trkpt>
      <trkpt lat="49.31597" lon="-1.69183">
        <ele>11</ele>
        <time>2023-08-22T12:53:19.771+00:00</time>
      </trkpt>
      <trkpt lat="49.31599" lon="-1.69176">
        <ele>11</ele>
        <time>2023-08-22T12:53:23.965+00:00</time>
      </trkpt>
      <trkpt lat="49.31601" lon="-1.6917">
        <ele>11</ele>
        <time>2023-08-22T12:53:28.400+00:00</time>
      </trkpt>
      <trkpt lat="49.31603" lon="-1.69162">
        <ele>11</ele>
        <time>2023-08-22T12:53:32.801+00:00</time>
      </trkpt>
      <trkpt lat="49.31606" lon="-1.69157">
        <ele>11</ele>
        <time>2023-08-22T12:53:36.771+00:00</time>
      </trkpt>
      <trkpt lat="49.31608" lon="-1.6915">
        <ele>12</ele>
        <time>2023-08-22T12:53:41.274+00:00</time>
      </trkpt>
      <trkpt lat="49.31609" lon="-1.69143">
        <ele>12</ele>
        <time>2023-08-22T12:53:45.352+00:00</time>
      </trkpt>
      <trkpt lat="49.31611" lon="-1.69136">
        <ele>12</ele>
        <time>2023-08-22T12:53:49.891+00:00</time>
      </trkpt>
      <trkpt lat="49.31613" lon="-1.69128">
        <ele>12</ele>
        <time>2023-08-22T12:53:54.331+00:00</time>
      </trkpt>
      <trkpt lat="49.31614" lon="-1.69121">
        <ele>12</ele>
        <time>2023-08-22T12:53:58.529+00:00</time>
      </trkpt>
      <trkpt lat="49.31617" lon="-1.69115">
        <ele>12</ele>
        <time>2023-08-22T12:54:02.860+00:00</time>
      </trkpt>
      <trkpt lat="49.31619" lon="-1.69109">
        <ele>12</ele>
        <time>2023-08-22T12:54:06.794+00:00</time>
      </trkpt>
      <trkpt lat="49.31621" lon="-1.69102">
        <ele>12</ele>
        <time>2023-08-22T12:54:10.925+00:00</time>
      </trkpt>
      <trkpt lat="49.31623" lon="-1.69096">
        <ele>13</ele>
        <time>2023-08-22T12:54:14.984+00:00</time>
      </trkpt>
      <trkpt lat="49.31626" lon="-1.69089">
        <ele>13</ele>
        <time>2023-08-22T12:54:19.162+00:00</time>
      </trkpt>
      <trkpt lat="49.31627" lon="-1.69083">
        <ele>13</ele>
        <time>2023-08-22T12:54:23.061+00:00</time>
      </trkpt>
      <trkpt lat="49.31629" lon="-1.69077">
        <ele>13</ele>
        <time>2023-08-22T12:54:27.181+00:00</time>
      </trkpt>
      <trkpt lat="49.31631" lon="-1.69071">
        <ele>13</ele>
        <time>2023-08-22T12:54:31.240+00:00</time>
      </trkpt>
      <trkpt lat="49.31632" lon="-1.69065">
        <ele>12</ele>
        <time>2023-08-22T12:54:35.619+00:00</time>
      </trkpt>
      <trkpt lat="49.31634" lon="-1.69058">
        <ele>12</ele>
        <time>2023-08-22T12:54:40.118+00:00</time>
      </trkpt>
      <trkpt lat="49.31639" lon="-1.69048">
        <ele>12</ele>
        <time>2023-08-22T12:55:05.077+00:00</time>
      </trkpt>
      <trkpt lat="49.3164" lon="-1.69037">
        <ele>12</ele>
        <time>2023-08-22T12:55:09.585+00:00</time>
      </trkpt>
      <trkpt lat="49.31644" lon="-1.69027">
        <ele>12</ele>
        <time>2023-08-22T12:55:14.700+00:00</time>
      </trkpt>
      <trkpt lat="49.31646" lon="-1.69019">
        <ele>12</ele>
        <time>2023-08-22T12:55:18.705+00:00</time>
      </trkpt>
      <trkpt lat="49.31648" lon="-1.69011">
        <ele>12</ele>
        <time>2023-08-22T12:55:23.208+00:00</time>
      </trkpt>
      <trkpt lat="49.3165" lon="-1.69003">
        <ele>12</ele>
        <time>2023-08-22T12:55:27.731+00:00</time>
      </trkpt>
      <trkpt lat="49.31652" lon="-1.68998">
        <ele>12</ele>
        <time>2023-08-22T12:55:31.591+00:00</time>
      </trkpt>
      <trkpt lat="49.31654" lon="-1.68992">
        <ele>11</ele>
        <time>2023-08-22T12:55:35.672+00:00</time>
      </trkpt>
      <trkpt lat="49.31655" lon="-1.68985">
        <ele>12</ele>
        <time>2023-08-22T12:55:39.735+00:00</time>
      </trkpt>
      <trkpt lat="49.31657" lon="-1.68978">
        <ele>12</ele>
        <time>2023-08-22T12:55:44.235+00:00</time>
      </trkpt>
      <trkpt lat="49.31659" lon="-1.6897">
        <ele>12</ele>
        <time>2023-08-22T12:55:48.554+00:00</time>
      </trkpt>
      <trkpt lat="49.31662" lon="-1.68963">
        <ele>12</ele>
        <time>2023-08-22T12:55:53.053+00:00</time>
      </trkpt>
      <trkpt lat="49.31664" lon="-1.68956">
        <ele>12</ele>
        <time>2023-08-22T12:55:57.370+00:00</time>
      </trkpt>
      <trkpt lat="49.31665" lon="-1.68948">
        <ele>12</ele>
        <time>2023-08-22T12:56:02.006+00:00</time>
      </trkpt>
      <trkpt lat="49.31667" lon="-1.68941">
        <ele>12</ele>
        <time>2023-08-22T12:56:06.523+00:00</time>
      </trkpt>
      <trkpt lat="49.3167" lon="-1.68935">
        <ele>12</ele>
        <time>2023-08-22T12:56:11.078+00:00</time>
      </trkpt>
      <trkpt lat="49.31672" lon="-1.68927">
        <ele>12</ele>
        <time>2023-08-22T12:56:15.596+00:00</time>
      </trkpt>
      <trkpt lat="49.31674" lon="-1.68919">
        <ele>12</ele>
        <time>2023-08-22T12:56:20.152+00:00</time>
      </trkpt>
      <trkpt lat="49.31677" lon="-1.68911">
        <ele>12</ele>
        <time>2023-08-22T12:56:24.760+00:00</time>
      </trkpt>
      <trkpt lat="49.31679" lon="-1.68904">
        <ele>12</ele>
        <time>2023-08-22T12:56:28.746+00:00</time>
      </trkpt>
      <trkpt lat="49.31679" lon="-1.68898">
        <ele>11</ele>
        <time>2023-08-22T12:56:32.565+00:00</time>
      </trkpt>
      <trkpt lat="49.31681" lon="-1.68892">
        <ele>11</ele>
        <time>2023-08-22T12:56:36.663+00:00</time>
      </trkpt>
      <trkpt lat="49.31684" lon="-1.68885">
        <ele>11</ele>
        <time>2023-08-22T12:56:41.161+00:00</time>
      </trkpt>
      <trkpt lat="49.31687" lon="-1.68878">
        <ele>11</ele>
        <time>2023-08-22T12:56:45.759+00:00</time>
      </trkpt>
      <trkpt lat="49.31689" lon="-1.6887">
        <ele>11</ele>
        <time>2023-08-22T12:56:50.315+00:00</time>
      </trkpt>
      <trkpt lat="49.31692" lon="-1.68863">
        <ele>11</ele>
        <time>2023-08-22T12:56:54.751+00:00</time>
      </trkpt>
      <trkpt lat="49.31693" lon="-1.68855">
        <ele>11</ele>
        <time>2023-08-22T12:56:58.949+00:00</time>
      </trkpt>
      <trkpt lat="49.31694" lon="-1.68849">
        <ele>11</ele>
        <time>2023-08-22T12:57:02.889+00:00</time>
      </trkpt>
      <trkpt lat="49.31697" lon="-1.68844">
        <ele>12</ele>
        <time>2023-08-22T12:57:07.539+00:00</time>
      </trkpt>
      <trkpt lat="49.31699" lon="-1.68838">
        <ele>12</ele>
        <time>2023-08-22T12:57:11.544+00:00</time>
      </trkpt>
      <trkpt lat="49.31701" lon="-1.68831">
        <ele>12</ele>
        <time>2023-08-22T12:57:15.621+00:00</time>
      </trkpt>
      <trkpt lat="49.31701" lon="-1.68825">
        <ele>12</ele>
        <time>2023-08-22T12:57:20.200+00:00</time>
      </trkpt>
      <trkpt lat="49.31701" lon="-1.6882">
        <ele>12</ele>
        <time>2023-08-22T12:57:24.804+00:00</time>
      </trkpt>
      <trkpt lat="49.31703" lon="-1.68813">
        <ele>12</ele>
        <time>2023-08-22T12:57:28.806+00:00</time>
      </trkpt>
      <trkpt lat="49.31704" lon="-1.68807">
        <ele>12</ele>
        <time>2023-08-22T12:57:33.258+00:00</time>
      </trkpt>
      <trkpt lat="49.31705" lon="-1.68806">
        <ele>12</ele>
        <time>2023-08-22T12:57:37.037+00:00</time>
      </trkpt>
      <trkpt lat="49.31707" lon="-1.68802">
        <ele>12</ele>
        <time>2023-08-22T12:57:41.535+00:00</time>
      </trkpt>
      <trkpt lat="49.31707" lon="-1.68801">
        <ele>12</ele>
        <time>2023-08-22T12:57:45.553+00:00</time>
      </trkpt>
      <trkpt lat="49.31708" lon="-1.68799">
        <ele>12</ele>
        <time>2023-08-22T12:59:19.817+00:00</time>
      </trkpt>
      <trkpt lat="49.31709" lon="-1.68797">
        <ele>12</ele>
        <time>2023-08-22T12:59:24.286+00:00</time>
      </trkpt>
      <trkpt lat="49.3171" lon="-1.68793">
        <ele>12</ele>
        <time>2023-08-22T12:59:28.242+00:00</time>
      </trkpt>
      <trkpt lat="49.31708" lon="-1.6879">
        <ele>12</ele>
        <time>2023-08-22T12:59:32.760+00:00</time>
      </trkpt>
      <trkpt lat="49.3171" lon="-1.68783">
        <ele>12</ele>
        <time>2023-08-22T12:59:37.437+00:00</time>
      </trkpt>
      <trkpt lat="49.31711" lon="-1.6878">
        <ele>12</ele>
        <time>2023-08-22T12:59:41.394+00:00</time>
      </trkpt>
      <trkpt lat="49.31712" lon="-1.68771">
        <ele>12</ele>
        <time>2023-08-22T12:59:46.723+00:00</time>
      </trkpt>
      <trkpt lat="49.31715" lon="-1.68763">
        <ele>13</ele>
        <time>2023-08-22T12:59:50.812+00:00</time>
      </trkpt>
      <trkpt lat="49.3172" lon="-1.68755">
        <ele>13</ele>
        <time>2023-08-22T12:59:55.360+00:00</time>
      </trkpt>
      <trkpt lat="49.31724" lon="-1.68747">
        <ele>13</ele>
        <time>2023-08-22T13:00:00.120+00:00</time>
      </trkpt>
      <trkpt lat="49.31726" lon="-1.68738">
        <ele>13</ele>
        <time>2023-08-22T13:00:04.545+00:00</time>
      </trkpt>
      <trkpt lat="49.31727" lon="-1.68732">
        <ele>13</ele>
        <time>2023-08-22T13:00:08.745+00:00</time>
      </trkpt>
      <trkpt lat="49.3173" lon="-1.68726">
        <ele>13</ele>
        <time>2023-08-22T13:00:12.939+00:00</time>
      </trkpt>
      <trkpt lat="49.31731" lon="-1.68719">
        <ele>13</ele>
        <time>2023-08-22T13:00:17.161+00:00</time>
      </trkpt>
      <trkpt lat="49.31733" lon="-1.68711">
        <ele>13</ele>
        <time>2023-08-22T13:00:21.787+00:00</time>
      </trkpt>
      <trkpt lat="49.31735" lon="-1.68704">
        <ele>13</ele>
        <time>2023-08-22T13:00:26.165+00:00</time>
      </trkpt>
      <trkpt lat="49.31737" lon="-1.68695">
        <ele>14</ele>
        <time>2023-08-22T13:00:30.506+00:00</time>
      </trkpt>
      <trkpt lat="49.31738" lon="-1.68687">
        <ele>14</ele>
        <time>2023-08-22T13:00:34.746+00:00</time>
      </trkpt>
      <trkpt lat="49.31741" lon="-1.68678">
        <ele>14</ele>
        <time>2023-08-22T13:00:39.246+00:00</time>
      </trkpt>
      <trkpt lat="49.31745" lon="-1.68671">
        <ele>14</ele>
        <time>2023-08-22T13:00:43.797+00:00</time>
      </trkpt>
      <trkpt lat="49.31747" lon="-1.68665">
        <ele>14</ele>
        <time>2023-08-22T13:00:47.820+00:00</time>
      </trkpt>
      <trkpt lat="49.31749" lon="-1.68656">
        <ele>14</ele>
        <time>2023-08-22T13:00:52.418+00:00</time>
      </trkpt>
      <trkpt lat="49.31751" lon="-1.68649">
        <ele>14</ele>
        <time>2023-08-22T13:00:56.556+00:00</time>
      </trkpt>
      <trkpt lat="49.31753" lon="-1.68642">
        <ele>14</ele>
        <time>2023-08-22T13:01:00.534+00:00</time>
      </trkpt>
      <trkpt lat="49.31755" lon="-1.68636">
        <ele>14</ele>
        <time>2023-08-22T13:01:04.723+00:00</time>
      </trkpt>
      <trkpt lat="49.31757" lon="-1.68629">
        <ele>14</ele>
        <time>2023-08-22T13:01:08.809+00:00</time>
      </trkpt>
      <trkpt lat="49.31759" lon="-1.68622">
        <ele>13</ele>
        <time>2023-08-22T13:01:12.943+00:00</time>
      </trkpt>
      <trkpt lat="49.31762" lon="-1.68617">
        <ele>13</ele>
        <time>2023-08-22T13:01:16.804+00:00</time>
      </trkpt>
      <trkpt lat="49.31763" lon="-1.6861">
        <ele>13</ele>
        <time>2023-08-22T13:01:21.485+00:00</time>
      </trkpt>
      <trkpt lat="49.31763" lon="-1.68603">
        <ele>13</ele>
        <time>2023-08-22T13:01:25.383+00:00</time>
      </trkpt>
      <trkpt lat="49.31766" lon="-1.68595">
        <ele>14</ele>
        <time>2023-08-22T13:01:29.361+00:00</time>
      </trkpt>
      <trkpt lat="49.31769" lon="-1.68588">
        <ele>14</ele>
        <time>2023-08-22T13:01:33.771+00:00</time>
      </trkpt>
      <trkpt lat="49.31772" lon="-1.68579">
        <ele>14</ele>
        <time>2023-08-22T13:01:38.315+00:00</time>
      </trkpt>
      <trkpt lat="49.31773" lon="-1.68572">
        <ele>14</ele>
        <time>2023-08-22T13:01:42.372+00:00</time>
      </trkpt>
      <trkpt lat="49.31776" lon="-1.68565">
        <ele>13</ele>
        <time>2023-08-22T13:01:47.028+00:00</time>
      </trkpt>
      <trkpt lat="49.31778" lon="-1.68559">
        <ele>13</ele>
        <time>2023-08-22T13:01:51.105+00:00</time>
      </trkpt>
      <trkpt lat="49.3178" lon="-1.68551">
        <ele>13</ele>
        <time>2023-08-22T13:01:55.603+00:00</time>
      </trkpt>
      <trkpt lat="49.31782" lon="-1.68543">
        <ele>13</ele>
        <time>2023-08-22T13:01:59.958+00:00</time>
      </trkpt>
      <trkpt lat="49.31785" lon="-1.68536">
        <ele>13</ele>
        <time>2023-08-22T13:02:04.555+00:00</time>
      </trkpt>
      <trkpt lat="49.31787" lon="-1.68528">
        <ele>13</ele>
        <time>2023-08-22T13:02:09.051+00:00</time>
      </trkpt>
      <trkpt lat="49.3179" lon="-1.6852">
        <ele>13</ele>
        <time>2023-08-22T13:02:13.126+00:00</time>
      </trkpt>
      <trkpt lat="49.31791" lon="-1.68512">
        <ele>13</ele>
        <time>2023-08-22T13:02:17.743+00:00</time>
      </trkpt>
      <trkpt lat="49.31794" lon="-1.68504">
        <ele>13</ele>
        <time>2023-08-22T13:02:22.298+00:00</time>
      </trkpt>
      <trkpt lat="49.31796" lon="-1.68497">
        <ele>13</ele>
        <time>2023-08-22T13:02:26.373+00:00</time>
      </trkpt>
      <trkpt lat="49.31798" lon="-1.68488">
        <ele>13</ele>
        <time>2023-08-22T13:02:31.302+00:00</time>
      </trkpt>
      <trkpt lat="49.318" lon="-1.68481">
        <ele>13</ele>
        <time>2023-08-22T13:02:35.362+00:00</time>
      </trkpt>
      <trkpt lat="49.31802" lon="-1.68473">
        <ele>13</ele>
        <time>2023-08-22T13:02:40.097+00:00</time>
      </trkpt>
      <trkpt lat="49.31804" lon="-1.68467">
        <ele>13</ele>
        <time>2023-08-22T13:02:44.131+00:00</time>
      </trkpt>
      <trkpt lat="49.31806" lon="-1.68459">
        <ele>13</ele>
        <time>2023-08-22T13:02:48.684+00:00</time>
      </trkpt>
      <trkpt lat="49.31808" lon="-1.68452">
        <ele>14</ele>
        <time>2023-08-22T13:02:53.060+00:00</time>
      </trkpt>
      <trkpt lat="49.3181" lon="-1.68447">
        <ele>14</ele>
        <time>2023-08-22T13:02:57.078+00:00</time>
      </trkpt>
      <trkpt lat="49.31814" lon="-1.6844">
        <ele>14</ele>
        <time>2023-08-22T13:03:01.456+00:00</time>
      </trkpt>
      <trkpt lat="49.3182" lon="-1.68446">
        <ele>14</ele>
        <time>2023-08-22T13:03:05.814+00:00</time>
      </trkpt>
      <trkpt lat="49.31825" lon="-1.68449">
        <ele>14</ele>
        <time>2023-08-22T13:03:10.284+00:00</time>
      </trkpt>
      <trkpt lat="49.31831" lon="-1.68454">
        <ele>14</ele>
        <time>2023-08-22T13:03:14.768+00:00</time>
      </trkpt>
      <trkpt lat="49.31836" lon="-1.6846">
        <ele>13</ele>
        <time>2023-08-22T13:03:19.085+00:00</time>
      </trkpt>
      <trkpt lat="49.31841" lon="-1.68466">
        <ele>13</ele>
        <time>2023-08-22T13:03:23.667+00:00</time>
      </trkpt>
      <trkpt lat="49.31846" lon="-1.6847">
        <ele>13</ele>
        <time>2023-08-22T13:03:27.942+00:00</time>
      </trkpt>
      <trkpt lat="49.3185" lon="-1.68475">
        <ele>15</ele>
        <time>2023-08-22T13:03:32.542+00:00</time>
      </trkpt>
      <trkpt lat="49.31854" lon="-1.6848">
        <ele>15</ele>
        <time>2023-08-22T13:03:36.795+00:00</time>
      </trkpt>
      <trkpt lat="49.31859" lon="-1.68484">
        <ele>15</ele>
        <time>2023-08-22T13:03:40.804+00:00</time>
      </trkpt>
      <trkpt lat="49.31863" lon="-1.68488">
        <ele>13</ele>
        <time>2023-08-22T13:03:44.771+00:00</time>
      </trkpt>
      <trkpt lat="49.31868" lon="-1.68491">
        <ele>13</ele>
        <time>2023-08-22T13:03:48.799+00:00</time>
      </trkpt>
      <trkpt lat="49.31874" lon="-1.68494">
        <ele>13</ele>
        <time>2023-08-22T13:03:53.329+00:00</time>
      </trkpt>
      <trkpt lat="49.31879" lon="-1.68498">
        <ele>15</ele>
        <time>2023-08-22T13:03:57.869+00:00</time>
      </trkpt>
      <trkpt lat="49.31885" lon="-1.68502">
        <ele>15</ele>
        <time>2023-08-22T13:04:02.469+00:00</time>
      </trkpt>
      <trkpt lat="49.31889" lon="-1.68507">
        <ele>15</ele>
        <time>2023-08-22T13:04:06.710+00:00</time>
      </trkpt>
      <trkpt lat="49.31892" lon="-1.6851">
        <ele>15</ele>
        <time>2023-08-22T13:04:10.610+00:00</time>
      </trkpt>
      <trkpt lat="49.31897" lon="-1.68515">
        <ele>15</ele>
        <time>2023-08-22T13:04:15.283+00:00</time>
      </trkpt>
      <trkpt lat="49.31901" lon="-1.6852">
        <ele>15</ele>
        <time>2023-08-22T13:04:19.771+00:00</time>
      </trkpt>
      <trkpt lat="49.31906" lon="-1.68525">
        <ele>16</ele>
        <time>2023-08-22T13:04:24.105+00:00</time>
      </trkpt>
      <trkpt lat="49.31911" lon="-1.68529">
        <ele>16</ele>
        <time>2023-08-22T13:04:28.585+00:00</time>
      </trkpt>
      <trkpt lat="49.31913" lon="-1.68532">
        <ele>16</ele>
        <time>2023-08-22T13:04:33.044+00:00</time>
      </trkpt>
      <trkpt lat="49.31917" lon="-1.68535">
        <ele>16</ele>
        <time>2023-08-22T13:04:36.941+00:00</time>
      </trkpt>
      <trkpt lat="49.31923" lon="-1.68539">
        <ele>16</ele>
        <time>2023-08-22T13:04:41.640+00:00</time>
      </trkpt>
      <trkpt lat="49.31929" lon="-1.68544">
        <ele>15</ele>
        <time>2023-08-22T13:04:45.807+00:00</time>
      </trkpt>
      <trkpt lat="49.31934" lon="-1.68549">
        <ele>14</ele>
        <time>2023-08-22T13:04:49.808+00:00</time>
      </trkpt>
      <trkpt lat="49.3194" lon="-1.68553">
        <ele>14</ele>
        <time>2023-08-22T13:04:54.232+00:00</time>
      </trkpt>
      <trkpt lat="49.31944" lon="-1.68555">
        <ele>14</ele>
        <time>2023-08-22T13:04:58.323+00:00</time>
      </trkpt>
      <trkpt lat="49.31948" lon="-1.68553">
        <ele>14</ele>
        <time>2023-08-22T13:05:02.247+00:00</time>
      </trkpt>
      <trkpt lat="49.31952" lon="-1.68546">
        <ele>14</ele>
        <time>2023-08-22T13:05:06.366+00:00</time>
      </trkpt>
      <trkpt lat="49.31954" lon="-1.68536">
        <ele>14</ele>
        <time>2023-08-22T13:05:11.746+00:00</time>
      </trkpt>
      <trkpt lat="49.31955" lon="-1.68528">
        <ele>14</ele>
        <time>2023-08-22T13:05:15.771+00:00</time>
      </trkpt>
      <trkpt lat="49.31956" lon="-1.68521">
        <ele>14</ele>
        <time>2023-08-22T13:05:19.831+00:00</time>
      </trkpt>
      <trkpt lat="49.31959" lon="-1.68514">
        <ele>14</ele>
        <time>2023-08-22T13:05:23.771+00:00</time>
      </trkpt>
      <trkpt lat="49.31963" lon="-1.68507">
        <ele>15</ele>
        <time>2023-08-22T13:05:28.795+00:00</time>
      </trkpt>
      <trkpt lat="49.31966" lon="-1.68502">
        <ele>15</ele>
        <time>2023-08-22T13:05:32.810+00:00</time>
      </trkpt>
      <trkpt lat="49.31968" lon="-1.68495">
        <ele>15</ele>
        <time>2023-08-22T13:05:36.801+00:00</time>
      </trkpt>
      <trkpt lat="49.31972" lon="-1.68489">
        <ele>15</ele>
        <time>2023-08-22T13:05:40.924+00:00</time>
      </trkpt>
      <trkpt lat="49.31974" lon="-1.68482">
        <ele>15</ele>
        <time>2023-08-22T13:05:45.121+00:00</time>
      </trkpt>
      <trkpt lat="49.31977" lon="-1.68476">
        <ele>15</ele>
        <time>2023-08-22T13:05:49.198+00:00</time>
      </trkpt>
      <trkpt lat="49.31979" lon="-1.68469">
        <ele>15</ele>
        <time>2023-08-22T13:05:53.236+00:00</time>
      </trkpt>
      <trkpt lat="49.3198" lon="-1.68463">
        <ele>15</ele>
        <time>2023-08-22T13:05:57.294+00:00</time>
      </trkpt>
      <trkpt lat="49.31982" lon="-1.68457">
        <ele>16</ele>
        <time>2023-08-22T13:06:01.371+00:00</time>
      </trkpt>
      <trkpt lat="49.31985" lon="-1.6845">
        <ele>16</ele>
        <time>2023-08-22T13:06:05.448+00:00</time>
      </trkpt>
      <trkpt lat="49.31988" lon="-1.68445">
        <ele>16</ele>
        <time>2023-08-22T13:06:09.525+00:00</time>
      </trkpt>
      <trkpt lat="49.31991" lon="-1.68439">
        <ele>16</ele>
        <time>2023-08-22T13:06:13.684+00:00</time>
      </trkpt>
      <trkpt lat="49.31994" lon="-1.68433">
        <ele>16</ele>
        <time>2023-08-22T13:06:17.603+00:00</time>
      </trkpt>
      <trkpt lat="49.31997" lon="-1.68428">
        <ele>16</ele>
        <time>2023-08-22T13:06:21.622+00:00</time>
      </trkpt>
      <trkpt lat="49.31999" lon="-1.6842">
        <ele>16</ele>
        <time>2023-08-22T13:06:26.060+00:00</time>
      </trkpt>
      <trkpt lat="49.32001" lon="-1.68414">
        <ele>16</ele>
        <time>2023-08-22T13:06:30.118+00:00</time>
      </trkpt>
      <trkpt lat="49.32003" lon="-1.68407">
        <ele>16</ele>
        <time>2023-08-22T13:06:34.057+00:00</time>
      </trkpt>
      <trkpt lat="49.32005" lon="-1.68402">
        <ele>15</ele>
        <time>2023-08-22T13:06:38.118+00:00</time>
      </trkpt>
      <trkpt lat="49.32008" lon="-1.68394">
        <ele>15</ele>
        <time>2023-08-22T13:06:42.516+00:00</time>
      </trkpt>
      <trkpt lat="49.32011" lon="-1.68388">
        <ele>15</ele>
        <time>2023-08-22T13:06:46.455+00:00</time>
      </trkpt>
      <trkpt lat="49.32014" lon="-1.68382">
        <ele>15</ele>
        <time>2023-08-22T13:06:50.534+00:00</time>
      </trkpt>
      <trkpt lat="49.32016" lon="-1.68376">
        <ele>15</ele>
        <time>2023-08-22T13:06:54.454+00:00</time>
      </trkpt>
      <trkpt lat="49.32019" lon="-1.68369">
        <ele>15</ele>
        <time>2023-08-22T13:06:58.472+00:00</time>
      </trkpt>
      <trkpt lat="49.32021" lon="-1.68363">
        <ele>15</ele>
        <time>2023-08-22T13:07:02.805+00:00</time>
      </trkpt>
      <trkpt lat="49.32023" lon="-1.68356">
        <ele>15</ele>
        <time>2023-08-22T13:07:06.911+00:00</time>
      </trkpt>
      <trkpt lat="49.32025" lon="-1.68351">
        <ele>15</ele>
        <time>2023-08-22T13:07:11.107+00:00</time>
      </trkpt>
      <trkpt lat="49.32028" lon="-1.68345">
        <ele>16</ele>
        <time>2023-08-22T13:07:15.284+00:00</time>
      </trkpt>
      <trkpt lat="49.3203" lon="-1.68338">
        <ele>16</ele>
        <time>2023-08-22T13:07:19.240+00:00</time>
      </trkpt>
      <trkpt lat="49.32033" lon="-1.68332">
        <ele>16</ele>
        <time>2023-08-22T13:07:23.316+00:00</time>
      </trkpt>
      <trkpt lat="49.32036" lon="-1.68326">
        <ele>16</ele>
        <time>2023-08-22T13:07:27.392+00:00</time>
      </trkpt>
      <trkpt lat="49.32038" lon="-1.6832">
        <ele>16</ele>
        <time>2023-08-22T13:07:31.521+00:00</time>
      </trkpt>
      <trkpt lat="49.3204" lon="-1.68313">
        <ele>15</ele>
        <time>2023-08-22T13:07:35.507+00:00</time>
      </trkpt>
      <trkpt lat="49.32042" lon="-1.68306">
        <ele>15</ele>
        <time>2023-08-22T13:07:39.584+00:00</time>
      </trkpt>
      <trkpt lat="49.32044" lon="-1.683">
        <ele>15</ele>
        <time>2023-08-22T13:07:43.722+00:00</time>
      </trkpt>
      <trkpt lat="49.32047" lon="-1.68295">
        <ele>15</ele>
        <time>2023-08-22T13:07:47.808+00:00</time>
      </trkpt>
      <trkpt lat="49.32049" lon="-1.68289">
        <ele>16</ele>
        <time>2023-08-22T13:07:51.771+00:00</time>
      </trkpt>
      <trkpt lat="49.32052" lon="-1.68283">
        <ele>16</ele>
        <time>2023-08-22T13:07:55.959+00:00</time>
      </trkpt>
      <trkpt lat="49.32053" lon="-1.68276">
        <ele>16</ele>
        <time>2023-08-22T13:07:59.959+00:00</time>
      </trkpt>
      <trkpt lat="49.32056" lon="-1.68269">
        <ele>16</ele>
        <time>2023-08-22T13:08:04.156+00:00</time>
      </trkpt>
      <trkpt lat="49.32058" lon="-1.68264">
        <ele>16</ele>
        <time>2023-08-22T13:08:08.294+00:00</time>
      </trkpt>
      <trkpt lat="49.32061" lon="-1.68257">
        <ele>16</ele>
        <time>2023-08-22T13:08:12.970+00:00</time>
      </trkpt>
      <trkpt lat="49.32064" lon="-1.68251">
        <ele>16</ele>
        <time>2023-08-22T13:08:17.142+00:00</time>
      </trkpt>
      <trkpt lat="49.32067" lon="-1.68245">
        <ele>16</ele>
        <time>2023-08-22T13:08:21.087+00:00</time>
      </trkpt>
      <trkpt lat="49.3207" lon="-1.6824">
        <ele>15</ele>
        <time>2023-08-22T13:08:25.526+00:00</time>
      </trkpt>
      <trkpt lat="49.32071" lon="-1.68239">
        <ele>15</ele>
        <time>2023-08-22T13:08:29.959+00:00</time>
      </trkpt>
      <trkpt lat="49.32077" lon="-1.68233">
        <ele>16</ele>
        <time>2023-08-22T13:08:34.468+00:00</time>
      </trkpt>
      <trkpt lat="49.3208" lon="-1.68228">
        <ele>16</ele>
        <time>2023-08-22T13:08:38.985+00:00</time>
      </trkpt>
      <trkpt lat="49.32083" lon="-1.68221">
        <ele>16</ele>
        <time>2023-08-22T13:08:43.562+00:00</time>
      </trkpt>
      <trkpt lat="49.32088" lon="-1.6822">
        <ele>16</ele>
        <time>2023-08-22T13:08:47.640+00:00</time>
      </trkpt>
      <trkpt lat="49.32091" lon="-1.68227">
        <ele>16</ele>
        <time>2023-08-22T13:08:51.638+00:00</time>
      </trkpt>
      <trkpt lat="49.32094" lon="-1.68233">
        <ele>16</ele>
        <time>2023-08-22T13:08:55.735+00:00</time>
      </trkpt>
      <trkpt lat="49.32095" lon="-1.68241">
        <ele>15</ele>
        <time>2023-08-22T13:08:59.933+00:00</time>
      </trkpt>
      <trkpt lat="49.32096" lon="-1.68248">
        <ele>15</ele>
        <time>2023-08-22T13:09:04.131+00:00</time>
      </trkpt>
      <trkpt lat="49.32097" lon="-1.68256">
        <ele>14</ele>
        <time>2023-08-22T13:09:08.230+00:00</time>
      </trkpt>
      <trkpt lat="49.32098" lon="-1.68264">
        <ele>14</ele>
        <time>2023-08-22T13:09:12.307+00:00</time>
      </trkpt>
      <trkpt lat="49.321" lon="-1.68272">
        <ele>14</ele>
        <time>2023-08-22T13:09:16.730+00:00</time>
      </trkpt>
      <trkpt lat="49.32104" lon="-1.68277">
        <ele>14</ele>
        <time>2023-08-22T13:09:20.771+00:00</time>
      </trkpt>
      <trkpt lat="49.32106" lon="-1.68284">
        <ele>14</ele>
        <time>2023-08-22T13:09:24.707+00:00</time>
      </trkpt>
      <trkpt lat="49.3211" lon="-1.68291">
        <ele>14</ele>
        <time>2023-08-22T13:09:29.384+00:00</time>
      </trkpt>
      <trkpt lat="49.32114" lon="-1.68297">
        <ele>13</ele>
        <time>2023-08-22T13:09:33.581+00:00</time>
      </trkpt>
      <trkpt lat="49.32117" lon="-1.68304">
        <ele>13</ele>
        <time>2023-08-22T13:09:37.719+00:00</time>
      </trkpt>
      <trkpt lat="49.32121" lon="-1.68309">
        <ele>13</ele>
        <time>2023-08-22T13:09:41.678+00:00</time>
      </trkpt>
      <trkpt lat="49.32126" lon="-1.68314">
        <ele>13</ele>
        <time>2023-08-22T13:09:46.216+00:00</time>
      </trkpt>
      <trkpt lat="49.32131" lon="-1.68317">
        <ele>13</ele>
        <time>2023-08-22T13:09:50.173+00:00</time>
      </trkpt>
      <trkpt lat="49.32135" lon="-1.68322">
        <ele>13</ele>
        <time>2023-08-22T13:09:54.817+00:00</time>
      </trkpt>
      <trkpt lat="49.32139" lon="-1.68325">
        <ele>13</ele>
        <time>2023-08-22T13:09:58.985+00:00</time>
      </trkpt>
      <trkpt lat="49.32144" lon="-1.68329">
        <ele>13</ele>
        <time>2023-08-22T13:10:03.806+00:00</time>
      </trkpt>
      <trkpt lat="49.32149" lon="-1.68333">
        <ele>13</ele>
        <time>2023-08-22T13:10:07.919+00:00</time>
      </trkpt>
      <trkpt lat="49.32154" lon="-1.68336">
        <ele>13</ele>
        <time>2023-08-22T13:10:12.116+00:00</time>
      </trkpt>
      <trkpt lat="49.3216" lon="-1.68335">
        <ele>13</ele>
        <time>2023-08-22T13:10:16.313+00:00</time>
      </trkpt>
      <trkpt lat="49.32164" lon="-1.68337">
        <ele>13</ele>
        <time>2023-08-22T13:10:20.350+00:00</time>
      </trkpt>
      <trkpt lat="49.3217" lon="-1.68339">
        <ele>13</ele>
        <time>2023-08-22T13:10:25.109+00:00</time>
      </trkpt>
      <trkpt lat="49.32175" lon="-1.6834">
        <ele>13</ele>
        <time>2023-08-22T13:10:29.766+00:00</time>
      </trkpt>
      <trkpt lat="49.32181" lon="-1.68339">
        <ele>13</ele>
        <time>2023-08-22T13:10:33.924+00:00</time>
      </trkpt>
      <trkpt lat="49.32186" lon="-1.68339">
        <ele>13</ele>
        <time>2023-08-22T13:10:37.980+00:00</time>
      </trkpt>
      <trkpt lat="49.32191" lon="-1.68338">
        <ele>13</ele>
        <time>2023-08-22T13:10:42.156+00:00</time>
      </trkpt>
      <trkpt lat="49.32196" lon="-1.68338">
        <ele>13</ele>
        <time>2023-08-22T13:10:46.352+00:00</time>
      </trkpt>
      <trkpt lat="49.32202" lon="-1.68337">
        <ele>13</ele>
        <time>2023-08-22T13:10:50.907+00:00</time>
      </trkpt>
      <trkpt lat="49.32207" lon="-1.68336">
        <ele>13</ele>
        <time>2023-08-22T13:10:55.102+00:00</time>
      </trkpt>
      <trkpt lat="49.32212" lon="-1.68338">
        <ele>13</ele>
        <time>2023-08-22T13:10:59.118+00:00</time>
      </trkpt>
      <trkpt lat="49.32217" lon="-1.68342">
        <ele>13</ele>
        <time>2023-08-22T13:11:03.927+00:00</time>
      </trkpt>
      <trkpt lat="49.32222" lon="-1.68347">
        <ele>13</ele>
        <time>2023-08-22T13:11:07.969+00:00</time>
      </trkpt>
      <trkpt lat="49.32226" lon="-1.68352">
        <ele>13</ele>
        <time>2023-08-22T13:11:12.404+00:00</time>
      </trkpt>
      <trkpt lat="49.32227" lon="-1.68359">
        <ele>13</ele>
        <time>2023-08-22T13:11:16.363+00:00</time>
      </trkpt>
      <trkpt lat="49.32231" lon="-1.68364">
        <ele>13</ele>
        <time>2023-08-22T13:11:20.522+00:00</time>
      </trkpt>
      <trkpt lat="49.32234" lon="-1.68371">
        <ele>13</ele>
        <time>2023-08-22T13:11:24.461+00:00</time>
      </trkpt>
      <trkpt lat="49.32237" lon="-1.6838">
        <ele>12</ele>
        <time>2023-08-22T13:11:29.099+00:00</time>
      </trkpt>
      <trkpt lat="49.32239" lon="-1.68387">
        <ele>12</ele>
        <time>2023-08-22T13:11:33.236+00:00</time>
      </trkpt>
      <trkpt lat="49.32242" lon="-1.68393">
        <ele>12</ele>
        <time>2023-08-22T13:11:37.354+00:00</time>
      </trkpt>
      <trkpt lat="49.32245" lon="-1.684">
        <ele>12</ele>
        <time>2023-08-22T13:11:42.163+00:00</time>
      </trkpt>
      <trkpt lat="49.32248" lon="-1.68406">
        <ele>12</ele>
        <time>2023-08-22T13:11:46.344+00:00</time>
      </trkpt>
      <trkpt lat="49.32251" lon="-1.68411">
        <ele>12</ele>
        <time>2023-08-22T13:11:50.540+00:00</time>
      </trkpt>
      <trkpt lat="49.32256" lon="-1.68414">
        <ele>12</ele>
        <time>2023-08-22T13:11:54.714+00:00</time>
      </trkpt>
      <trkpt lat="49.32261" lon="-1.68416">
        <ele>12</ele>
        <time>2023-08-22T13:11:58.821+00:00</time>
      </trkpt>
      <trkpt lat="49.32266" lon="-1.68412">
        <ele>12</ele>
        <time>2023-08-22T13:12:03.307+00:00</time>
      </trkpt>
      <trkpt lat="49.3227" lon="-1.68408">
        <ele>12</ele>
        <time>2023-08-22T13:12:07.742+00:00</time>
      </trkpt>
      <trkpt lat="49.32273" lon="-1.68405">
        <ele>12</ele>
        <time>2023-08-22T13:12:11.936+00:00</time>
      </trkpt>
      <trkpt lat="49.32278" lon="-1.68402">
        <ele>12</ele>
        <time>2023-08-22T13:12:16.611+00:00</time>
      </trkpt>
      <trkpt lat="49.32283" lon="-1.68397">
        <ele>12</ele>
        <time>2023-08-22T13:12:21.045+00:00</time>
      </trkpt>
      <trkpt lat="49.32287" lon="-1.68394">
        <ele>12</ele>
        <time>2023-08-22T13:12:25.181+00:00</time>
      </trkpt>
      <trkpt lat="49.32291" lon="-1.68391">
        <ele>12</ele>
        <time>2023-08-22T13:12:29.337+00:00</time>
      </trkpt>
      <trkpt lat="49.32296" lon="-1.68387">
        <ele>13</ele>
        <time>2023-08-22T13:12:33.547+00:00</time>
      </trkpt>
      <trkpt lat="49.323" lon="-1.68384">
        <ele>13</ele>
        <time>2023-08-22T13:12:37.728+00:00</time>
      </trkpt>
      <trkpt lat="49.32305" lon="-1.68379">
        <ele>13</ele>
        <time>2023-08-22T13:12:41.906+00:00</time>
      </trkpt>
      <trkpt lat="49.3231" lon="-1.68377">
        <ele>13</ele>
        <time>2023-08-22T13:12:45.984+00:00</time>
      </trkpt>
      <trkpt lat="49.32315" lon="-1.68375">
        <ele>13</ele>
        <time>2023-08-22T13:12:50.141+00:00</time>
      </trkpt>
      <trkpt lat="49.3232" lon="-1.68374">
        <ele>13</ele>
        <time>2023-08-22T13:12:54.319+00:00</time>
      </trkpt>
      <trkpt lat="49.32325" lon="-1.68374">
        <ele>13</ele>
        <time>2023-08-22T13:12:58.516+00:00</time>
      </trkpt>
      <trkpt lat="49.32331" lon="-1.68375">
        <ele>12</ele>
        <time>2023-08-22T13:13:03.054+00:00</time>
      </trkpt>
      <trkpt lat="49.32337" lon="-1.68376">
        <ele>12</ele>
        <time>2023-08-22T13:13:07.370+00:00</time>
      </trkpt>
      <trkpt lat="49.32341" lon="-1.68376">
        <ele>12</ele>
        <time>2023-08-22T13:13:11.464+00:00</time>
      </trkpt>
      <trkpt lat="49.32346" lon="-1.68378">
        <ele>12</ele>
        <time>2023-08-22T13:13:15.832+00:00</time>
      </trkpt>
      <trkpt lat="49.32351" lon="-1.68379">
        <ele>11</ele>
        <time>2023-08-22T13:13:19.811+00:00</time>
      </trkpt>
      <trkpt lat="49.32355" lon="-1.68379">
        <ele>11</ele>
        <time>2023-08-22T13:13:23.811+00:00</time>
      </trkpt>
      <trkpt lat="49.3236" lon="-1.68377">
        <ele>11</ele>
        <time>2023-08-22T13:13:27.809+00:00</time>
      </trkpt>
      <trkpt lat="49.32365" lon="-1.68381">
        <ele>11</ele>
        <time>2023-08-22T13:13:31.952+00:00</time>
      </trkpt>
      <trkpt lat="49.3237" lon="-1.68384">
        <ele>11</ele>
        <time>2023-08-22T13:13:36.161+00:00</time>
      </trkpt>
      <trkpt lat="49.32375" lon="-1.68386">
        <ele>10</ele>
        <time>2023-08-22T13:13:40.219+00:00</time>
      </trkpt>
      <trkpt lat="49.3238" lon="-1.68388">
        <ele>10</ele>
        <time>2023-08-22T13:13:44.325+00:00</time>
      </trkpt>
      <trkpt lat="49.32384" lon="-1.68388">
        <ele>10</ele>
        <time>2023-08-22T13:13:48.337+00:00</time>
      </trkpt>
      <trkpt lat="49.32389" lon="-1.68387">
        <ele>10</ele>
        <time>2023-08-22T13:13:52.292+00:00</time>
      </trkpt>
      <trkpt lat="49.32395" lon="-1.68388">
        <ele>10</ele>
        <time>2023-08-22T13:13:56.816+00:00</time>
      </trkpt>
      <trkpt lat="49.32399" lon="-1.68389">
        <ele>10</ele>
        <time>2023-08-22T13:14:00.798+00:00</time>
      </trkpt>
      <trkpt lat="49.32404" lon="-1.68391">
        <ele>10</ele>
        <time>2023-08-22T13:14:04.940+00:00</time>
      </trkpt>
      <trkpt lat="49.32408" lon="-1.6839">
        <ele>10</ele>
        <time>2023-08-22T13:14:09.096+00:00</time>
      </trkpt>
      <trkpt lat="49.32413" lon="-1.68388">
        <ele>10</ele>
        <time>2023-08-22T13:14:13.171+00:00</time>
      </trkpt>
      <trkpt lat="49.32418" lon="-1.68386">
        <ele>10</ele>
        <time>2023-08-22T13:14:17.308+00:00</time>
      </trkpt>
      <trkpt lat="49.32422" lon="-1.68384">
        <ele>10</ele>
        <time>2023-08-22T13:14:21.791+00:00</time>
      </trkpt>
      <trkpt lat="49.32427" lon="-1.68384">
        <ele>10</ele>
        <time>2023-08-22T13:14:25.942+00:00</time>
      </trkpt>
      <trkpt lat="49.32432" lon="-1.68386">
        <ele>10</ele>
        <time>2023-08-22T13:14:30.059+00:00</time>
      </trkpt>
      <trkpt lat="49.32437" lon="-1.68388">
        <ele>10</ele>
        <time>2023-08-22T13:14:34.598+00:00</time>
      </trkpt>
      <trkpt lat="49.32441" lon="-1.68387">
        <ele>10</ele>
        <time>2023-08-22T13:14:38.572+00:00</time>
      </trkpt>
      <trkpt lat="49.32446" lon="-1.68384">
        <ele>10</ele>
        <time>2023-08-22T13:14:42.769+00:00</time>
      </trkpt>
      <trkpt lat="49.32449" lon="-1.68378">
        <ele>10</ele>
        <time>2023-08-22T13:14:46.965+00:00</time>
      </trkpt>
      <trkpt lat="49.32453" lon="-1.68374">
        <ele>10</ele>
        <time>2023-08-22T13:14:51.161+00:00</time>
      </trkpt>
      <trkpt lat="49.32457" lon="-1.68369">
        <ele>10</ele>
        <time>2023-08-22T13:14:55.119+00:00</time>
      </trkpt>
      <trkpt lat="49.32461" lon="-1.68364">
        <ele>9</ele>
        <time>2023-08-22T13:14:59.597+00:00</time>
      </trkpt>
      <trkpt lat="49.32464" lon="-1.68359">
        <ele>9</ele>
        <time>2023-08-22T13:15:03.553+00:00</time>
      </trkpt>
      <trkpt lat="49.32469" lon="-1.68356">
        <ele>9</ele>
        <time>2023-08-22T13:15:07.389+00:00</time>
      </trkpt>
      <trkpt lat="49.32473" lon="-1.68361">
        <ele>9</ele>
        <time>2023-08-22T13:15:11.838+00:00</time>
      </trkpt>
      <trkpt lat="49.32477" lon="-1.68367">
        <ele>9</ele>
        <time>2023-08-22T13:15:15.825+00:00</time>
      </trkpt>
      <trkpt lat="49.32481" lon="-1.68371">
        <ele>9</ele>
        <time>2023-08-22T13:15:19.836+00:00</time>
      </trkpt>
      <trkpt lat="49.32486" lon="-1.68373">
        <ele>9</ele>
        <time>2023-08-22T13:15:23.813+00:00</time>
      </trkpt>
      <trkpt lat="49.32491" lon="-1.68376">
        <ele>8</ele>
        <time>2023-08-22T13:15:27.972+00:00</time>
      </trkpt>
      <trkpt lat="49.32496" lon="-1.68379">
        <ele>8</ele>
        <time>2023-08-22T13:15:32.169+00:00</time>
      </trkpt>
      <trkpt lat="49.325" lon="-1.68382">
        <ele>8</ele>
        <time>2023-08-22T13:15:36.265+00:00</time>
      </trkpt>
      <trkpt lat="49.32504" lon="-1.68387">
        <ele>8</ele>
        <time>2023-08-22T13:15:40.831+00:00</time>
      </trkpt>
      <trkpt lat="49.32508" lon="-1.68391">
        <ele>8</ele>
        <time>2023-08-22T13:15:44.938+00:00</time>
      </trkpt>
      <trkpt lat="49.32512" lon="-1.68397">
        <ele>8</ele>
        <time>2023-08-22T13:15:49.116+00:00</time>
      </trkpt>
      <trkpt lat="49.32515" lon="-1.68403">
        <ele>8</ele>
        <time>2023-08-22T13:15:53.154+00:00</time>
      </trkpt>
      <trkpt lat="49.32519" lon="-1.68409">
        <ele>8</ele>
        <time>2023-08-22T13:15:57.331+00:00</time>
      </trkpt>
      <trkpt lat="49.32523" lon="-1.68413">
        <ele>8</ele>
        <time>2023-08-22T13:16:02.007+00:00</time>
      </trkpt>
      <trkpt lat="49.32527" lon="-1.68417">
        <ele>8</ele>
        <time>2023-08-22T13:16:06.167+00:00</time>
      </trkpt>
      <trkpt lat="49.32531" lon="-1.68421">
        <ele>8</ele>
        <time>2023-08-22T13:16:10.362+00:00</time>
      </trkpt>
      <trkpt lat="49.32535" lon="-1.68426">
        <ele>8</ele>
        <time>2023-08-22T13:16:14.822+00:00</time>
      </trkpt>
      <trkpt lat="49.32538" lon="-1.6843">
        <ele>8</ele>
        <time>2023-08-22T13:16:18.991+00:00</time>
      </trkpt>
      <trkpt lat="49.32541" lon="-1.68435">
        <ele>8</ele>
        <time>2023-08-22T13:16:23.187+00:00</time>
      </trkpt>
      <trkpt lat="49.32545" lon="-1.6844">
        <ele>9</ele>
        <time>2023-08-22T13:16:27.981+00:00</time>
      </trkpt>
      <trkpt lat="49.32549" lon="-1.68447">
        <ele>9</ele>
        <time>2023-08-22T13:16:32.738+00:00</time>
      </trkpt>
      <trkpt lat="49.32552" lon="-1.68452">
        <ele>9</ele>
        <time>2023-08-22T13:16:36.732+00:00</time>
      </trkpt>
      <trkpt lat="49.32556" lon="-1.68458">
        <ele>9</ele>
        <time>2023-08-22T13:16:40.926+00:00</time>
      </trkpt>
      <trkpt lat="49.3256" lon="-1.68463">
        <ele>9</ele>
        <time>2023-08-22T13:16:45.600+00:00</time>
      </trkpt>
      <trkpt lat="49.32564" lon="-1.68468">
        <ele>9</ele>
        <time>2023-08-22T13:16:49.536+00:00</time>
      </trkpt>
      <trkpt lat="49.32568" lon="-1.68473">
        <ele>9</ele>
        <time>2023-08-22T13:16:53.732+00:00</time>
      </trkpt>
      <trkpt lat="49.3257" lon="-1.6848">
        <ele>9</ele>
        <time>2023-08-22T13:16:57.906+00:00</time>
      </trkpt>
      <trkpt lat="49.3257" lon="-1.68486">
        <ele>9</ele>
        <time>2023-08-22T13:17:02.101+00:00</time>
      </trkpt>
      <trkpt lat="49.32574" lon="-1.68491">
        <ele>9</ele>
        <time>2023-08-22T13:17:06.716+00:00</time>
      </trkpt>
      <trkpt lat="49.32578" lon="-1.68495">
        <ele>9</ele>
        <time>2023-08-22T13:17:10.771+00:00</time>
      </trkpt>
      <trkpt lat="49.32582" lon="-1.68499">
        <ele>9</ele>
        <time>2023-08-22T13:17:14.984+00:00</time>
      </trkpt>
      <trkpt lat="49.32585" lon="-1.68503">
        <ele>9</ele>
        <time>2023-08-22T13:17:19.177+00:00</time>
      </trkpt>
      <trkpt lat="49.32589" lon="-1.68508">
        <ele>9</ele>
        <time>2023-08-22T13:17:23.370+00:00</time>
      </trkpt>
      <trkpt lat="49.32593" lon="-1.68512">
        <ele>9</ele>
        <time>2023-08-22T13:17:27.564+00:00</time>
      </trkpt>
      <trkpt lat="49.32596" lon="-1.68517">
        <ele>8</ele>
        <time>2023-08-22T13:17:31.717+00:00</time>
      </trkpt>
      <trkpt lat="49.326" lon="-1.68524">
        <ele>7</ele>
        <time>2023-08-22T13:17:36.271+00:00</time>
      </trkpt>
      <trkpt lat="49.32603" lon="-1.68527">
        <ele>7</ele>
        <time>2023-08-22T13:17:40.345+00:00</time>
      </trkpt>
      <trkpt lat="49.32607" lon="-1.6853">
        <ele>7</ele>
        <time>2023-08-22T13:17:44.540+00:00</time>
      </trkpt>
      <trkpt lat="49.3261" lon="-1.68537">
        <ele>7</ele>
        <time>2023-08-22T13:17:48.376+00:00</time>
      </trkpt>
      <trkpt lat="49.32614" lon="-1.68543">
        <ele>7</ele>
        <time>2023-08-22T13:17:52.931+00:00</time>
      </trkpt>
      <trkpt lat="49.32618" lon="-1.68549">
        <ele>7</ele>
        <time>2023-08-22T13:17:57.347+00:00</time>
      </trkpt>
      <trkpt lat="49.32623" lon="-1.68555">
        <ele>7</ele>
        <time>2023-08-22T13:18:01.884+00:00</time>
      </trkpt>
      <trkpt lat="49.32627" lon="-1.68559">
        <ele>6</ele>
        <time>2023-08-22T13:18:05.978+00:00</time>
      </trkpt>
      <trkpt lat="49.32633" lon="-1.68559">
        <ele>6</ele>
        <time>2023-08-22T13:18:10.573+00:00</time>
      </trkpt>
      <trkpt lat="49.32636" lon="-1.68565">
        <ele>6</ele>
        <time>2023-08-22T13:18:14.648+00:00</time>
      </trkpt>
      <trkpt lat="49.32639" lon="-1.68569">
        <ele>6</ele>
        <time>2023-08-22T13:18:18.724+00:00</time>
      </trkpt>
      <trkpt lat="49.32643" lon="-1.68572">
        <ele>6</ele>
        <time>2023-08-22T13:18:22.771+00:00</time>
      </trkpt>
      <trkpt lat="49.32647" lon="-1.68577">
        <ele>6</ele>
        <time>2023-08-22T13:18:27.074+00:00</time>
      </trkpt>
      <trkpt lat="49.32651" lon="-1.6858">
        <ele>6</ele>
        <time>2023-08-22T13:18:31.147+00:00</time>
      </trkpt>
      <trkpt lat="49.32655" lon="-1.68584">
        <ele>7</ele>
        <time>2023-08-22T13:18:35.324+00:00</time>
      </trkpt>
      <trkpt lat="49.32659" lon="-1.6859">
        <ele>7</ele>
        <time>2023-08-22T13:18:39.520+00:00</time>
      </trkpt>
      <trkpt lat="49.32662" lon="-1.68595">
        <ele>7</ele>
        <time>2023-08-22T13:18:43.595+00:00</time>
      </trkpt>
      <trkpt lat="49.32665" lon="-1.68601">
        <ele>6</ele>
        <time>2023-08-22T13:18:47.771+00:00</time>
      </trkpt>
      <trkpt lat="49.32669" lon="-1.68606">
        <ele>6</ele>
        <time>2023-08-22T13:18:52.346+00:00</time>
      </trkpt>
      <trkpt lat="49.32673" lon="-1.68609">
        <ele>6</ele>
        <time>2023-08-22T13:18:56.541+00:00</time>
      </trkpt>
      <trkpt lat="49.32678" lon="-1.68614">
        <ele>6</ele>
        <time>2023-08-22T13:19:00.737+00:00</time>
      </trkpt>
      <trkpt lat="49.32682" lon="-1.68619">
        <ele>7</ele>
        <time>2023-08-22T13:19:04.914+00:00</time>
      </trkpt>
      <trkpt lat="49.32685" lon="-1.68624">
        <ele>7</ele>
        <time>2023-08-22T13:19:08.950+00:00</time>
      </trkpt>
      <trkpt lat="49.32688" lon="-1.68629">
        <ele>6</ele>
        <time>2023-08-22T13:19:13.024+00:00</time>
      </trkpt>
      <trkpt lat="49.32692" lon="-1.68634">
        <ele>6</ele>
        <time>2023-08-22T13:19:17.100+00:00</time>
      </trkpt>
      <trkpt lat="49.32696" lon="-1.68637">
        <ele>6</ele>
        <time>2023-08-22T13:19:21.175+00:00</time>
      </trkpt>
      <trkpt lat="49.327" lon="-1.68641">
        <ele>6</ele>
        <time>2023-08-22T13:19:25.371+00:00</time>
      </trkpt>
      <trkpt lat="49.32703" lon="-1.68644">
        <ele>6</ele>
        <time>2023-08-22T13:19:29.568+00:00</time>
      </trkpt>
      <trkpt lat="49.32706" lon="-1.68649">
        <ele>6</ele>
        <time>2023-08-22T13:19:33.943+00:00</time>
      </trkpt>
      <trkpt lat="49.32709" lon="-1.68656">
        <ele>6</ele>
        <time>2023-08-22T13:19:38.736+00:00</time>
      </trkpt>
      <trkpt lat="49.32712" lon="-1.68661">
        <ele>6</ele>
        <time>2023-08-22T13:19:42.942+00:00</time>
      </trkpt>
      <trkpt lat="49.32714" lon="-1.68668">
        <ele>6</ele>
        <time>2023-08-22T13:19:47.123+00:00</time>
      </trkpt>
      <trkpt lat="49.32717" lon="-1.68673">
        <ele>6</ele>
        <time>2023-08-22T13:19:51.316+00:00</time>
      </trkpt>
      <trkpt lat="49.32722" lon="-1.68677">
        <ele>6</ele>
        <time>2023-08-22T13:19:55.391+00:00</time>
      </trkpt>
      <trkpt lat="49.32726" lon="-1.68682">
        <ele>6</ele>
        <time>2023-08-22T13:19:59.545+00:00</time>
      </trkpt>
      <trkpt lat="49.3273" lon="-1.68688">
        <ele>6</ele>
        <time>2023-08-22T13:20:03.740+00:00</time>
      </trkpt>
      <trkpt lat="49.32734" lon="-1.68693">
        <ele>6</ele>
        <time>2023-08-22T13:20:07.813+00:00</time>
      </trkpt>
      <trkpt lat="49.32738" lon="-1.68698">
        <ele>7</ele>
        <time>2023-08-22T13:20:11.970+00:00</time>
      </trkpt>
      <trkpt lat="49.32742" lon="-1.68702">
        <ele>7</ele>
        <time>2023-08-22T13:20:16.164+00:00</time>
      </trkpt>
      <trkpt lat="49.32747" lon="-1.68706">
        <ele>7</ele>
        <time>2023-08-22T13:20:20.784+00:00</time>
      </trkpt>
      <trkpt lat="49.32751" lon="-1.68711">
        <ele>6</ele>
        <time>2023-08-22T13:20:24.771+00:00</time>
      </trkpt>
      <trkpt lat="49.32754" lon="-1.68713">
        <ele>6</ele>
        <time>2023-08-22T13:20:28.951+00:00</time>
      </trkpt>
      <trkpt lat="49.32758" lon="-1.68719">
        <ele>6</ele>
        <time>2023-08-22T13:20:32.988+00:00</time>
      </trkpt>
      <trkpt lat="49.32763" lon="-1.6871">
        <ele>6</ele>
        <time>2023-08-22T13:20:51.647+00:00</time>
      </trkpt>
      <trkpt lat="49.32765" lon="-1.68709">
        <ele>6</ele>
        <time>2023-08-22T13:20:55.682+00:00</time>
      </trkpt>
      <trkpt lat="49.32772" lon="-1.68714">
        <ele>6</ele>
        <time>2023-08-22T13:21:00.280+00:00</time>
      </trkpt>
      <trkpt lat="49.32777" lon="-1.68715">
        <ele>6</ele>
        <time>2023-08-22T13:21:04.732+00:00</time>
      </trkpt>
      <trkpt lat="49.32782" lon="-1.68716">
        <ele>6</ele>
        <time>2023-08-22T13:21:08.687+00:00</time>
      </trkpt>
      <trkpt lat="49.32786" lon="-1.6872">
        <ele>6</ele>
        <time>2023-08-22T13:21:12.643+00:00</time>
      </trkpt>
      <trkpt lat="49.3279" lon="-1.68722">
        <ele>6</ele>
        <time>2023-08-22T13:21:16.660+00:00</time>
      </trkpt>
      <trkpt lat="49.32795" lon="-1.68723">
        <ele>5</ele>
        <time>2023-08-22T13:21:20.737+00:00</time>
      </trkpt>
      <trkpt lat="49.328" lon="-1.68721">
        <ele>5</ele>
        <time>2023-08-22T13:21:25.274+00:00</time>
      </trkpt>
      <trkpt lat="49.32805" lon="-1.68719">
        <ele>5</ele>
        <time>2023-08-22T13:21:29.787+00:00</time>
      </trkpt>
      <trkpt lat="49.3281" lon="-1.68718">
        <ele>5</ele>
        <time>2023-08-22T13:21:33.385+00:00</time>
      </trkpt>
      <trkpt lat="49.32815" lon="-1.68715">
        <ele>5</ele>
        <time>2023-08-22T13:21:37.341+00:00</time>
      </trkpt>
      <trkpt lat="49.3282" lon="-1.68715">
        <ele>4</ele>
        <time>2023-08-22T13:21:41.996+00:00</time>
      </trkpt>
      <trkpt lat="49.32825" lon="-1.68712">
        <ele>4</ele>
        <time>2023-08-22T13:21:45.952+00:00</time>
      </trkpt>
      <trkpt lat="49.3283" lon="-1.68711">
        <ele>4</ele>
        <time>2023-08-22T13:21:50.626+00:00</time>
      </trkpt>
      <trkpt lat="49.32834" lon="-1.68711">
        <ele>4</ele>
        <time>2023-08-22T13:21:54.582+00:00</time>
      </trkpt>
      <trkpt lat="49.32839" lon="-1.6871">
        <ele>4</ele>
        <time>2023-08-22T13:21:58.704+00:00</time>
      </trkpt>
      <trkpt lat="49.32844" lon="-1.68712">
        <ele>4</ele>
        <time>2023-08-22T13:22:02.771+00:00</time>
      </trkpt>
      <trkpt lat="49.3285" lon="-1.68712">
        <ele>3</ele>
        <time>2023-08-22T13:22:07.345+00:00</time>
      </trkpt>
      <trkpt lat="49.32855" lon="-1.68711">
        <ele>3</ele>
        <time>2023-08-22T13:22:11.902+00:00</time>
      </trkpt>
      <trkpt lat="49.32859" lon="-1.68709">
        <ele>3</ele>
        <time>2023-08-22T13:22:15.939+00:00</time>
      </trkpt>
      <trkpt lat="49.32865" lon="-1.68707">
        <ele>3</ele>
        <time>2023-08-22T13:22:20.533+00:00</time>
      </trkpt>
      <trkpt lat="49.3287" lon="-1.68707">
        <ele>3</ele>
        <time>2023-08-22T13:22:24.728+00:00</time>
      </trkpt>
      <trkpt lat="49.32875" lon="-1.68706">
        <ele>3</ele>
        <time>2023-08-22T13:22:28.921+00:00</time>
      </trkpt>
      <trkpt lat="49.32881" lon="-1.68704">
        <ele>3</ele>
        <time>2023-08-22T13:22:33.714+00:00</time>
      </trkpt>
      <trkpt lat="49.32885" lon="-1.68704">
        <ele>3</ele>
        <time>2023-08-22T13:22:37.414+00:00</time>
      </trkpt>
      <trkpt lat="49.3289" lon="-1.68702">
        <ele>3</ele>
        <time>2023-08-22T13:22:42.176+00:00</time>
      </trkpt>
      <trkpt lat="49.32897" lon="-1.68699">
        <ele>3</ele>
        <time>2023-08-22T13:22:47.696+00:00</time>
      </trkpt>
      <trkpt lat="49.32901" lon="-1.68694">
        <ele>3</ele>
        <time>2023-08-22T13:22:51.771+00:00</time>
      </trkpt>
      <trkpt lat="49.32903" lon="-1.68689">
        <ele>2</ele>
        <time>2023-08-22T13:22:55.968+00:00</time>
      </trkpt>
      <trkpt lat="49.32909" lon="-1.68691">
        <ele>2</ele>
        <time>2023-08-22T13:23:00.143+00:00</time>
      </trkpt>
      <trkpt lat="49.32915" lon="-1.68688">
        <ele>2</ele>
        <time>2023-08-22T13:23:04.339+00:00</time>
      </trkpt>
      <trkpt lat="49.32919" lon="-1.68686">
        <ele>2</ele>
        <time>2023-08-22T13:23:08.840+00:00</time>
      </trkpt>
      <trkpt lat="49.32927" lon="-1.6868">
        <ele>2</ele>
        <time>2023-08-22T13:23:30.160+00:00</time>
      </trkpt>
      <trkpt lat="49.32931" lon="-1.68676">
        <ele>2</ele>
        <time>2023-08-22T13:23:34.298+00:00</time>
      </trkpt>
      <trkpt lat="49.32936" lon="-1.68673">
        <ele>2</ele>
        <time>2023-08-22T13:23:38.813+00:00</time>
      </trkpt>
      <trkpt lat="49.32941" lon="-1.68672">
        <ele>2</ele>
        <time>2023-08-22T13:23:42.816+00:00</time>
      </trkpt>
      <trkpt lat="49.32946" lon="-1.68675">
        <ele>2</ele>
        <time>2023-08-22T13:23:46.817+00:00</time>
      </trkpt>
      <trkpt lat="49.32951" lon="-1.68677">
        <ele>2</ele>
        <time>2023-08-22T13:23:50.886+00:00</time>
      </trkpt>
      <trkpt lat="49.32956" lon="-1.68677">
        <ele>2</ele>
        <time>2023-08-22T13:23:55.349+00:00</time>
      </trkpt>
      <trkpt lat="49.32961" lon="-1.68678">
        <ele>1</ele>
        <time>2023-08-22T13:23:59.073+00:00</time>
      </trkpt>
      <trkpt lat="49.32965" lon="-1.68677">
        <ele>1</ele>
        <time>2023-08-22T13:24:03.594+00:00</time>
      </trkpt>
      <trkpt lat="49.3297" lon="-1.68678">
        <ele>1</ele>
        <time>2023-08-22T13:24:08.610+00:00</time>
      </trkpt>
      <trkpt lat="49.32973" lon="-1.68677">
        <ele>1</ele>
        <time>2023-08-22T13:24:12.623+00:00</time>
      </trkpt>
      <trkpt lat="49.32977" lon="-1.68685">
        <ele>1</ele>
        <time>2023-08-22T13:24:16.735+00:00</time>
      </trkpt>
      <trkpt lat="49.32983" lon="-1.68687">
        <ele>1</ele>
        <time>2023-08-22T13:24:20.744+00:00</time>
      </trkpt>
      <trkpt lat="49.32988" lon="-1.68688">
        <ele>4.4</ele>
        <time>2023-08-22T13:24:24.753+00:00</time>
      </trkpt>
      <trkpt lat="49.32994" lon="-1.68687">
        <ele>4.2</ele>
        <time>2023-08-22T13:24:29.762+00:00</time>
      </trkpt>
      <trkpt lat="49.32999" lon="-1.68688">
        <ele>4</ele>
        <time>2023-08-22T13:24:33.770+00:00</time>
      </trkpt>
      <trkpt lat="49.33004" lon="-1.68689">
        <ele>3.8</ele>
        <time>2023-08-22T13:24:38.377+00:00</time>
      </trkpt>
      <trkpt lat="49.33008" lon="-1.6869">
        <ele>3.7</ele>
        <time>2023-08-22T13:24:42.384+00:00</time>
      </trkpt>
      <trkpt lat="49.33012" lon="-1.68692">
        <ele>3.6</ele>
        <time>2023-08-22T13:24:46.390+00:00</time>
      </trkpt>
      <trkpt lat="49.33016" lon="-1.68693">
        <ele>2</ele>
        <time>2023-08-22T13:24:50.897+00:00</time>
      </trkpt>
      <trkpt lat="49.33021" lon="-1.68694">
        <ele>2</ele>
        <time>2023-08-22T13:24:54.902+00:00</time>
      </trkpt>
      <trkpt lat="49.33025" lon="-1.68693">
        <ele>2</ele>
        <time>2023-08-22T13:24:58.908+00:00</time>
      </trkpt>
      <trkpt lat="49.33029" lon="-1.68694">
        <ele>2</ele>
        <time>2023-08-22T13:25:03.418+00:00</time>
      </trkpt>
      <trkpt lat="49.33034" lon="-1.68694">
        <ele>2</ele>
        <time>2023-08-22T13:25:07.423+00:00</time>
      </trkpt>
      <trkpt lat="49.33039" lon="-1.68693">
        <ele>2</ele>
        <time>2023-08-22T13:25:11.429+00:00</time>
      </trkpt>
      <trkpt lat="49.33044" lon="-1.68695">
        <ele>5</ele>
        <time>2023-08-22T13:25:15.435+00:00</time>
      </trkpt>
      <trkpt lat="49.33049" lon="-1.68696">
        <ele>5</ele>
        <time>2023-08-22T13:25:19.944+00:00</time>
      </trkpt>
      <trkpt lat="49.33054" lon="-1.68699">
        <ele>5</ele>
        <time>2023-08-22T13:25:23.951+00:00</time>
      </trkpt>
      <trkpt lat="49.33054" lon="-1.68705">
        <ele>5</ele>
        <time>2023-08-22T13:25:28.458+00:00</time>
      </trkpt>
      <trkpt lat="49.33054" lon="-1.6871">
        <ele>4</ele>
        <time>2023-08-22T13:25:32.464+00:00</time>
      </trkpt>
      <trkpt lat="49.33056" lon="-1.68717">
        <ele>4</ele>
        <time>2023-08-22T13:25:36.973+00:00</time>
      </trkpt>
      <trkpt lat="49.33056" lon="-1.68726">
        <ele>4</ele>
        <time>2023-08-22T13:25:41.181+00:00</time>
      </trkpt>
      <trkpt lat="49.33055" lon="-1.68734">
        <ele>4</ele>
        <time>2023-08-22T13:25:45.187+00:00</time>
      </trkpt>
      <trkpt lat="49.33052" lon="-1.68743">
        <ele>3</ele>
        <time>2023-08-22T13:25:49.695+00:00</time>
      </trkpt>
      <trkpt lat="49.3305" lon="-1.6875">
        <ele>3</ele>
        <time>2023-08-22T13:25:53.702+00:00</time>
      </trkpt>
      <trkpt lat="49.33048" lon="-1.68758">
        <ele>3</ele>
        <time>2023-08-22T13:25:58.211+00:00</time>
      </trkpt>
      <trkpt lat="49.33046" lon="-1.68764">
        <ele>3</ele>
        <time>2023-08-22T13:26:02.720+00:00</time>
      </trkpt>
      <trkpt lat="49.33044" lon="-1.68769">
        <ele>3</ele>
        <time>2023-08-22T13:26:06.728+00:00</time>
      </trkpt>
      <trkpt lat="49.33041" lon="-1.68775">
        <ele>2</ele>
        <time>2023-08-22T13:26:10.735+00:00</time>
      </trkpt>
      <trkpt lat="49.33037" lon="-1.68782">
        <ele>2</ele>
        <time>2023-08-22T13:26:14.942+00:00</time>
      </trkpt>
      <trkpt lat="49.33034" lon="-1.68789">
        <ele>2</ele>
        <time>2023-08-22T13:26:19.548+00:00</time>
      </trkpt>
      <trkpt lat="49.33031" lon="-1.68797">
        <ele>3</ele>
        <time>2023-08-22T13:26:24.074+00:00</time>
      </trkpt>
      <trkpt lat="49.3303" lon="-1.68804">
        <ele>3</ele>
        <time>2023-08-22T13:26:28.682+00:00</time>
      </trkpt>
      <trkpt lat="49.33028" lon="-1.68811">
        <ele>3</ele>
        <time>2023-08-22T13:26:32.688+00:00</time>
      </trkpt>
      <trkpt lat="49.33026" lon="-1.68818">
        <ele>3</ele>
        <time>2023-08-22T13:26:36.695+00:00</time>
      </trkpt>
      <trkpt lat="49.33024" lon="-1.68825">
        <ele>4</ele>
        <time>2023-08-22T13:26:40.701+00:00</time>
      </trkpt>
      <trkpt lat="49.33022" lon="-1.68834">
        <ele>4</ele>
        <time>2023-08-22T13:26:45.209+00:00</time>
      </trkpt>
      <trkpt lat="49.33021" lon="-1.68841">
        <ele>4</ele>
        <time>2023-08-22T13:26:49.315+00:00</time>
      </trkpt>
      <trkpt lat="49.33019" lon="-1.68848">
        <ele>4</ele>
        <time>2023-08-22T13:26:53.824+00:00</time>
      </trkpt>
      <trkpt lat="49.33017" lon="-1.68854">
        <ele>4</ele>
        <time>2023-08-22T13:26:57.834+00:00</time>
      </trkpt>
      <trkpt lat="49.33017" lon="-1.68862">
        <ele>4</ele>
        <time>2023-08-22T13:27:02.344+00:00</time>
      </trkpt>
      <trkpt lat="49.33017" lon="-1.6887">
        <ele>4</ele>
        <time>2023-08-22T13:27:06.352+00:00</time>
      </trkpt>
      <trkpt lat="49.33016" lon="-1.68876">
        <ele>5</ele>
        <time>2023-08-22T13:27:10.360+00:00</time>
      </trkpt>
      <trkpt lat="49.33015" lon="-1.68884">
        <ele>5</ele>
        <time>2023-08-22T13:27:14.868+00:00</time>
      </trkpt>
      <trkpt lat="49.33013" lon="-1.68891">
        <ele>3</ele>
        <time>2023-08-22T13:27:18.875+00:00</time>
      </trkpt>
      <trkpt lat="49.33011" lon="-1.68898">
        <ele>3</ele>
        <time>2023-08-22T13:27:22.885+00:00</time>
      </trkpt>
      <trkpt lat="49.3301" lon="-1.68904">
        <ele>4</ele>
        <time>2023-08-22T13:27:26.896+00:00</time>
      </trkpt>
      <trkpt lat="49.33007" lon="-1.68912">
        <ele>4</ele>
        <time>2023-08-22T13:27:31.405+00:00</time>
      </trkpt>
      <trkpt lat="49.33005" lon="-1.68918">
        <ele>4</ele>
        <time>2023-08-22T13:27:35.409+00:00</time>
      </trkpt>
      <trkpt lat="49.33002" lon="-1.68925">
        <ele>4</ele>
        <time>2023-08-22T13:27:39.971+00:00</time>
      </trkpt>
      <trkpt lat="49.32999" lon="-1.68931">
        <ele>5</ele>
        <time>2023-08-22T13:27:44.273+00:00</time>
      </trkpt>
      <trkpt lat="49.32997" lon="-1.68938">
        <ele>5</ele>
        <time>2023-08-22T13:27:48.394+00:00</time>
      </trkpt>
      <trkpt lat="49.32995" lon="-1.68945">
        <ele>5</ele>
        <time>2023-08-22T13:27:52.896+00:00</time>
      </trkpt>
      <trkpt lat="49.32993" lon="-1.68953">
        <ele>5</ele>
        <time>2023-08-22T13:27:57.558+00:00</time>
      </trkpt>
      <trkpt lat="49.32991" lon="-1.6896">
        <ele>6</ele>
        <time>2023-08-22T13:28:01.417+00:00</time>
      </trkpt>
      <trkpt lat="49.3299" lon="-1.68967">
        <ele>6</ele>
        <time>2023-08-22T13:28:05.377+00:00</time>
      </trkpt>
      <trkpt lat="49.3299" lon="-1.68975">
        <ele>6</ele>
        <time>2023-08-22T13:28:10.354+00:00</time>
      </trkpt>
      <trkpt lat="49.32989" lon="-1.68983">
        <ele>6</ele>
        <time>2023-08-22T13:28:14.821+00:00</time>
      </trkpt>
      <trkpt lat="49.32988" lon="-1.68991">
        <ele>6</ele>
        <time>2023-08-22T13:28:18.970+00:00</time>
      </trkpt>
      <trkpt lat="49.32988" lon="-1.68999">
        <ele>6</ele>
        <time>2023-08-22T13:28:23.404+00:00</time>
      </trkpt>
      <trkpt lat="49.32988" lon="-1.69007">
        <ele>6</ele>
        <time>2023-08-22T13:28:27.359+00:00</time>
      </trkpt>
      <trkpt lat="49.32988" lon="-1.69016">
        <ele>6</ele>
        <time>2023-08-22T13:28:32.156+00:00</time>
      </trkpt>
      <trkpt lat="49.32988" lon="-1.69023">
        <ele>6</ele>
        <time>2023-08-22T13:28:36.112+00:00</time>
      </trkpt>
      <trkpt lat="49.32988" lon="-1.69031">
        <ele>6</ele>
        <time>2023-08-22T13:28:40.188+00:00</time>
      </trkpt>
      <trkpt lat="49.32988" lon="-1.69039">
        <ele>6</ele>
        <time>2023-08-22T13:28:44.385+00:00</time>
      </trkpt>
      <trkpt lat="49.32989" lon="-1.69046">
        <ele>6</ele>
        <time>2023-08-22T13:28:48.582+00:00</time>
      </trkpt>
      <trkpt lat="49.3299" lon="-1.69055">
        <ele>6</ele>
        <time>2023-08-22T13:28:53.297+00:00</time>
      </trkpt>
      <trkpt lat="49.3299" lon="-1.69063">
        <ele>6</ele>
        <time>2023-08-22T13:28:57.852+00:00</time>
      </trkpt>
      <trkpt lat="49.3299" lon="-1.69071">
        <ele>6</ele>
        <time>2023-08-22T13:29:01.927+00:00</time>
      </trkpt>
      <trkpt lat="49.32991" lon="-1.6908">
        <ele>6</ele>
        <time>2023-08-22T13:29:06.362+00:00</time>
      </trkpt>
      <trkpt lat="49.32991" lon="-1.69088">
        <ele>6</ele>
        <time>2023-08-22T13:29:10.558+00:00</time>
      </trkpt>
      <trkpt lat="49.32991" lon="-1.69096">
        <ele>6</ele>
        <time>2023-08-22T13:29:14.752+00:00</time>
      </trkpt>
      <trkpt lat="49.32992" lon="-1.69103">
        <ele>6</ele>
        <time>2023-08-22T13:29:18.948+00:00</time>
      </trkpt>
      <trkpt lat="49.32993" lon="-1.69111">
        <ele>6</ele>
        <time>2023-08-22T13:29:23.143+00:00</time>
      </trkpt>
      <trkpt lat="49.32993" lon="-1.69119">
        <ele>6</ele>
        <time>2023-08-22T13:29:27.339+00:00</time>
      </trkpt>
      <trkpt lat="49.32993" lon="-1.69127">
        <ele>5</ele>
        <time>2023-08-22T13:29:31.936+00:00</time>
      </trkpt>
      <trkpt lat="49.32993" lon="-1.69135">
        <ele>5</ele>
        <time>2023-08-22T13:29:35.951+00:00</time>
      </trkpt>
      <trkpt lat="49.32993" lon="-1.69143">
        <ele>5</ele>
        <time>2023-08-22T13:29:40.625+00:00</time>
      </trkpt>
      <trkpt lat="49.32993" lon="-1.6915">
        <ele>5</ele>
        <time>2023-08-22T13:29:44.698+00:00</time>
      </trkpt>
      <trkpt lat="49.32994" lon="-1.69156">
        <ele>5</ele>
        <time>2023-08-22T13:29:48.770+00:00</time>
      </trkpt>
      <trkpt lat="49.32996" lon="-1.69163">
        <ele>5</ele>
        <time>2023-08-22T13:29:52.962+00:00</time>
      </trkpt>
      <trkpt lat="49.32995" lon="-1.69169">
        <ele>5</ele>
        <time>2023-08-22T13:29:56.857+00:00</time>
      </trkpt>
      <trkpt lat="49.32997" lon="-1.69176">
        <ele>5</ele>
        <time>2023-08-22T13:30:01.364+00:00</time>
      </trkpt>
      <trkpt lat="49.32997" lon="-1.69176">
        <ele>5</ele>
        <time>2023-08-22T13:30:05.470+00:00</time>
      </trkpt>
      <trkpt lat="49.32997" lon="-1.69179">
        <ele>5</ele>
        <time>2023-08-22T13:30:09.981+00:00</time>
      </trkpt>
      <trkpt lat="49.32996" lon="-1.69189">
        <ele>4</ele>
        <time>2023-08-22T13:30:14.490+00:00</time>
      </trkpt>
      <trkpt lat="49.32996" lon="-1.69199">
        <ele>4</ele>
        <time>2023-08-22T13:30:18.994+00:00</time>
      </trkpt>
      <trkpt lat="49.32997" lon="-1.69208">
        <ele>4</ele>
        <time>2023-08-22T13:30:23.502+00:00</time>
      </trkpt>
      <trkpt lat="49.32997" lon="-1.69207">
        <ele>4</ele>
        <time>2023-08-22T13:30:27.511+00:00</time>
      </trkpt>
      <trkpt lat="49.32998" lon="-1.69205">
        <ele>4</ele>
        <time>2023-08-22T13:30:32.125+00:00</time>
      </trkpt>
      <trkpt lat="49.32997" lon="-1.69221">
        <ele>4</ele>
        <time>2023-08-22T13:30:36.637+00:00</time>
      </trkpt>
      <trkpt lat="49.32996" lon="-1.69233">
        <ele>4</ele>
        <time>2023-08-22T13:30:41.249+00:00</time>
      </trkpt>
      <trkpt lat="49.32996" lon="-1.69233">
        <ele>4</ele>
        <time>2023-08-22T13:30:45.262+00:00</time>
      </trkpt>
      <trkpt lat="49.33" lon="-1.69241">
        <ele>3</ele>
        <time>2023-08-22T13:30:49.374+00:00</time>
      </trkpt>
      <trkpt lat="49.33001" lon="-1.69248">
        <ele>3</ele>
        <time>2023-08-22T13:30:53.384+00:00</time>
      </trkpt>
      <trkpt lat="49.33001" lon="-1.69249">
        <ele>3</ele>
        <time>2023-08-22T13:30:57.396+00:00</time>
      </trkpt>
      <trkpt lat="49.33002" lon="-1.69249">
        <ele>3</ele>
        <time>2023-08-22T13:31:01.909+00:00</time>
      </trkpt>
      <trkpt lat="49.33005" lon="-1.69252">
        <ele>3</ele>
        <time>2023-08-22T13:31:06.420+00:00</time>
      </trkpt>
      <trkpt lat="49.33011" lon="-1.69261">
        <ele>3</ele>
        <time>2023-08-22T13:31:10.429+00:00</time>
      </trkpt>
      <trkpt lat="49.33017" lon="-1.69268">
        <ele>3</ele>
        <time>2023-08-22T13:31:14.438+00:00</time>
      </trkpt>
      <trkpt lat="49.33023" lon="-1.69273">
        <ele>3</ele>
        <time>2023-08-22T13:31:18.546+00:00</time>
      </trkpt>
      <trkpt lat="49.33029" lon="-1.69279">
        <ele>3</ele>
        <time>2023-08-22T13:31:23.260+00:00</time>
      </trkpt>
      <trkpt lat="49.33033" lon="-1.69283">
        <ele>3</ele>
        <time>2023-08-22T13:31:27.364+00:00</time>
      </trkpt>
      <trkpt lat="49.33038" lon="-1.69289">
        <ele>3</ele>
        <time>2023-08-22T13:31:31.372+00:00</time>
      </trkpt>
      <trkpt lat="49.33042" lon="-1.69299">
        <ele>4</ele>
        <time>2023-08-22T13:31:45.503+00:00</time>
      </trkpt>
      <trkpt lat="49.33048" lon="-1.69308">
        <ele>4</ele>
        <time>2023-08-22T13:31:50.015+00:00</time>
      </trkpt>
      <trkpt lat="49.33051" lon="-1.69317">
        <ele>4</ele>
        <time>2023-08-22T13:31:54.023+00:00</time>
      </trkpt>
      <trkpt lat="49.33056" lon="-1.69325">
        <ele>3</ele>
        <time>2023-08-22T13:31:58.532+00:00</time>
      </trkpt>
      <trkpt lat="49.3306" lon="-1.69333">
        <ele>3</ele>
        <time>2023-08-22T13:32:03.142+00:00</time>
      </trkpt>
      <trkpt lat="49.33063" lon="-1.69342">
        <ele>3</ele>
        <time>2023-08-22T13:32:07.151+00:00</time>
      </trkpt>
      <trkpt lat="49.33065" lon="-1.6935">
        <ele>2</ele>
        <time>2023-08-22T13:32:11.160+00:00</time>
      </trkpt>
      <trkpt lat="49.33068" lon="-1.69358">
        <ele>2</ele>
        <time>2023-08-22T13:32:15.168+00:00</time>
      </trkpt>
      <trkpt lat="49.3307" lon="-1.69367">
        <ele>5</ele>
        <time>2023-08-22T13:32:19.876+00:00</time>
      </trkpt>
      <trkpt lat="49.3307" lon="-1.69374">
        <ele>5</ele>
        <time>2023-08-22T13:32:23.884+00:00</time>
      </trkpt>
      <trkpt lat="49.33071" lon="-1.69382">
        <ele>4</ele>
        <time>2023-08-22T13:32:28.393+00:00</time>
      </trkpt>
      <trkpt lat="49.33072" lon="-1.6939">
        <ele>4</ele>
        <time>2023-08-22T13:32:32.902+00:00</time>
      </trkpt>
      <trkpt lat="49.33073" lon="-1.69398">
        <ele>4</ele>
        <time>2023-08-22T13:32:37.512+00:00</time>
      </trkpt>
      <trkpt lat="49.33073" lon="-1.69408">
        <ele>4</ele>
        <time>2023-08-22T13:32:52.545+00:00</time>
      </trkpt>
      <trkpt lat="49.33075" lon="-1.69417">
        <ele>4</ele>
        <time>2023-08-22T13:32:57.055+00:00</time>
      </trkpt>
      <trkpt lat="49.33075" lon="-1.6943">
        <ele>4</ele>
        <time>2023-08-22T13:33:01.065+00:00</time>
      </trkpt>
      <trkpt lat="49.33075" lon="-1.69439">
        <ele>4</ele>
        <time>2023-08-22T13:33:05.075+00:00</time>
      </trkpt>
      <trkpt lat="49.33076" lon="-1.6945">
        <ele>4</ele>
        <time>2023-08-22T13:33:09.686+00:00</time>
      </trkpt>
      <trkpt lat="49.33075" lon="-1.69458">
        <ele>4</ele>
        <time>2023-08-22T13:33:13.694+00:00</time>
      </trkpt>
      <trkpt lat="49.33075" lon="-1.69469">
        <ele>4</ele>
        <time>2023-08-22T13:33:18.204+00:00</time>
      </trkpt>
      <trkpt lat="49.33077" lon="-1.6948">
        <ele>4</ele>
        <time>2023-08-22T13:33:22.713+00:00</time>
      </trkpt>
      <trkpt lat="49.33078" lon="-1.69492">
        <ele>4</ele>
        <time>2023-08-22T13:33:27.224+00:00</time>
      </trkpt>
      <trkpt lat="49.3308" lon="-1.695">
        <ele>4</ele>
        <time>2023-08-22T13:33:31.235+00:00</time>
      </trkpt>
      <trkpt lat="49.33082" lon="-1.69508">
        <ele>4</ele>
        <time>2023-08-22T13:33:35.846+00:00</time>
      </trkpt>
      <trkpt lat="49.33083" lon="-1.69518">
        <ele>4</ele>
        <time>2023-08-22T13:33:40.356+00:00</time>
      </trkpt>
      <trkpt lat="49.33084" lon="-1.69524">
        <ele>4</ele>
        <time>2023-08-22T13:33:44.863+00:00</time>
      </trkpt>
      <trkpt lat="49.33086" lon="-1.69532">
        <ele>4</ele>
        <time>2023-08-22T13:33:48.868+00:00</time>
      </trkpt>
      <trkpt lat="49.3309" lon="-1.69539">
        <ele>4</ele>
        <time>2023-08-22T13:33:53.069+00:00</time>
      </trkpt>
      <trkpt lat="49.33091" lon="-1.69548">
        <ele>4</ele>
        <time>2023-08-22T13:33:57.771+00:00</time>
      </trkpt>
      <trkpt lat="49.33094" lon="-1.69556">
        <ele>4</ele>
        <time>2023-08-22T13:34:02.130+00:00</time>
      </trkpt>
      <trkpt lat="49.33098" lon="-1.69563">
        <ele>6</ele>
        <time>2023-08-22T13:34:06.331+00:00</time>
      </trkpt>
      <trkpt lat="49.33102" lon="-1.69569">
        <ele>6</ele>
        <time>2023-08-22T13:34:10.592+00:00</time>
      </trkpt>
      <trkpt lat="49.33106" lon="-1.69574">
        <ele>5</ele>
        <time>2023-08-22T13:34:15.344+00:00</time>
      </trkpt>
      <trkpt lat="49.3311" lon="-1.6958">
        <ele>5</ele>
        <time>2023-08-22T13:34:19.574+00:00</time>
      </trkpt>
      <trkpt lat="49.33114" lon="-1.69586">
        <ele>5</ele>
        <time>2023-08-22T13:34:24.295+00:00</time>
      </trkpt>
      <trkpt lat="49.33119" lon="-1.69591">
        <ele>5</ele>
        <time>2023-08-22T13:34:28.714+00:00</time>
      </trkpt>
      <trkpt lat="49.33124" lon="-1.69596">
        <ele>5</ele>
        <time>2023-08-22T13:34:33.213+00:00</time>
      </trkpt>
      <trkpt lat="49.33128" lon="-1.69602">
        <ele>4</ele>
        <time>2023-08-22T13:34:37.673+00:00</time>
      </trkpt>
      <trkpt lat="49.33133" lon="-1.69607">
        <ele>4</ele>
        <time>2023-08-22T13:34:41.993+00:00</time>
      </trkpt>
      <trkpt lat="49.33138" lon="-1.69613">
        <ele>4</ele>
        <time>2023-08-22T13:34:46.667+00:00</time>
      </trkpt>
      <trkpt lat="49.33142" lon="-1.69618">
        <ele>4</ele>
        <time>2023-08-22T13:34:50.955+00:00</time>
      </trkpt>
      <trkpt lat="49.33146" lon="-1.69624">
        <ele>4</ele>
        <time>2023-08-22T13:34:55.494+00:00</time>
      </trkpt>
      <trkpt lat="49.3315" lon="-1.69629">
        <ele>3</ele>
        <time>2023-08-22T13:34:59.934+00:00</time>
      </trkpt>
      <trkpt lat="49.33155" lon="-1.69635">
        <ele>4</ele>
        <time>2023-08-22T13:35:04.533+00:00</time>
      </trkpt>
      <trkpt lat="49.33159" lon="-1.69641">
        <ele>4</ele>
        <time>2023-08-22T13:35:08.612+00:00</time>
      </trkpt>
      <trkpt lat="49.33162" lon="-1.69646">
        <ele>4</ele>
        <time>2023-08-22T13:35:12.612+00:00</time>
      </trkpt>
      <trkpt lat="49.33166" lon="-1.69651">
        <ele>4</ele>
        <time>2023-08-22T13:35:16.631+00:00</time>
      </trkpt>
      <trkpt lat="49.33171" lon="-1.69657">
        <ele>3</ele>
        <time>2023-08-22T13:35:20.915+00:00</time>
      </trkpt>
      <trkpt lat="49.33172" lon="-1.69662">
        <ele>3</ele>
        <time>2023-08-22T13:35:25.429+00:00</time>
      </trkpt>
      <trkpt lat="49.33177" lon="-1.69667">
        <ele>3</ele>
        <time>2023-08-22T13:35:29.941+00:00</time>
      </trkpt>
      <trkpt lat="49.33183" lon="-1.69671">
        <ele>4</ele>
        <time>2023-08-22T13:35:34.473+00:00</time>
      </trkpt>
      <trkpt lat="49.33187" lon="-1.69676">
        <ele>4</ele>
        <time>2023-08-22T13:35:39.047+00:00</time>
      </trkpt>
      <trkpt lat="49.3319" lon="-1.69682">
        <ele>3</ele>
        <time>2023-08-22T13:35:43.090+00:00</time>
      </trkpt>
      <trkpt lat="49.33195" lon="-1.69688">
        <ele>3</ele>
        <time>2023-08-22T13:35:47.697+00:00</time>
      </trkpt>
      <trkpt lat="49.332" lon="-1.69694">
        <ele>3</ele>
        <time>2023-08-22T13:35:52.204+00:00</time>
      </trkpt>
      <trkpt lat="49.33204" lon="-1.69699">
        <ele>3</ele>
        <time>2023-08-22T13:35:56.925+00:00</time>
      </trkpt>
      <trkpt lat="49.33209" lon="-1.69705">
        <ele>5</ele>
        <time>2023-08-22T13:36:01.017+00:00</time>
      </trkpt>
      <trkpt lat="49.33214" lon="-1.6971">
        <ele>4</ele>
        <time>2023-08-22T13:36:05.522+00:00</time>
      </trkpt>
      <trkpt lat="49.33219" lon="-1.69715">
        <ele>4</ele>
        <time>2023-08-22T13:36:10.126+00:00</time>
      </trkpt>
      <trkpt lat="49.33223" lon="-1.69719">
        <ele>4</ele>
        <time>2023-08-22T13:36:14.730+00:00</time>
      </trkpt>
      <trkpt lat="49.33227" lon="-1.69723">
        <ele>4</ele>
        <time>2023-08-22T13:36:18.734+00:00</time>
      </trkpt>
      <trkpt lat="49.33232" lon="-1.69726">
        <ele>4</ele>
        <time>2023-08-22T13:36:22.738+00:00</time>
      </trkpt>
      <trkpt lat="49.33236" lon="-1.6973">
        <ele>4</ele>
        <time>2023-08-22T13:36:27.241+00:00</time>
      </trkpt>
      <trkpt lat="49.3324" lon="-1.69735">
        <ele>7</ele>
        <time>2023-08-22T13:36:31.745+00:00</time>
      </trkpt>
      <trkpt lat="49.33246" lon="-1.69738">
        <ele>5</ele>
        <time>2023-08-22T13:36:36.263+00:00</time>
      </trkpt>
      <trkpt lat="49.3325" lon="-1.69743">
        <ele>5</ele>
        <time>2023-08-22T13:36:40.770+00:00</time>
      </trkpt>
      <trkpt lat="49.33255" lon="-1.69747">
        <ele>5</ele>
        <time>2023-08-22T13:36:45.277+00:00</time>
      </trkpt>
      <trkpt lat="49.33259" lon="-1.6975">
        <ele>5</ele>
        <time>2023-08-22T13:36:49.784+00:00</time>
      </trkpt>
      <trkpt lat="49.33263" lon="-1.69754">
        <ele>5</ele>
        <time>2023-08-22T13:36:54.390+00:00</time>
      </trkpt>
      <trkpt lat="49.33269" lon="-1.69758">
        <ele>7</ele>
        <time>2023-08-22T13:36:58.895+00:00</time>
      </trkpt>
      <trkpt lat="49.33274" lon="-1.69763">
        <ele>7</ele>
        <time>2023-08-22T13:37:03.599+00:00</time>
      </trkpt>
      <trkpt lat="49.33278" lon="-1.69766">
        <ele>5</ele>
        <time>2023-08-22T13:37:07.602+00:00</time>
      </trkpt>
      <trkpt lat="49.33283" lon="-1.6977">
        <ele>5</ele>
        <time>2023-08-22T13:37:12.206+00:00</time>
      </trkpt>
      <trkpt lat="49.33288" lon="-1.69773">
        <ele>5</ele>
        <time>2023-08-22T13:37:16.712+00:00</time>
      </trkpt>
      <trkpt lat="49.33293" lon="-1.69777">
        <ele>5</ele>
        <time>2023-08-22T13:37:20.715+00:00</time>
      </trkpt>
      <trkpt lat="49.33297" lon="-1.69781">
        <ele>5</ele>
        <time>2023-08-22T13:37:24.818+00:00</time>
      </trkpt>
      <trkpt lat="49.33301" lon="-1.69785">
        <ele>5</ele>
        <time>2023-08-22T13:37:28.821+00:00</time>
      </trkpt>
      <trkpt lat="49.33306" lon="-1.6979">
        <ele>5</ele>
        <time>2023-08-22T13:37:33.326+00:00</time>
      </trkpt>
      <trkpt lat="49.33312" lon="-1.69794">
        <ele>3</ele>
        <time>2023-08-22T13:37:38.539+00:00</time>
      </trkpt>
      <trkpt lat="49.33314" lon="-1.69797">
        <ele>3</ele>
        <time>2023-08-22T13:37:43.554+00:00</time>
      </trkpt>
      <trkpt lat="49.33316" lon="-1.69793">
        <ele>3</ele>
        <time>2023-08-22T13:37:48.769+00:00</time>
      </trkpt>
      <trkpt lat="49.33325" lon="-1.69803">
        <ele>5</ele>
        <time>2023-08-22T13:37:52.966+00:00</time>
      </trkpt>
      <trkpt lat="49.33331" lon="-1.69807">
        <ele>5</ele>
        <time>2023-08-22T13:37:57.089+00:00</time>
      </trkpt>
      <trkpt lat="49.33336" lon="-1.69812">
        <ele>5</ele>
        <time>2023-08-22T13:38:01.099+00:00</time>
      </trkpt>
      <trkpt lat="49.33341" lon="-1.69817">
        <ele>5</ele>
        <time>2023-08-22T13:38:05.608+00:00</time>
      </trkpt>
      <trkpt lat="49.33347" lon="-1.69822">
        <ele>3</ele>
        <time>2023-08-22T13:38:10.317+00:00</time>
      </trkpt>
      <trkpt lat="49.33351" lon="-1.69829">
        <ele>6</ele>
        <time>2023-08-22T13:38:14.925+00:00</time>
      </trkpt>
      <trkpt lat="49.33354" lon="-1.69836">
        <ele>6</ele>
        <time>2023-08-22T13:38:19.433+00:00</time>
      </trkpt>
      <trkpt lat="49.33359" lon="-1.69843">
        <ele>6</ele>
        <time>2023-08-22T13:38:23.742+00:00</time>
      </trkpt>
      <trkpt lat="49.33362" lon="-1.69848">
        <ele>4</ele>
        <time>2023-08-22T13:38:27.749+00:00</time>
      </trkpt>
      <trkpt lat="49.33365" lon="-1.69856">
        <ele>4</ele>
        <time>2023-08-22T13:38:32.257+00:00</time>
      </trkpt>
      <trkpt lat="49.33366" lon="-1.69861">
        <ele>4</ele>
        <time>2023-08-22T13:38:36.767+00:00</time>
      </trkpt>
      <trkpt lat="49.33372" lon="-1.69866">
        <ele>4</ele>
        <time>2023-08-22T13:38:41.279+00:00</time>
      </trkpt>
      <trkpt lat="49.33376" lon="-1.69872">
        <ele>7</ele>
        <time>2023-08-22T13:38:45.387+00:00</time>
      </trkpt>
      <trkpt lat="49.33379" lon="-1.6988">
        <ele>6</ele>
        <time>2023-08-22T13:38:50.398+00:00</time>
      </trkpt>
      <trkpt lat="49.33382" lon="-1.69883">
        <ele>6</ele>
        <time>2023-08-22T13:38:54.407+00:00</time>
      </trkpt>
      <trkpt lat="49.33387" lon="-1.69888">
        <ele>6</ele>
        <time>2023-08-22T13:38:58.919+00:00</time>
      </trkpt>
      <trkpt lat="49.33392" lon="-1.69895">
        <ele>6</ele>
        <time>2023-08-22T13:39:03.429+00:00</time>
      </trkpt>
      <trkpt lat="49.33398" lon="-1.69896">
        <ele>6</ele>
        <time>2023-08-22T13:39:07.440+00:00</time>
      </trkpt>
      <trkpt lat="49.33402" lon="-1.69893">
        <ele>6</ele>
        <time>2023-08-22T13:39:11.551+00:00</time>
      </trkpt>
      <trkpt lat="49.33405" lon="-1.69883">
        <ele>7</ele>
        <time>2023-08-22T13:39:16.761+00:00</time>
      </trkpt>
      <trkpt lat="49.33407" lon="-1.69875">
        <ele>8</ele>
        <time>2023-08-22T13:39:20.769+00:00</time>
      </trkpt>
      <trkpt lat="49.33409" lon="-1.69868">
        <ele>8</ele>
        <time>2023-08-22T13:39:24.783+00:00</time>
      </trkpt>
      <trkpt lat="49.33413" lon="-1.69862">
        <ele>8</ele>
        <time>2023-08-22T13:39:29.402+00:00</time>
      </trkpt>
      <trkpt lat="49.33415" lon="-1.69856">
        <ele>8</ele>
        <time>2023-08-22T13:39:32.994+00:00</time>
      </trkpt>
      <trkpt lat="49.33418" lon="-1.69849">
        <ele>8</ele>
        <time>2023-08-22T13:39:37.503+00:00</time>
      </trkpt>
      <trkpt lat="49.33421" lon="-1.69843">
        <ele>9</ele>
        <time>2023-08-22T13:39:41.511+00:00</time>
      </trkpt>
      <trkpt lat="49.33426" lon="-1.69839">
        <ele>9</ele>
        <time>2023-08-22T13:39:46.020+00:00</time>
      </trkpt>
      <trkpt lat="49.33431" lon="-1.69834">
        <ele>10</ele>
        <time>2023-08-22T13:39:50.526+00:00</time>
      </trkpt>
      <trkpt lat="49.33434" lon="-1.69828">
        <ele>10</ele>
        <time>2023-08-22T13:39:54.587+00:00</time>
      </trkpt>
      <trkpt lat="49.33439" lon="-1.69821">
        <ele>10</ele>
        <time>2023-08-22T13:39:59.169+00:00</time>
      </trkpt>
      <trkpt lat="49.33441" lon="-1.69815">
        <ele>10</ele>
        <time>2023-08-22T13:40:03.768+00:00</time>
      </trkpt>
      <trkpt lat="49.33443" lon="-1.69809">
        <ele>10</ele>
        <time>2023-08-22T13:40:07.771+00:00</time>
      </trkpt>
      <trkpt lat="49.33444" lon="-1.69803">
        <ele>10</ele>
        <time>2023-08-22T13:40:12.159+00:00</time>
      </trkpt>
      <trkpt lat="49.3345" lon="-1.69796">
        <ele>10</ele>
        <time>2023-08-22T13:41:00.816+00:00</time>
      </trkpt>
      <trkpt lat="49.33449" lon="-1.69794">
        <ele>10</ele>
        <time>2023-08-22T13:41:04.804+00:00</time>
      </trkpt>
      <trkpt lat="49.33448" lon="-1.69789">
        <ele>10</ele>
        <time>2023-08-22T13:41:08.816+00:00</time>
      </trkpt>
      <trkpt lat="49.3345" lon="-1.69786">
        <ele>10</ele>
        <time>2023-08-22T13:41:13.400+00:00</time>
      </trkpt>
      <trkpt lat="49.33451" lon="-1.69782">
        <ele>10</ele>
        <time>2023-08-22T13:41:17.789+00:00</time>
      </trkpt>
      <trkpt lat="49.33451" lon="-1.6978">
        <ele>10</ele>
        <time>2023-08-22T13:41:21.780+00:00</time>
      </trkpt>
      <trkpt lat="49.33451" lon="-1.6978">
        <ele>10</ele>
        <time>2023-08-22T13:41:25.785+00:00</time>
      </trkpt>
      <trkpt lat="49.33452" lon="-1.69782">
        <ele>10</ele>
        <time>2023-08-22T13:41:29.814+00:00</time>
      </trkpt>
      <trkpt lat="49.33456" lon="-1.69792">
        <ele>10</ele>
        <time>2023-08-22T13:41:34.783+00:00</time>
      </trkpt>
      <trkpt lat="49.33458" lon="-1.69794">
        <ele>11</ele>
        <time>2023-08-22T13:41:39.291+00:00</time>
      </trkpt>
      <trkpt lat="49.33459" lon="-1.69795">
        <ele>11</ele>
        <time>2023-08-22T13:41:44.412+00:00</time>
      </trkpt>
      <trkpt lat="49.33463" lon="-1.69793">
        <ele>11</ele>
        <time>2023-08-22T13:41:48.673+00:00</time>
      </trkpt>
      <trkpt lat="49.33466" lon="-1.69791">
        <ele>11</ele>
        <time>2023-08-22T13:41:52.671+00:00</time>
      </trkpt>
      <trkpt lat="49.33471" lon="-1.69786">
        <ele>11</ele>
        <time>2023-08-22T13:41:57.769+00:00</time>
      </trkpt>
      <trkpt lat="49.33472" lon="-1.69783">
        <ele>11</ele>
        <time>2023-08-22T13:42:02.781+00:00</time>
      </trkpt>
      <trkpt lat="49.33473" lon="-1.69781">
        <ele>11</ele>
        <time>2023-08-22T13:42:07.429+00:00</time>
      </trkpt>
      <trkpt lat="49.33474" lon="-1.69778">
        <ele>11</ele>
        <time>2023-08-22T13:42:12.007+00:00</time>
      </trkpt>
      <trkpt lat="49.33477" lon="-1.69773">
        <ele>11</ele>
        <time>2023-08-22T13:42:16.545+00:00</time>
      </trkpt>
      <trkpt lat="49.3348" lon="-1.69765">
        <ele>11</ele>
        <time>2023-08-22T13:42:20.545+00:00</time>
      </trkpt>
      <trkpt lat="49.33482" lon="-1.69757">
        <ele>11</ele>
        <time>2023-08-22T13:42:25.024+00:00</time>
      </trkpt>
      <trkpt lat="49.33484" lon="-1.6975">
        <ele>11</ele>
        <time>2023-08-22T13:42:29.541+00:00</time>
      </trkpt>
      <trkpt lat="49.33485" lon="-1.69746">
        <ele>11</ele>
        <time>2023-08-22T13:42:33.519+00:00</time>
      </trkpt>
      <trkpt lat="49.33487" lon="-1.69741">
        <ele>13</ele>
        <time>2023-08-22T13:42:38.277+00:00</time>
      </trkpt>
      <trkpt lat="49.33492" lon="-1.69732">
        <ele>12</ele>
        <time>2023-08-22T13:43:04.462+00:00</time>
      </trkpt>
      <trkpt lat="49.33492" lon="-1.69732">
        <ele>12</ele>
        <time>2023-08-22T13:43:09.178+00:00</time>
      </trkpt>
      <trkpt lat="49.33494" lon="-1.69732">
        <ele>12</ele>
        <time>2023-08-22T13:43:13.374+00:00</time>
      </trkpt>
      <trkpt lat="49.33498" lon="-1.69726">
        <ele>12</ele>
        <time>2023-08-22T13:43:17.825+00:00</time>
      </trkpt>
      <trkpt lat="49.33503" lon="-1.69723">
        <ele>12</ele>
        <time>2023-08-22T13:43:22.511+00:00</time>
      </trkpt>
      <trkpt lat="49.33503" lon="-1.6972">
        <ele>12</ele>
        <time>2023-08-22T13:43:27.699+00:00</time>
      </trkpt>
      <trkpt lat="49.33506" lon="-1.69714">
        <ele>12</ele>
        <time>2023-08-22T13:43:31.775+00:00</time>
      </trkpt>
      <trkpt lat="49.33508" lon="-1.69706">
        <ele>12</ele>
        <time>2023-08-22T13:43:36.811+00:00</time>
      </trkpt>
      <trkpt lat="49.33512" lon="-1.69707">
        <ele>12</ele>
        <time>2023-08-22T13:43:41.794+00:00</time>
      </trkpt>
      <trkpt lat="49.33516" lon="-1.69709">
        <ele>13</ele>
        <time>2023-08-22T13:43:59.811+00:00</time>
      </trkpt>
      <trkpt lat="49.33519" lon="-1.69705">
        <ele>13</ele>
        <time>2023-08-22T13:44:04.324+00:00</time>
      </trkpt>
      <trkpt lat="49.33519" lon="-1.69697">
        <ele>13</ele>
        <time>2023-08-22T13:44:08.436+00:00</time>
      </trkpt>
      <trkpt lat="49.33518" lon="-1.69696">
        <ele>13</ele>
        <time>2023-08-22T13:44:12.948+00:00</time>
      </trkpt>
      <trkpt lat="49.3352" lon="-1.69696">
        <ele>13</ele>
        <time>2023-08-22T13:44:17.457+00:00</time>
      </trkpt>
      <trkpt lat="49.33524" lon="-1.69693">
        <ele>13</ele>
        <time>2023-08-22T13:44:26.079+00:00</time>
      </trkpt>
      <trkpt lat="49.33523" lon="-1.69691">
        <ele>13</ele>
        <time>2023-08-22T13:44:30.591+00:00</time>
      </trkpt>
      <trkpt lat="49.33525" lon="-1.69689">
        <ele>13</ele>
        <time>2023-08-22T13:44:34.703+00:00</time>
      </trkpt>
      <trkpt lat="49.33527" lon="-1.69683">
        <ele>13</ele>
        <time>2023-08-22T13:44:39.720+00:00</time>
      </trkpt>
      <trkpt lat="49.33531" lon="-1.6968">
        <ele>13</ele>
        <time>2023-08-22T13:44:43.330+00:00</time>
      </trkpt>
      <trkpt lat="49.33532" lon="-1.69686">
        <ele>13</ele>
        <time>2023-08-22T13:45:51.521+00:00</time>
      </trkpt>
      <trkpt lat="49.33534" lon="-1.69696">
        <ele>13</ele>
        <time>2023-08-22T13:45:55.534+00:00</time>
      </trkpt>
      <trkpt lat="49.33536" lon="-1.69701">
        <ele>13</ele>
        <time>2023-08-22T13:45:59.548+00:00</time>
      </trkpt>
      <trkpt lat="49.33537" lon="-1.69704">
        <ele>13</ele>
        <time>2023-08-22T13:46:04.566+00:00</time>
      </trkpt>
      <trkpt lat="49.33535" lon="-1.69708">
        <ele>13</ele>
        <time>2023-08-22T13:46:08.580+00:00</time>
      </trkpt>
      <trkpt lat="49.33536" lon="-1.69708">
        <ele>13</ele>
        <time>2023-08-22T13:46:17.612+00:00</time>
      </trkpt>
      <trkpt lat="49.33536" lon="-1.69709">
        <ele>13</ele>
        <time>2023-08-22T13:46:21.725+00:00</time>
      </trkpt>
      <trkpt lat="49.33536" lon="-1.69712">
        <ele>13</ele>
        <time>2023-08-22T13:46:26.237+00:00</time>
      </trkpt>
      <trkpt lat="49.33531" lon="-1.69716">
        <ele>13</ele>
        <time>2023-08-22T13:46:30.862+00:00</time>
      </trkpt>
      <trkpt lat="49.33525" lon="-1.69722">
        <ele>13</ele>
        <time>2023-08-22T13:46:34.960+00:00</time>
      </trkpt>
      <trkpt lat="49.33526" lon="-1.69723">
        <ele>13</ele>
        <time>2023-08-22T13:46:39.472+00:00</time>
      </trkpt>
      <trkpt lat="49.3353" lon="-1.69721">
        <ele>13</ele>
        <time>2023-08-22T13:46:43.582+00:00</time>
      </trkpt>
      <trkpt lat="49.33531" lon="-1.69718">
        <ele>13</ele>
        <time>2023-08-22T13:46:47.594+00:00</time>
      </trkpt>
      <trkpt lat="49.33535" lon="-1.69719">
        <ele>13</ele>
        <time>2023-08-22T13:46:52.106+00:00</time>
      </trkpt>
      <trkpt lat="49.33538" lon="-1.69726">
        <ele>13</ele>
        <time>2023-08-22T13:46:56.617+00:00</time>
      </trkpt>
      <trkpt lat="49.33534" lon="-1.69734">
        <ele>13</ele>
        <time>2023-08-22T13:47:00.726+00:00</time>
      </trkpt>
      <trkpt lat="49.33531" lon="-1.69741">
        <ele>13</ele>
        <time>2023-08-22T13:47:05.338+00:00</time>
      </trkpt>
      <trkpt lat="49.33527" lon="-1.69747">
        <ele>13</ele>
        <time>2023-08-22T13:47:09.348+00:00</time>
      </trkpt>
      <trkpt lat="49.33527" lon="-1.69753">
        <ele>13</ele>
        <time>2023-08-22T13:47:13.357+00:00</time>
      </trkpt>
      <trkpt lat="49.33525" lon="-1.6976">
        <ele>13</ele>
        <time>2023-08-22T13:47:17.868+00:00</time>
      </trkpt>
      <trkpt lat="49.33522" lon="-1.69766">
        <ele>13</ele>
        <time>2023-08-22T13:47:21.877+00:00</time>
      </trkpt>
      <trkpt lat="49.33519" lon="-1.69771">
        <ele>13</ele>
        <time>2023-08-22T13:47:26.387+00:00</time>
      </trkpt>
      <trkpt lat="49.33517" lon="-1.69776">
        <ele>13</ele>
        <time>2023-08-22T13:47:30.896+00:00</time>
      </trkpt>
      <trkpt lat="49.33515" lon="-1.6978">
        <ele>13</ele>
        <time>2023-08-22T13:47:35.505+00:00</time>
      </trkpt>
      <trkpt lat="49.33515" lon="-1.69785">
        <ele>13</ele>
        <time>2023-08-22T13:47:39.514+00:00</time>
      </trkpt>
      <trkpt lat="49.33515" lon="-1.69793">
        <ele>13</ele>
        <time>2023-08-22T13:47:43.624+00:00</time>
      </trkpt>
      <trkpt lat="49.33514" lon="-1.69798">
        <ele>13</ele>
        <time>2023-08-22T13:47:47.633+00:00</time>
      </trkpt>
      <trkpt lat="49.33513" lon="-1.69805">
        <ele>12</ele>
        <time>2023-08-22T13:47:51.643+00:00</time>
      </trkpt>
      <trkpt lat="49.3351" lon="-1.69814">
        <ele>12</ele>
        <time>2023-08-22T13:47:56.756+00:00</time>
      </trkpt>
      <trkpt lat="49.3351" lon="-1.69819">
        <ele>12</ele>
        <time>2023-08-22T13:48:00.766+00:00</time>
      </trkpt>
      <trkpt lat="49.33512" lon="-1.6982">
        <ele>12</ele>
        <time>2023-08-22T13:48:09.293+00:00</time>
      </trkpt>
      <trkpt lat="49.33512" lon="-1.6982">
        <ele>12</ele>
        <time>2023-08-22T13:48:13.400+00:00</time>
      </trkpt>
      <trkpt lat="49.33512" lon="-1.69821">
        <ele>12</ele>
        <time>2023-08-22T13:48:18.404+00:00</time>
      </trkpt>
      <trkpt lat="49.33512" lon="-1.69827">
        <ele>12</ele>
        <time>2023-08-22T13:48:22.486+00:00</time>
      </trkpt>
      <trkpt lat="49.3351" lon="-1.69834">
        <ele>12</ele>
        <time>2023-08-22T13:48:26.488+00:00</time>
      </trkpt>
      <trkpt lat="49.33508" lon="-1.6984">
        <ele>12</ele>
        <time>2023-08-22T13:48:31.189+00:00</time>
      </trkpt>
      <trkpt lat="49.33506" lon="-1.69847">
        <ele>12</ele>
        <time>2023-08-22T13:48:35.147+00:00</time>
      </trkpt>
      <trkpt lat="49.33502" lon="-1.69855">
        <ele>11</ele>
        <time>2023-08-22T13:48:39.606+00:00</time>
      </trkpt>
      <trkpt lat="49.335" lon="-1.69864">
        <ele>11</ele>
        <time>2023-08-22T13:48:44.257+00:00</time>
      </trkpt>
      <trkpt lat="49.33497" lon="-1.69873">
        <ele>11</ele>
        <time>2023-08-22T13:48:48.705+00:00</time>
      </trkpt>
      <trkpt lat="49.33496" lon="-1.69881">
        <ele>11</ele>
        <time>2023-08-22T13:48:53.106+00:00</time>
      </trkpt>
      <trkpt lat="49.33497" lon="-1.69887">
        <ele>11</ele>
        <time>2023-08-22T13:48:56.943+00:00</time>
      </trkpt>
      <trkpt lat="49.335" lon="-1.6989">
        <ele>11</ele>
        <time>2023-08-22T13:49:01.323+00:00</time>
      </trkpt>
      <trkpt lat="49.335" lon="-1.69896">
        <ele>11</ele>
        <time>2023-08-22T13:49:05.643+00:00</time>
      </trkpt>
      <trkpt lat="49.33498" lon="-1.69904">
        <ele>10</ele>
        <time>2023-08-22T13:49:10.215+00:00</time>
      </trkpt>
      <trkpt lat="49.33496" lon="-1.69912">
        <ele>10</ele>
        <time>2023-08-22T13:49:14.228+00:00</time>
      </trkpt>
      <trkpt lat="49.33496" lon="-1.6992">
        <ele>10</ele>
        <time>2023-08-22T13:49:18.739+00:00</time>
      </trkpt>
      <trkpt lat="49.33497" lon="-1.69927">
        <ele>10</ele>
        <time>2023-08-22T13:49:22.749+00:00</time>
      </trkpt>
      <trkpt lat="49.33495" lon="-1.69936">
        <ele>9</ele>
        <time>2023-08-22T13:49:27.262+00:00</time>
      </trkpt>
      <trkpt lat="49.33494" lon="-1.69944">
        <ele>9</ele>
        <time>2023-08-22T13:49:31.271+00:00</time>
      </trkpt>
      <trkpt lat="49.33498" lon="-1.69954">
        <ele>9</ele>
        <time>2023-08-22T13:49:35.780+00:00</time>
      </trkpt>
      <trkpt lat="49.33504" lon="-1.69968">
        <ele>8</ele>
        <time>2023-08-22T13:49:44.399+00:00</time>
      </trkpt>
      <trkpt lat="49.33504" lon="-1.69968">
        <ele>8</ele>
        <time>2023-08-22T13:49:49.415+00:00</time>
      </trkpt>
      <trkpt lat="49.33504" lon="-1.69969">
        <ele>8</ele>
        <time>2023-08-22T13:49:53.427+00:00</time>
      </trkpt>
      <trkpt lat="49.33505" lon="-1.69971">
        <ele>8</ele>
        <time>2023-08-22T13:49:57.942+00:00</time>
      </trkpt>
      <trkpt lat="49.33508" lon="-1.69975">
        <ele>8</ele>
        <time>2023-08-22T13:50:01.953+00:00</time>
      </trkpt>
      <trkpt lat="49.33516" lon="-1.69987">
        <ele>10</ele>
        <time>2023-08-22T13:50:24.017+00:00</time>
      </trkpt>
      <trkpt lat="49.33515" lon="-1.69994">
        <ele>10</ele>
        <time>2023-08-22T13:50:28.532+00:00</time>
      </trkpt>
      <trkpt lat="49.33518" lon="-1.69996">
        <ele>10</ele>
        <time>2023-08-22T13:50:32.547+00:00</time>
      </trkpt>
      <trkpt lat="49.33522" lon="-1.69996">
        <ele>10</ele>
        <time>2023-08-22T13:50:36.561+00:00</time>
      </trkpt>
      <trkpt lat="49.33531" lon="-1.69998">
        <ele>10</ele>
        <time>2023-08-22T13:50:40.573+00:00</time>
      </trkpt>
      <trkpt lat="49.33541" lon="-1.7">
        <ele>10</ele>
        <time>2023-08-22T13:50:45.186+00:00</time>
      </trkpt>
      <trkpt lat="49.33547" lon="-1.70007">
        <ele>9</ele>
        <time>2023-08-22T13:50:49.700+00:00</time>
      </trkpt>
      <trkpt lat="49.33554" lon="-1.70016">
        <ele>9</ele>
        <time>2023-08-22T13:50:53.711+00:00</time>
      </trkpt>
      <trkpt lat="49.33558" lon="-1.70023">
        <ele>9</ele>
        <time>2023-08-22T13:50:57.719+00:00</time>
      </trkpt>
      <trkpt lat="49.33562" lon="-1.70028">
        <ele>9</ele>
        <time>2023-08-22T13:51:02.726+00:00</time>
      </trkpt>
      <trkpt lat="49.33568" lon="-1.70028">
        <ele>9</ele>
        <time>2023-08-22T13:51:07.231+00:00</time>
      </trkpt>
      <trkpt lat="49.33573" lon="-1.70026">
        <ele>8</ele>
        <time>2023-08-22T13:51:11.734+00:00</time>
      </trkpt>
      <trkpt lat="49.33578" lon="-1.70025">
        <ele>8</ele>
        <time>2023-08-22T13:51:15.764+00:00</time>
      </trkpt>
      <trkpt lat="49.33582" lon="-1.70027">
        <ele>8</ele>
        <time>2023-08-22T13:51:19.342+00:00</time>
      </trkpt>
      <trkpt lat="49.33587" lon="-1.70029">
        <ele>8</ele>
        <time>2023-08-22T13:51:23.847+00:00</time>
      </trkpt>
      <trkpt lat="49.33593" lon="-1.70031">
        <ele>8</ele>
        <time>2023-08-22T13:51:27.849+00:00</time>
      </trkpt>
      <trkpt lat="49.33599" lon="-1.70037">
        <ele>8</ele>
        <time>2023-08-22T13:51:32.543+00:00</time>
      </trkpt>
      <trkpt lat="49.33602" lon="-1.7004">
        <ele>8</ele>
        <time>2023-08-22T13:51:36.593+00:00</time>
      </trkpt>
      <trkpt lat="49.33603" lon="-1.70045">
        <ele>7</ele>
        <time>2023-08-22T13:51:40.614+00:00</time>
      </trkpt>
      <trkpt lat="49.33607" lon="-1.70048">
        <ele>7</ele>
        <time>2023-08-22T13:51:45.113+00:00</time>
      </trkpt>
      <trkpt lat="49.33614" lon="-1.7005">
        <ele>7</ele>
        <time>2023-08-22T13:51:49.833+00:00</time>
      </trkpt>
      <trkpt lat="49.3362" lon="-1.70051">
        <ele>7</ele>
        <time>2023-08-22T13:51:53.955+00:00</time>
      </trkpt>
      <trkpt lat="49.33626" lon="-1.70053">
        <ele>6</ele>
        <time>2023-08-22T13:51:58.556+00:00</time>
      </trkpt>
      <trkpt lat="49.33632" lon="-1.70056">
        <ele>6</ele>
        <time>2023-08-22T13:52:03.459+00:00</time>
      </trkpt>
      <trkpt lat="49.33637" lon="-1.7006">
        <ele>6</ele>
        <time>2023-08-22T13:52:07.414+00:00</time>
      </trkpt>
      <trkpt lat="49.33642" lon="-1.70062">
        <ele>6</ele>
        <time>2023-08-22T13:52:11.552+00:00</time>
      </trkpt>
      <trkpt lat="49.33649" lon="-1.70061">
        <ele>6</ele>
        <time>2023-08-22T13:52:16.250+00:00</time>
      </trkpt>
      <trkpt lat="49.33655" lon="-1.70064">
        <ele>7</ele>
        <time>2023-08-22T13:52:20.771+00:00</time>
      </trkpt>
      <trkpt lat="49.33657" lon="-1.70069">
        <ele>7</ele>
        <time>2023-08-22T13:52:24.798+00:00</time>
      </trkpt>
      <trkpt lat="49.33661" lon="-1.70069">
        <ele>7</ele>
        <time>2023-08-22T13:52:28.771+00:00</time>
      </trkpt>
      <trkpt lat="49.33666" lon="-1.70069">
        <ele>7</ele>
        <time>2023-08-22T13:52:32.925+00:00</time>
      </trkpt>
      <trkpt lat="49.33672" lon="-1.70074">
        <ele>5</ele>
        <time>2023-08-22T13:52:37.365+00:00</time>
      </trkpt>
      <trkpt lat="49.33677" lon="-1.70075">
        <ele>5</ele>
        <time>2023-08-22T13:52:41.771+00:00</time>
      </trkpt>
      <trkpt lat="49.33682" lon="-1.70073">
        <ele>6</ele>
        <time>2023-08-22T13:52:45.771+00:00</time>
      </trkpt>
      <trkpt lat="49.33688" lon="-1.70069">
        <ele>6</ele>
        <time>2023-08-22T13:52:50.317+00:00</time>
      </trkpt>
      <trkpt lat="49.33694" lon="-1.70067">
        <ele>6</ele>
        <time>2023-08-22T13:52:54.976+00:00</time>
      </trkpt>
      <trkpt lat="49.337" lon="-1.70069">
        <ele>6</ele>
        <time>2023-08-22T13:52:59.534+00:00</time>
      </trkpt>
      <trkpt lat="49.33706" lon="-1.70069">
        <ele>6</ele>
        <time>2023-08-22T13:53:03.952+00:00</time>
      </trkpt>
      <trkpt lat="49.33711" lon="-1.70074">
        <ele>6</ele>
        <time>2023-08-22T13:53:08.533+00:00</time>
      </trkpt>
      <trkpt lat="49.33716" lon="-1.70074">
        <ele>6</ele>
        <time>2023-08-22T13:53:12.771+00:00</time>
      </trkpt>
      <trkpt lat="49.33723" lon="-1.70074">
        <ele>6</ele>
        <time>2023-08-22T13:53:17.694+00:00</time>
      </trkpt>
      <trkpt lat="49.33728" lon="-1.70074">
        <ele>6</ele>
        <time>2023-08-22T13:53:22.153+00:00</time>
      </trkpt>
      <trkpt lat="49.33732" lon="-1.70071">
        <ele>6</ele>
        <time>2023-08-22T13:53:26.092+00:00</time>
      </trkpt>
      <trkpt lat="49.33738" lon="-1.70069">
        <ele>7</ele>
        <time>2023-08-22T13:53:30.612+00:00</time>
      </trkpt>
      <trkpt lat="49.33744" lon="-1.70069">
        <ele>7</ele>
        <time>2023-08-22T13:53:35.313+00:00</time>
      </trkpt>
    </trkseg>
  </trk>
</gpx>